<?xml version="1.0" encoding="UTF-8" standalone="no" ?>
<gpx xmlns="http://www.topografix.com/GPX/1/1" xmlns:xsi="http://www.w3.org/2001/XMLSchema-instance" xsi:schemaLocation="http://www.topografix.com/GPX/1/1 http://www.topografix.com/GPX/1/1/gpx.xsd" version="1.1" creator="VisuGPX - https://www.visugpx.com">
  <metadata>
    <name>CCM_Charleville sous Bois 75 km</name>
    <desc><![CDATA[Sur les hauteurs au NE de Metz]]></desc>
  </metadata>
  <trk>
    <name><![CDATA[2012-11-13T12:33:30Z]]></name>
    <trkseg>
      <trkpt lat="49.10068" lon="6.18688">
        <ele>167.4067383</ele>
        <time>2012-11-13T12:33:30Z</time>
      </trkpt>
      <trkpt lat="49.10068" lon="6.18688">
        <ele>167.4067383</ele>
        <time>2012-11-13T12:33:31Z</time>
      </trkpt>
      <trkpt lat="49.10068" lon="6.18688">
        <ele>167.4067383</ele>
        <time>2012-11-13T12:33:32Z</time>
      </trkpt>
      <trkpt lat="49.10069" lon="6.18686">
        <ele>167.8873291</ele>
        <time>2012-11-13T12:34:28Z</time>
      </trkpt>
      <trkpt lat="49.10068" lon="6.18686">
        <ele>167.8873291</ele>
        <time>2012-11-13T12:34:29Z</time>
      </trkpt>
      <trkpt lat="49.10068" lon="6.18685">
        <ele>167.4067383</ele>
        <time>2012-11-13T12:34:30Z</time>
      </trkpt>
      <trkpt lat="49.10067" lon="6.18685">
        <ele>167.4067383</ele>
        <time>2012-11-13T12:34:59Z</time>
      </trkpt>
      <trkpt lat="49.10066" lon="6.18684">
        <ele>167.4067383</ele>
        <time>2012-11-13T12:35:00Z</time>
      </trkpt>
      <trkpt lat="49.1006" lon="6.18687">
        <ele>167.8873291</ele>
        <time>2012-11-13T12:35:02Z</time>
      </trkpt>
      <trkpt lat="49.10058" lon="6.1869">
        <ele>167.4067383</ele>
        <time>2012-11-13T12:35:03Z</time>
      </trkpt>
      <trkpt lat="49.10054" lon="6.18708">
        <ele>167.8873291</ele>
        <time>2012-11-13T12:35:07Z</time>
      </trkpt>
      <trkpt lat="49.10054" lon="6.18718">
        <ele>167.4067383</ele>
        <time>2012-11-13T12:35:09Z</time>
      </trkpt>
      <trkpt lat="49.10057" lon="6.18769">
        <ele>168.368042</ele>
        <time>2012-11-13T12:35:18Z</time>
      </trkpt>
      <trkpt lat="49.10059" lon="6.18793">
        <ele>168.8487549</ele>
        <time>2012-11-13T12:35:25Z</time>
      </trkpt>
      <trkpt lat="49.10061" lon="6.18816">
        <ele>169.3294678</ele>
        <time>2012-11-13T12:35:30Z</time>
      </trkpt>
      <trkpt lat="49.10064" lon="6.18852">
        <ele>168.8487549</ele>
        <time>2012-11-13T12:35:35Z</time>
      </trkpt>
      <trkpt lat="49.10068" lon="6.18893">
        <ele>169.3294678</ele>
        <time>2012-11-13T12:35:41Z</time>
      </trkpt>
      <trkpt lat="49.10072" lon="6.18939">
        <ele>172.2132568</ele>
        <time>2012-11-13T12:35:50Z</time>
      </trkpt>
      <trkpt lat="49.10073" lon="6.18994">
        <ele>173.6552734</ele>
        <time>2012-11-13T12:36:00Z</time>
      </trkpt>
      <trkpt lat="49.10077" lon="6.19046">
        <ele>174.1358643</ele>
        <time>2012-11-13T12:36:08Z</time>
      </trkpt>
      <trkpt lat="49.10084" lon="6.19096">
        <ele>174.6165771</ele>
        <time>2012-11-13T12:36:16Z</time>
      </trkpt>
      <trkpt lat="49.10097" lon="6.19104">
        <ele>174.6165771</ele>
        <time>2012-11-13T12:36:20Z</time>
      </trkpt>
      <trkpt lat="49.10131" lon="6.19086">
        <ele>176.5393066</ele>
        <time>2012-11-13T12:36:30Z</time>
      </trkpt>
      <trkpt lat="49.10148" lon="6.19078">
        <ele>177.9812012</ele>
        <time>2012-11-13T12:36:36Z</time>
      </trkpt>
      <trkpt lat="49.1017" lon="6.19068">
        <ele>179.9038086</ele>
        <time>2012-11-13T12:36:45Z</time>
      </trkpt>
      <trkpt lat="49.10189" lon="6.1906">
        <ele>183.2684326</ele>
        <time>2012-11-13T12:36:53Z</time>
      </trkpt>
      <trkpt lat="49.10205" lon="6.19057">
        <ele>185.1911621</ele>
        <time>2012-11-13T12:37:00Z</time>
      </trkpt>
      <trkpt lat="49.10223" lon="6.1905">
        <ele>187.1137695</ele>
        <time>2012-11-13T12:37:08Z</time>
      </trkpt>
      <trkpt lat="49.10242" lon="6.19043">
        <ele>189.9976807</ele>
        <time>2012-11-13T12:37:17Z</time>
      </trkpt>
      <trkpt lat="49.10255" lon="6.19037">
        <ele>191.9202881</ele>
        <time>2012-11-13T12:37:23Z</time>
      </trkpt>
      <trkpt lat="49.10276" lon="6.19033">
        <ele>194.3237305</ele>
        <time>2012-11-13T12:37:31Z</time>
      </trkpt>
      <trkpt lat="49.10295" lon="6.19034">
        <ele>194.8043213</ele>
        <time>2012-11-13T12:37:37Z</time>
      </trkpt>
      <trkpt lat="49.10327" lon="6.19043">
        <ele>194.8043213</ele>
        <time>2012-11-13T12:37:47Z</time>
      </trkpt>
      <trkpt lat="49.10347" lon="6.1905">
        <ele>194.8043213</ele>
        <time>2012-11-13T12:37:52Z</time>
      </trkpt>
      <trkpt lat="49.10381" lon="6.1906">
        <ele>195.2849121</ele>
        <time>2012-11-13T12:38:00Z</time>
      </trkpt>
      <trkpt lat="49.10418" lon="6.19071">
        <ele>195.765625</ele>
        <time>2012-11-13T12:38:09Z</time>
      </trkpt>
      <trkpt lat="49.10429" lon="6.19085">
        <ele>196.2463379</ele>
        <time>2012-11-13T12:38:13Z</time>
      </trkpt>
      <trkpt lat="49.10433" lon="6.19104">
        <ele>196.2463379</ele>
        <time>2012-11-13T12:38:18Z</time>
      </trkpt>
      <trkpt lat="49.10437" lon="6.19136">
        <ele>197.6882324</ele>
        <time>2012-11-13T12:38:23Z</time>
      </trkpt>
      <trkpt lat="49.10444" lon="6.19182">
        <ele>198.6495361</ele>
        <time>2012-11-13T12:38:30Z</time>
      </trkpt>
      <trkpt lat="49.10453" lon="6.19241">
        <ele>200.5722656</ele>
        <time>2012-11-13T12:38:40Z</time>
      </trkpt>
      <trkpt lat="49.10463" lon="6.19293">
        <ele>201.0528564</ele>
        <time>2012-11-13T12:38:49Z</time>
      </trkpt>
      <trkpt lat="49.10472" lon="6.19329">
        <ele>201.5335693</ele>
        <time>2012-11-13T12:38:56Z</time>
      </trkpt>
      <trkpt lat="49.10477" lon="6.1935">
        <ele>202.0142822</ele>
        <time>2012-11-13T12:39:02Z</time>
      </trkpt>
      <trkpt lat="49.10477" lon="6.19353">
        <ele>202.0142822</ele>
        <time>2012-11-13T12:39:05Z</time>
      </trkpt>
      <trkpt lat="49.10477" lon="6.19354">
        <ele>202.0142822</ele>
        <time>2012-11-13T12:39:09Z</time>
      </trkpt>
      <trkpt lat="49.1048" lon="6.19366">
        <ele>202.494873</ele>
        <time>2012-11-13T12:39:12Z</time>
      </trkpt>
      <trkpt lat="49.10484" lon="6.194">
        <ele>202.9754639</ele>
        <time>2012-11-13T12:39:18Z</time>
      </trkpt>
      <trkpt lat="49.10485" lon="6.19406">
        <ele>202.9754639</ele>
        <time>2012-11-13T12:39:19Z</time>
      </trkpt>
      <trkpt lat="49.10502" lon="6.19461">
        <ele>204.4174805</ele>
        <time>2012-11-13T12:39:28Z</time>
      </trkpt>
      <trkpt lat="49.1052" lon="6.19511">
        <ele>205.8594971</ele>
        <time>2012-11-13T12:39:37Z</time>
      </trkpt>
      <trkpt lat="49.10536" lon="6.1955">
        <ele>206.3400879</ele>
        <time>2012-11-13T12:39:44Z</time>
      </trkpt>
      <trkpt lat="49.10549" lon="6.19605">
        <ele>207.3013916</ele>
        <time>2012-11-13T12:39:52Z</time>
      </trkpt>
      <trkpt lat="49.10559" lon="6.1964">
        <ele>206.8206787</ele>
        <time>2012-11-13T12:39:57Z</time>
      </trkpt>
      <trkpt lat="49.10574" lon="6.19669">
        <ele>206.8206787</ele>
        <time>2012-11-13T12:40:03Z</time>
      </trkpt>
      <trkpt lat="49.10576" lon="6.19673">
        <ele>206.8206787</ele>
        <time>2012-11-13T12:40:04Z</time>
      </trkpt>
      <trkpt lat="49.10593" lon="6.1968">
        <ele>206.3400879</ele>
        <time>2012-11-13T12:40:09Z</time>
      </trkpt>
      <trkpt lat="49.10598" lon="6.1969">
        <ele>206.8206787</ele>
        <time>2012-11-13T12:40:11Z</time>
      </trkpt>
      <trkpt lat="49.10602" lon="6.19703">
        <ele>207.7821045</ele>
        <time>2012-11-13T12:40:13Z</time>
      </trkpt>
      <trkpt lat="49.10616" lon="6.19753">
        <ele>209.704834</ele>
        <time>2012-11-13T12:40:21Z</time>
      </trkpt>
      <trkpt lat="49.10637" lon="6.19819">
        <ele>211.1467285</ele>
        <time>2012-11-13T12:40:31Z</time>
      </trkpt>
      <trkpt lat="49.10652" lon="6.19867">
        <ele>211.6274414</ele>
        <time>2012-11-13T12:40:39Z</time>
      </trkpt>
      <trkpt lat="49.10655" lon="6.19876">
        <ele>210.6660156</ele>
        <time>2012-11-13T12:40:43Z</time>
      </trkpt>
      <trkpt lat="49.10655" lon="6.19877">
        <ele>210.6660156</ele>
        <time>2012-11-13T12:40:45Z</time>
      </trkpt>
      <trkpt lat="49.10656" lon="6.19878">
        <ele>210.6660156</ele>
        <time>2012-11-13T12:40:49Z</time>
      </trkpt>
      <trkpt lat="49.10666" lon="6.19877">
        <ele>211.6274414</ele>
        <time>2012-11-13T12:40:54Z</time>
      </trkpt>
      <trkpt lat="49.10681" lon="6.19863">
        <ele>211.1467285</ele>
        <time>2012-11-13T12:40:59Z</time>
      </trkpt>
      <trkpt lat="49.10705" lon="6.19843">
        <ele>211.1467285</ele>
        <time>2012-11-13T12:41:05Z</time>
      </trkpt>
      <trkpt lat="49.10729" lon="6.19822">
        <ele>210.1854248</ele>
        <time>2012-11-13T12:41:11Z</time>
      </trkpt>
      <trkpt lat="49.10756" lon="6.19798">
        <ele>209.2241211</ele>
        <time>2012-11-13T12:41:17Z</time>
      </trkpt>
      <trkpt lat="49.10766" lon="6.1979">
        <ele>208.2628174</ele>
        <time>2012-11-13T12:41:19Z</time>
      </trkpt>
      <trkpt lat="49.10786" lon="6.1977">
        <ele>208.2628174</ele>
        <time>2012-11-13T12:41:24Z</time>
      </trkpt>
      <trkpt lat="49.108" lon="6.19757">
        <ele>207.3013916</ele>
        <time>2012-11-13T12:41:27Z</time>
      </trkpt>
      <trkpt lat="49.10843" lon="6.19722">
        <ele>206.3400879</ele>
        <time>2012-11-13T12:41:34Z</time>
      </trkpt>
      <trkpt lat="49.10872" lon="6.19698">
        <ele>205.3787842</ele>
        <time>2012-11-13T12:41:40Z</time>
      </trkpt>
      <trkpt lat="49.10878" lon="6.19694">
        <ele>205.8594971</ele>
        <time>2012-11-13T12:41:42Z</time>
      </trkpt>
      <trkpt lat="49.10889" lon="6.19705">
        <ele>205.8594971</ele>
        <time>2012-11-13T12:41:46Z</time>
      </trkpt>
      <trkpt lat="49.10915" lon="6.19756">
        <ele>205.3787842</ele>
        <time>2012-11-13T12:41:53Z</time>
      </trkpt>
      <trkpt lat="49.10944" lon="6.1982">
        <ele>204.4174805</ele>
        <time>2012-11-13T12:42:01Z</time>
      </trkpt>
      <trkpt lat="49.1097" lon="6.19878">
        <ele>202.494873</ele>
        <time>2012-11-13T12:42:08Z</time>
      </trkpt>
      <trkpt lat="49.10992" lon="6.19928">
        <ele>202.494873</ele>
        <time>2012-11-13T12:42:15Z</time>
      </trkpt>
      <trkpt lat="49.10998" lon="6.19941">
        <ele>202.494873</ele>
        <time>2012-11-13T12:42:17Z</time>
      </trkpt>
      <trkpt lat="49.11017" lon="6.19952">
        <ele>201.5335693</ele>
        <time>2012-11-13T12:42:21Z</time>
      </trkpt>
      <trkpt lat="49.11025" lon="6.19947">
        <ele>201.5335693</ele>
        <time>2012-11-13T12:42:23Z</time>
      </trkpt>
      <trkpt lat="49.11058" lon="6.19923">
        <ele>199.6108398</ele>
        <time>2012-11-13T12:42:30Z</time>
      </trkpt>
      <trkpt lat="49.11078" lon="6.19911">
        <ele>198.6495361</ele>
        <time>2012-11-13T12:42:34Z</time>
      </trkpt>
      <trkpt lat="49.111" lon="6.19913">
        <ele>197.6882324</ele>
        <time>2012-11-13T12:42:38Z</time>
      </trkpt>
      <trkpt lat="49.11116" lon="6.19922">
        <ele>196.7269287</ele>
        <time>2012-11-13T12:42:40Z</time>
      </trkpt>
      <trkpt lat="49.11122" lon="6.19927">
        <ele>196.2463379</ele>
        <time>2012-11-13T12:42:41Z</time>
      </trkpt>
      <trkpt lat="49.11142" lon="6.19948">
        <ele>192.8817139</ele>
        <time>2012-11-13T12:42:45Z</time>
      </trkpt>
      <trkpt lat="49.11157" lon="6.19964">
        <ele>190.4783936</ele>
        <time>2012-11-13T12:42:50Z</time>
      </trkpt>
      <trkpt lat="49.11162" lon="6.19968">
        <ele>190.4783936</ele>
        <time>2012-11-13T12:42:55Z</time>
      </trkpt>
      <trkpt lat="49.1117" lon="6.19975">
        <ele>189.9976807</ele>
        <time>2012-11-13T12:42:59Z</time>
      </trkpt>
      <trkpt lat="49.1119" lon="6.19993">
        <ele>188.0750732</ele>
        <time>2012-11-13T12:43:04Z</time>
      </trkpt>
      <trkpt lat="49.112" lon="6.20003">
        <ele>187.1137695</ele>
        <time>2012-11-13T12:43:08Z</time>
      </trkpt>
      <trkpt lat="49.11213" lon="6.20018">
        <ele>186.1524658</ele>
        <time>2012-11-13T12:43:13Z</time>
      </trkpt>
      <trkpt lat="49.11236" lon="6.20039">
        <ele>186.1524658</ele>
        <time>2012-11-13T12:43:19Z</time>
      </trkpt>
      <trkpt lat="49.11273" lon="6.20062">
        <ele>185.6717529</ele>
        <time>2012-11-13T12:43:25Z</time>
      </trkpt>
      <trkpt lat="49.11286" lon="6.2007">
        <ele>184.2298584</ele>
        <time>2012-11-13T12:43:27Z</time>
      </trkpt>
      <trkpt lat="49.11309" lon="6.20086">
        <ele>180.8652344</ele>
        <time>2012-11-13T12:43:31Z</time>
      </trkpt>
      <trkpt lat="49.11314" lon="6.20089">
        <ele>181.3458252</ele>
        <time>2012-11-13T12:43:32Z</time>
      </trkpt>
      <trkpt lat="49.11326" lon="6.20097">
        <ele>180.3845215</ele>
        <time>2012-11-13T12:43:36Z</time>
      </trkpt>
      <trkpt lat="49.11336" lon="6.2011">
        <ele>180.8652344</ele>
        <time>2012-11-13T12:43:40Z</time>
      </trkpt>
      <trkpt lat="49.11345" lon="6.2015">
        <ele>181.3458252</ele>
        <time>2012-11-13T12:43:46Z</time>
      </trkpt>
      <trkpt lat="49.11354" lon="6.20202">
        <ele>182.3071289</ele>
        <time>2012-11-13T12:43:53Z</time>
      </trkpt>
      <trkpt lat="49.11355" lon="6.20209">
        <ele>181.826416</ele>
        <time>2012-11-13T12:43:54Z</time>
      </trkpt>
      <trkpt lat="49.11355" lon="6.20233">
        <ele>182.7878418</ele>
        <time>2012-11-13T12:43:57Z</time>
      </trkpt>
      <trkpt lat="49.11362" lon="6.20272">
        <ele>184.2298584</ele>
        <time>2012-11-13T12:44:02Z</time>
      </trkpt>
      <trkpt lat="49.11369" lon="6.20293">
        <ele>184.2298584</ele>
        <time>2012-11-13T12:44:05Z</time>
      </trkpt>
      <trkpt lat="49.11388" lon="6.20317">
        <ele>185.1911621</ele>
        <time>2012-11-13T12:44:10Z</time>
      </trkpt>
      <trkpt lat="49.11428" lon="6.20346">
        <ele>184.2298584</ele>
        <time>2012-11-13T12:44:18Z</time>
      </trkpt>
      <trkpt lat="49.11475" lon="6.20384">
        <ele>182.3071289</ele>
        <time>2012-11-13T12:44:28Z</time>
      </trkpt>
      <trkpt lat="49.11505" lon="6.20409">
        <ele>180.8652344</ele>
        <time>2012-11-13T12:44:35Z</time>
      </trkpt>
      <trkpt lat="49.11531" lon="6.20433">
        <ele>180.3845215</ele>
        <time>2012-11-13T12:44:42Z</time>
      </trkpt>
      <trkpt lat="49.11562" lon="6.20464">
        <ele>180.3845215</ele>
        <time>2012-11-13T12:44:49Z</time>
      </trkpt>
      <trkpt lat="49.11584" lon="6.20471">
        <ele>180.8652344</ele>
        <time>2012-11-13T12:44:53Z</time>
      </trkpt>
      <trkpt lat="49.11595" lon="6.20471">
        <ele>180.3845215</ele>
        <time>2012-11-13T12:44:55Z</time>
      </trkpt>
      <trkpt lat="49.11615" lon="6.20467">
        <ele>181.826416</ele>
        <time>2012-11-13T12:45:00Z</time>
      </trkpt>
      <trkpt lat="49.11634" lon="6.20475">
        <ele>183.2684326</ele>
        <time>2012-11-13T12:45:04Z</time>
      </trkpt>
      <trkpt lat="49.11653" lon="6.20479">
        <ele>185.1911621</ele>
        <time>2012-11-13T12:45:09Z</time>
      </trkpt>
      <trkpt lat="49.11673" lon="6.20474">
        <ele>186.1524658</ele>
        <time>2012-11-13T12:45:14Z</time>
      </trkpt>
      <trkpt lat="49.11701" lon="6.20464">
        <ele>189.036377</ele>
        <time>2012-11-13T12:45:22Z</time>
      </trkpt>
      <trkpt lat="49.11736" lon="6.20451">
        <ele>191.4395752</ele>
        <time>2012-11-13T12:45:32Z</time>
      </trkpt>
      <trkpt lat="49.11771" lon="6.20433">
        <ele>194.3237305</ele>
        <time>2012-11-13T12:45:42Z</time>
      </trkpt>
      <trkpt lat="49.11782" lon="6.20427">
        <ele>195.2849121</ele>
        <time>2012-11-13T12:45:45Z</time>
      </trkpt>
      <trkpt lat="49.11786" lon="6.20425">
        <ele>195.2849121</ele>
        <time>2012-11-13T12:45:46Z</time>
      </trkpt>
      <trkpt lat="49.11817" lon="6.20407">
        <ele>196.7269287</ele>
        <time>2012-11-13T12:45:55Z</time>
      </trkpt>
      <trkpt lat="49.1185" lon="6.20389">
        <ele>197.6882324</ele>
        <time>2012-11-13T12:46:05Z</time>
      </trkpt>
      <trkpt lat="49.11861" lon="6.20383">
        <ele>198.6495361</ele>
        <time>2012-11-13T12:46:11Z</time>
      </trkpt>
      <trkpt lat="49.11871" lon="6.20378">
        <ele>199.6108398</ele>
        <time>2012-11-13T12:46:19Z</time>
      </trkpt>
      <trkpt lat="49.1187" lon="6.20379">
        <ele>200.5722656</ele>
        <time>2012-11-13T12:46:26Z</time>
      </trkpt>
      <trkpt lat="49.11871" lon="6.20378">
        <ele>200.0916748</ele>
        <time>2012-11-13T12:46:27Z</time>
      </trkpt>
      <trkpt lat="49.11873" lon="6.20376">
        <ele>201.0528564</ele>
        <time>2012-11-13T12:46:28Z</time>
      </trkpt>
      <trkpt lat="49.11875" lon="6.20375">
        <ele>201.0528564</ele>
        <time>2012-11-13T12:46:29Z</time>
      </trkpt>
      <trkpt lat="49.11889" lon="6.20373">
        <ele>202.0142822</ele>
        <time>2012-11-13T12:46:34Z</time>
      </trkpt>
      <trkpt lat="49.11916" lon="6.20362">
        <ele>203.4561768</ele>
        <time>2012-11-13T12:46:41Z</time>
      </trkpt>
      <trkpt lat="49.11941" lon="6.20352">
        <ele>204.4174805</ele>
        <time>2012-11-13T12:46:47Z</time>
      </trkpt>
      <trkpt lat="49.11968" lon="6.20342">
        <ele>205.3787842</ele>
        <time>2012-11-13T12:46:54Z</time>
      </trkpt>
      <trkpt lat="49.11989" lon="6.20335">
        <ele>206.8206787</ele>
        <time>2012-11-13T12:47:00Z</time>
      </trkpt>
      <trkpt lat="49.12011" lon="6.20329">
        <ele>207.7821045</ele>
        <time>2012-11-13T12:47:06Z</time>
      </trkpt>
      <trkpt lat="49.12031" lon="6.20332">
        <ele>207.3013916</ele>
        <time>2012-11-13T12:47:11Z</time>
      </trkpt>
      <trkpt lat="49.1205" lon="6.20343">
        <ele>207.3013916</ele>
        <time>2012-11-13T12:47:16Z</time>
      </trkpt>
      <trkpt lat="49.1206" lon="6.20354">
        <ele>207.7821045</ele>
        <time>2012-11-13T12:47:19Z</time>
      </trkpt>
      <trkpt lat="49.1207" lon="6.20377">
        <ele>207.3013916</ele>
        <time>2012-11-13T12:47:23Z</time>
      </trkpt>
      <trkpt lat="49.12071" lon="6.20391">
        <ele>207.3013916</ele>
        <time>2012-11-13T12:47:25Z</time>
      </trkpt>
      <trkpt lat="49.12076" lon="6.20443">
        <ele>207.3013916</ele>
        <time>2012-11-13T12:47:32Z</time>
      </trkpt>
      <trkpt lat="49.12086" lon="6.2051">
        <ele>206.3400879</ele>
        <time>2012-11-13T12:47:40Z</time>
      </trkpt>
      <trkpt lat="49.12094" lon="6.2057">
        <ele>205.8594971</ele>
        <time>2012-11-13T12:47:46Z</time>
      </trkpt>
      <trkpt lat="49.12098" lon="6.20603">
        <ele>204.4174805</ele>
        <time>2012-11-13T12:47:49Z</time>
      </trkpt>
      <trkpt lat="49.12105" lon="6.20657">
        <ele>201.5335693</ele>
        <time>2012-11-13T12:47:54Z</time>
      </trkpt>
      <trkpt lat="49.12112" lon="6.20733">
        <ele>199.6108398</ele>
        <time>2012-11-13T12:48:01Z</time>
      </trkpt>
      <trkpt lat="49.12118" lon="6.208">
        <ele>199.6108398</ele>
        <time>2012-11-13T12:48:08Z</time>
      </trkpt>
      <trkpt lat="49.12123" lon="6.2086">
        <ele>198.1689453</ele>
        <time>2012-11-13T12:48:14Z</time>
      </trkpt>
      <trkpt lat="49.12134" lon="6.20937">
        <ele>197.6882324</ele>
        <time>2012-11-13T12:48:21Z</time>
      </trkpt>
      <trkpt lat="49.12152" lon="6.21007">
        <ele>197.2075195</ele>
        <time>2012-11-13T12:48:29Z</time>
      </trkpt>
      <trkpt lat="49.12168" lon="6.2108">
        <ele>195.2849121</ele>
        <time>2012-11-13T12:48:38Z</time>
      </trkpt>
      <trkpt lat="49.12182" lon="6.21132">
        <ele>194.3237305</ele>
        <time>2012-11-13T12:48:44Z</time>
      </trkpt>
      <trkpt lat="49.12185" lon="6.2114">
        <ele>194.3237305</ele>
        <time>2012-11-13T12:48:45Z</time>
      </trkpt>
      <trkpt lat="49.12197" lon="6.2118">
        <ele>190.9589844</ele>
        <time>2012-11-13T12:48:50Z</time>
      </trkpt>
      <trkpt lat="49.122" lon="6.21189">
        <ele>190.9589844</ele>
        <time>2012-11-13T12:48:51Z</time>
      </trkpt>
      <trkpt lat="49.12214" lon="6.21225">
        <ele>186.1524658</ele>
        <time>2012-11-13T12:48:55Z</time>
      </trkpt>
      <trkpt lat="49.12217" lon="6.21232">
        <ele>186.1524658</ele>
        <time>2012-11-13T12:48:56Z</time>
      </trkpt>
      <trkpt lat="49.12227" lon="6.21251">
        <ele>184.2298584</ele>
        <time>2012-11-13T12:48:59Z</time>
      </trkpt>
      <trkpt lat="49.12234" lon="6.21269">
        <ele>182.3071289</ele>
        <time>2012-11-13T12:49:03Z</time>
      </trkpt>
      <trkpt lat="49.12238" lon="6.2128">
        <ele>180.8652344</ele>
        <time>2012-11-13T12:49:07Z</time>
      </trkpt>
      <trkpt lat="49.12239" lon="6.2132">
        <ele>182.7878418</ele>
        <time>2012-11-13T12:49:13Z</time>
      </trkpt>
      <trkpt lat="49.12232" lon="6.21374">
        <ele>184.7105713</ele>
        <time>2012-11-13T12:49:20Z</time>
      </trkpt>
      <trkpt lat="49.12228" lon="6.21424">
        <ele>186.1524658</ele>
        <time>2012-11-13T12:49:27Z</time>
      </trkpt>
      <trkpt lat="49.12226" lon="6.21471">
        <ele>187.1137695</ele>
        <time>2012-11-13T12:49:34Z</time>
      </trkpt>
      <trkpt lat="49.12225" lon="6.21475">
        <ele>187.5943604</ele>
        <time>2012-11-13T12:49:35Z</time>
      </trkpt>
      <trkpt lat="49.12225" lon="6.2148">
        <ele>187.1137695</ele>
        <time>2012-11-13T12:49:36Z</time>
      </trkpt>
      <trkpt lat="49.12224" lon="6.2149">
        <ele>188.0750732</ele>
        <time>2012-11-13T12:49:38Z</time>
      </trkpt>
      <trkpt lat="49.12224" lon="6.21493">
        <ele>188.0750732</ele>
        <time>2012-11-13T12:49:39Z</time>
      </trkpt>
      <trkpt lat="49.12223" lon="6.21497">
        <ele>188.5557861</ele>
        <time>2012-11-13T12:49:40Z</time>
      </trkpt>
      <trkpt lat="49.12223" lon="6.21506">
        <ele>188.5557861</ele>
        <time>2012-11-13T12:49:42Z</time>
      </trkpt>
      <trkpt lat="49.12222" lon="6.21511">
        <ele>188.5557861</ele>
        <time>2012-11-13T12:49:43Z</time>
      </trkpt>
      <trkpt lat="49.12223" lon="6.21541">
        <ele>189.036377</ele>
        <time>2012-11-13T12:49:50Z</time>
      </trkpt>
      <trkpt lat="49.12229" lon="6.21546">
        <ele>189.036377</ele>
        <time>2012-11-13T12:49:52Z</time>
      </trkpt>
      <trkpt lat="49.12237" lon="6.21547">
        <ele>188.5557861</ele>
        <time>2012-11-13T12:49:54Z</time>
      </trkpt>
      <trkpt lat="49.12272" lon="6.2154">
        <ele>186.6331787</ele>
        <time>2012-11-13T12:50:00Z</time>
      </trkpt>
      <trkpt lat="49.12316" lon="6.2154">
        <ele>184.7105713</ele>
        <time>2012-11-13T12:50:06Z</time>
      </trkpt>
      <trkpt lat="49.12356" lon="6.21547">
        <ele>181.826416</ele>
        <time>2012-11-13T12:50:11Z</time>
      </trkpt>
      <trkpt lat="49.12391" lon="6.21552">
        <ele>178.4619141</ele>
        <time>2012-11-13T12:50:15Z</time>
      </trkpt>
      <trkpt lat="49.124" lon="6.21554">
        <ele>177.9812012</ele>
        <time>2012-11-13T12:50:16Z</time>
      </trkpt>
      <trkpt lat="49.12431" lon="6.21581">
        <ele>176.0585938</ele>
        <time>2012-11-13T12:50:20Z</time>
      </trkpt>
      <trkpt lat="49.12453" lon="6.21621">
        <ele>175.5778809</ele>
        <time>2012-11-13T12:50:24Z</time>
      </trkpt>
      <trkpt lat="49.12466" lon="6.21653">
        <ele>174.6165771</ele>
        <time>2012-11-13T12:50:27Z</time>
      </trkpt>
      <trkpt lat="49.12489" lon="6.21667">
        <ele>174.1358643</ele>
        <time>2012-11-13T12:50:30Z</time>
      </trkpt>
      <trkpt lat="49.12497" lon="6.21666">
        <ele>172.6939697</ele>
        <time>2012-11-13T12:50:31Z</time>
      </trkpt>
      <trkpt lat="49.12553" lon="6.21656">
        <ele>173.6552734</ele>
        <time>2012-11-13T12:50:38Z</time>
      </trkpt>
      <trkpt lat="49.12574" lon="6.21673">
        <ele>174.6165771</ele>
        <time>2012-11-13T12:50:42Z</time>
      </trkpt>
      <trkpt lat="49.12575" lon="6.21691">
        <ele>175.09729</ele>
        <time>2012-11-13T12:50:44Z</time>
      </trkpt>
      <trkpt lat="49.12577" lon="6.2173">
        <ele>175.5778809</ele>
        <time>2012-11-13T12:50:48Z</time>
      </trkpt>
      <trkpt lat="49.12579" lon="6.21747">
        <ele>175.09729</ele>
        <time>2012-11-13T12:50:50Z</time>
      </trkpt>
      <trkpt lat="49.12581" lon="6.21764">
        <ele>175.5778809</ele>
        <time>2012-11-13T12:50:52Z</time>
      </trkpt>
      <trkpt lat="49.12581" lon="6.21774">
        <ele>175.5778809</ele>
        <time>2012-11-13T12:50:53Z</time>
      </trkpt>
      <trkpt lat="49.12581" lon="6.21789">
        <ele>175.5778809</ele>
        <time>2012-11-13T12:50:55Z</time>
      </trkpt>
      <trkpt lat="49.12577" lon="6.21842">
        <ele>174.6165771</ele>
        <time>2012-11-13T12:51:01Z</time>
      </trkpt>
      <trkpt lat="49.12576" lon="6.21868">
        <ele>174.6165771</ele>
        <time>2012-11-13T12:51:04Z</time>
      </trkpt>
      <trkpt lat="49.12578" lon="6.21924">
        <ele>174.6165771</ele>
        <time>2012-11-13T12:51:10Z</time>
      </trkpt>
      <trkpt lat="49.12592" lon="6.21991">
        <ele>175.09729</ele>
        <time>2012-11-13T12:51:17Z</time>
      </trkpt>
      <trkpt lat="49.12605" lon="6.22041">
        <ele>174.6165771</ele>
        <time>2012-11-13T12:51:23Z</time>
      </trkpt>
      <trkpt lat="49.12619" lon="6.22093">
        <ele>175.5778809</ele>
        <time>2012-11-13T12:51:29Z</time>
      </trkpt>
      <trkpt lat="49.12621" lon="6.22101">
        <ele>176.0585938</ele>
        <time>2012-11-13T12:51:30Z</time>
      </trkpt>
      <trkpt lat="49.12627" lon="6.22118">
        <ele>176.0585938</ele>
        <time>2012-11-13T12:51:32Z</time>
      </trkpt>
      <trkpt lat="49.12629" lon="6.22127">
        <ele>175.5778809</ele>
        <time>2012-11-13T12:51:33Z</time>
      </trkpt>
      <trkpt lat="49.12647" lon="6.22192">
        <ele>175.09729</ele>
        <time>2012-11-13T12:51:40Z</time>
      </trkpt>
      <trkpt lat="49.12674" lon="6.22286">
        <ele>176.5393066</ele>
        <time>2012-11-13T12:51:50Z</time>
      </trkpt>
      <trkpt lat="49.127" lon="6.22351">
        <ele>176.5393066</ele>
        <time>2012-11-13T12:51:57Z</time>
      </trkpt>
      <trkpt lat="49.12721" lon="6.22403">
        <ele>176.5393066</ele>
        <time>2012-11-13T12:52:03Z</time>
      </trkpt>
      <trkpt lat="49.12749" lon="6.22463">
        <ele>175.5778809</ele>
        <time>2012-11-13T12:52:10Z</time>
      </trkpt>
      <trkpt lat="49.12765" lon="6.22509">
        <ele>176.0585938</ele>
        <time>2012-11-13T12:52:15Z</time>
      </trkpt>
      <trkpt lat="49.12774" lon="6.22536">
        <ele>176.0585938</ele>
        <time>2012-11-13T12:52:18Z</time>
      </trkpt>
      <trkpt lat="49.12795" lon="6.22596">
        <ele>175.5778809</ele>
        <time>2012-11-13T12:52:25Z</time>
      </trkpt>
      <trkpt lat="49.1281" lon="6.22624">
        <ele>176.5393066</ele>
        <time>2012-11-13T12:52:29Z</time>
      </trkpt>
      <trkpt lat="49.12814" lon="6.22631">
        <ele>176.0585938</ele>
        <time>2012-11-13T12:52:30Z</time>
      </trkpt>
      <trkpt lat="49.12822" lon="6.22646">
        <ele>176.0585938</ele>
        <time>2012-11-13T12:52:32Z</time>
      </trkpt>
      <trkpt lat="49.12828" lon="6.22663">
        <ele>177.0200195</ele>
        <time>2012-11-13T12:52:34Z</time>
      </trkpt>
      <trkpt lat="49.1283" lon="6.22672">
        <ele>177.0200195</ele>
        <time>2012-11-13T12:52:35Z</time>
      </trkpt>
      <trkpt lat="49.12832" lon="6.22681">
        <ele>177.0200195</ele>
        <time>2012-11-13T12:52:36Z</time>
      </trkpt>
      <trkpt lat="49.12848" lon="6.22768">
        <ele>177.5006104</ele>
        <time>2012-11-13T12:52:46Z</time>
      </trkpt>
      <trkpt lat="49.12863" lon="6.22824">
        <ele>177.5006104</ele>
        <time>2012-11-13T12:52:53Z</time>
      </trkpt>
      <trkpt lat="49.12869" lon="6.2284">
        <ele>177.9812012</ele>
        <time>2012-11-13T12:52:55Z</time>
      </trkpt>
      <trkpt lat="49.12903" lon="6.22897">
        <ele>177.5006104</ele>
        <time>2012-11-13T12:53:03Z</time>
      </trkpt>
      <trkpt lat="49.12932" lon="6.22951">
        <ele>177.5006104</ele>
        <time>2012-11-13T12:53:10Z</time>
      </trkpt>
      <trkpt lat="49.12964" lon="6.23022">
        <ele>178.4619141</ele>
        <time>2012-11-13T12:53:19Z</time>
      </trkpt>
      <trkpt lat="49.12979" lon="6.2307">
        <ele>178.4619141</ele>
        <time>2012-11-13T12:53:25Z</time>
      </trkpt>
      <trkpt lat="49.13001" lon="6.23146">
        <ele>179.4232178</ele>
        <time>2012-11-13T12:53:34Z</time>
      </trkpt>
      <trkpt lat="49.12996" lon="6.23188">
        <ele>180.3845215</ele>
        <time>2012-11-13T12:53:39Z</time>
      </trkpt>
      <trkpt lat="49.12986" lon="6.23249">
        <ele>182.7878418</ele>
        <time>2012-11-13T12:53:47Z</time>
      </trkpt>
      <trkpt lat="49.12984" lon="6.23256">
        <ele>182.7878418</ele>
        <time>2012-11-13T12:53:48Z</time>
      </trkpt>
      <trkpt lat="49.12982" lon="6.2327">
        <ele>182.7878418</ele>
        <time>2012-11-13T12:53:50Z</time>
      </trkpt>
      <trkpt lat="49.12981" lon="6.23277">
        <ele>183.2684326</ele>
        <time>2012-11-13T12:53:51Z</time>
      </trkpt>
      <trkpt lat="49.12979" lon="6.23291">
        <ele>184.2298584</ele>
        <time>2012-11-13T12:53:53Z</time>
      </trkpt>
      <trkpt lat="49.12978" lon="6.23299">
        <ele>184.7105713</ele>
        <time>2012-11-13T12:53:54Z</time>
      </trkpt>
      <trkpt lat="49.12977" lon="6.23306">
        <ele>185.6717529</ele>
        <time>2012-11-13T12:53:55Z</time>
      </trkpt>
      <trkpt lat="49.12976" lon="6.23312">
        <ele>185.6717529</ele>
        <time>2012-11-13T12:53:56Z</time>
      </trkpt>
      <trkpt lat="49.12975" lon="6.23319">
        <ele>185.6717529</ele>
        <time>2012-11-13T12:53:57Z</time>
      </trkpt>
      <trkpt lat="49.12974" lon="6.23326">
        <ele>186.1524658</ele>
        <time>2012-11-13T12:53:58Z</time>
      </trkpt>
      <trkpt lat="49.12971" lon="6.23348">
        <ele>187.1137695</ele>
        <time>2012-11-13T12:54:01Z</time>
      </trkpt>
      <trkpt lat="49.12969" lon="6.23368">
        <ele>188.0750732</ele>
        <time>2012-11-13T12:54:04Z</time>
      </trkpt>
      <trkpt lat="49.12968" lon="6.23374">
        <ele>188.0750732</ele>
        <time>2012-11-13T12:54:05Z</time>
      </trkpt>
      <trkpt lat="49.12967" lon="6.23387">
        <ele>189.036377</ele>
        <time>2012-11-13T12:54:07Z</time>
      </trkpt>
      <trkpt lat="49.12961" lon="6.2344">
        <ele>190.9589844</ele>
        <time>2012-11-13T12:54:15Z</time>
      </trkpt>
      <trkpt lat="49.12959" lon="6.23454">
        <ele>190.9589844</ele>
        <time>2012-11-13T12:54:17Z</time>
      </trkpt>
      <trkpt lat="49.12959" lon="6.23461">
        <ele>190.9589844</ele>
        <time>2012-11-13T12:54:18Z</time>
      </trkpt>
      <trkpt lat="49.12958" lon="6.23468">
        <ele>190.4783936</ele>
        <time>2012-11-13T12:54:19Z</time>
      </trkpt>
      <trkpt lat="49.12954" lon="6.23532">
        <ele>189.036377</ele>
        <time>2012-11-13T12:54:27Z</time>
      </trkpt>
      <trkpt lat="49.12952" lon="6.2359">
        <ele>188.5557861</ele>
        <time>2012-11-13T12:54:33Z</time>
      </trkpt>
      <trkpt lat="49.12958" lon="6.23644">
        <ele>187.1137695</ele>
        <time>2012-11-13T12:54:38Z</time>
      </trkpt>
      <trkpt lat="49.12969" lon="6.23685">
        <ele>185.6717529</ele>
        <time>2012-11-13T12:54:42Z</time>
      </trkpt>
      <trkpt lat="49.12995" lon="6.23757">
        <ele>183.7490234</ele>
        <time>2012-11-13T12:54:49Z</time>
      </trkpt>
      <trkpt lat="49.13023" lon="6.23811">
        <ele>182.7878418</ele>
        <time>2012-11-13T12:54:55Z</time>
      </trkpt>
      <trkpt lat="49.13039" lon="6.23836">
        <ele>182.3071289</ele>
        <time>2012-11-13T12:54:58Z</time>
      </trkpt>
      <trkpt lat="49.13054" lon="6.2386">
        <ele>182.7878418</ele>
        <time>2012-11-13T12:55:01Z</time>
      </trkpt>
      <trkpt lat="49.13059" lon="6.23868">
        <ele>182.3071289</ele>
        <time>2012-11-13T12:55:02Z</time>
      </trkpt>
      <trkpt lat="49.13079" lon="6.23914">
        <ele>182.7878418</ele>
        <time>2012-11-13T12:55:08Z</time>
      </trkpt>
      <trkpt lat="49.13088" lon="6.23949">
        <ele>182.7878418</ele>
        <time>2012-11-13T12:55:13Z</time>
      </trkpt>
      <trkpt lat="49.131" lon="6.23965">
        <ele>182.7878418</ele>
        <time>2012-11-13T12:55:17Z</time>
      </trkpt>
      <trkpt lat="49.13112" lon="6.2396">
        <ele>182.3071289</ele>
        <time>2012-11-13T12:55:20Z</time>
      </trkpt>
      <trkpt lat="49.13136" lon="6.23934">
        <ele>183.2684326</ele>
        <time>2012-11-13T12:55:29Z</time>
      </trkpt>
      <trkpt lat="49.13146" lon="6.23921">
        <ele>184.2298584</ele>
        <time>2012-11-13T12:55:33Z</time>
      </trkpt>
      <trkpt lat="49.13164" lon="6.23898">
        <ele>185.6717529</ele>
        <time>2012-11-13T12:55:39Z</time>
      </trkpt>
      <trkpt lat="49.13177" lon="6.23883">
        <ele>187.5943604</ele>
        <time>2012-11-13T12:55:44Z</time>
      </trkpt>
      <trkpt lat="49.13188" lon="6.23873">
        <ele>189.036377</ele>
        <time>2012-11-13T12:55:48Z</time>
      </trkpt>
      <trkpt lat="49.13203" lon="6.23862">
        <ele>190.9589844</ele>
        <time>2012-11-13T12:55:54Z</time>
      </trkpt>
      <trkpt lat="49.13215" lon="6.23857">
        <ele>192.401123</ele>
        <time>2012-11-13T12:55:58Z</time>
      </trkpt>
      <trkpt lat="49.13218" lon="6.23856">
        <ele>192.8817139</ele>
        <time>2012-11-13T12:55:59Z</time>
      </trkpt>
      <trkpt lat="49.13242" lon="6.23853">
        <ele>194.8043213</ele>
        <time>2012-11-13T12:56:07Z</time>
      </trkpt>
      <trkpt lat="49.13249" lon="6.23853">
        <ele>195.765625</ele>
        <time>2012-11-13T12:56:09Z</time>
      </trkpt>
      <trkpt lat="49.1327" lon="6.23861">
        <ele>197.2075195</ele>
        <time>2012-11-13T12:56:16Z</time>
      </trkpt>
      <trkpt lat="49.13278" lon="6.23863">
        <ele>198.6495361</ele>
        <time>2012-11-13T12:56:19Z</time>
      </trkpt>
      <trkpt lat="49.133" lon="6.23864">
        <ele>201.0528564</ele>
        <time>2012-11-13T12:56:26Z</time>
      </trkpt>
      <trkpt lat="49.13325" lon="6.23862">
        <ele>203.9368896</ele>
        <time>2012-11-13T12:56:35Z</time>
      </trkpt>
      <trkpt lat="49.13348" lon="6.23849">
        <ele>205.3787842</ele>
        <time>2012-11-13T12:56:44Z</time>
      </trkpt>
      <trkpt lat="49.1337" lon="6.23827">
        <ele>207.7821045</ele>
        <time>2012-11-13T12:56:54Z</time>
      </trkpt>
      <trkpt lat="49.13388" lon="6.23797">
        <ele>211.1467285</ele>
        <time>2012-11-13T12:57:04Z</time>
      </trkpt>
      <trkpt lat="49.13402" lon="6.23765">
        <ele>212.588623</ele>
        <time>2012-11-13T12:57:13Z</time>
      </trkpt>
      <trkpt lat="49.13417" lon="6.23725">
        <ele>214.5112305</ele>
        <time>2012-11-13T12:57:24Z</time>
      </trkpt>
      <trkpt lat="49.13432" lon="6.23697">
        <ele>215.9532471</ele>
        <time>2012-11-13T12:57:31Z</time>
      </trkpt>
      <trkpt lat="49.13452" lon="6.23677">
        <ele>216.43396</ele>
        <time>2012-11-13T12:57:38Z</time>
      </trkpt>
      <trkpt lat="49.13461" lon="6.23672">
        <ele>217.3953857</ele>
        <time>2012-11-13T12:57:44Z</time>
      </trkpt>
      <trkpt lat="49.13478" lon="6.2367">
        <ele>218.8372803</ele>
        <time>2012-11-13T12:57:50Z</time>
      </trkpt>
      <trkpt lat="49.13506" lon="6.2367">
        <ele>219.798584</ele>
        <time>2012-11-13T12:57:58Z</time>
      </trkpt>
      <trkpt lat="49.13533" lon="6.23671">
        <ele>222.6824951</ele>
        <time>2012-11-13T12:58:06Z</time>
      </trkpt>
      <trkpt lat="49.13561" lon="6.23672">
        <ele>223.6437988</ele>
        <time>2012-11-13T12:58:14Z</time>
      </trkpt>
      <trkpt lat="49.13585" lon="6.23676">
        <ele>225.0859375</ele>
        <time>2012-11-13T12:58:21Z</time>
      </trkpt>
      <trkpt lat="49.13606" lon="6.2369">
        <ele>225.0859375</ele>
        <time>2012-11-13T12:58:27Z</time>
      </trkpt>
      <trkpt lat="49.13628" lon="6.23695">
        <ele>227.4891357</ele>
        <time>2012-11-13T12:58:33Z</time>
      </trkpt>
      <trkpt lat="49.13644" lon="6.23693">
        <ele>228.4504395</ele>
        <time>2012-11-13T12:58:37Z</time>
      </trkpt>
      <trkpt lat="49.13669" lon="6.23692">
        <ele>229.4117432</ele>
        <time>2012-11-13T12:58:44Z</time>
      </trkpt>
      <trkpt lat="49.13701" lon="6.23698">
        <ele>230.8537598</ele>
        <time>2012-11-13T12:58:52Z</time>
      </trkpt>
      <trkpt lat="49.13729" lon="6.23696">
        <ele>231.8149414</ele>
        <time>2012-11-13T12:58:59Z</time>
      </trkpt>
      <trkpt lat="49.13758" lon="6.23679">
        <ele>231.3343506</ele>
        <time>2012-11-13T12:59:06Z</time>
      </trkpt>
      <trkpt lat="49.13784" lon="6.23663">
        <ele>231.8149414</ele>
        <time>2012-11-13T12:59:12Z</time>
      </trkpt>
      <trkpt lat="49.13789" lon="6.23662">
        <ele>231.3343506</ele>
        <time>2012-11-13T12:59:13Z</time>
      </trkpt>
      <trkpt lat="49.13818" lon="6.23664">
        <ele>231.8149414</ele>
        <time>2012-11-13T12:59:18Z</time>
      </trkpt>
      <trkpt lat="49.13824" lon="6.23667">
        <ele>230.8537598</ele>
        <time>2012-11-13T12:59:19Z</time>
      </trkpt>
      <trkpt lat="49.13869" lon="6.23694">
        <ele>230.8537598</ele>
        <time>2012-11-13T12:59:28Z</time>
      </trkpt>
      <trkpt lat="49.13909" lon="6.23719">
        <ele>231.8149414</ele>
        <time>2012-11-13T12:59:36Z</time>
      </trkpt>
      <trkpt lat="49.1395" lon="6.23744">
        <ele>234.2183838</ele>
        <time>2012-11-13T12:59:44Z</time>
      </trkpt>
      <trkpt lat="49.13955" lon="6.23748">
        <ele>233.7376709</ele>
        <time>2012-11-13T12:59:45Z</time>
      </trkpt>
      <trkpt lat="49.13968" lon="6.23762">
        <ele>233.2570801</ele>
        <time>2012-11-13T12:59:48Z</time>
      </trkpt>
      <trkpt lat="49.13995" lon="6.23808">
        <ele>235.6602783</ele>
        <time>2012-11-13T12:59:55Z</time>
      </trkpt>
      <trkpt lat="49.14029" lon="6.2387">
        <ele>238.0635986</ele>
        <time>2012-11-13T13:00:05Z</time>
      </trkpt>
      <trkpt lat="49.14061" lon="6.23921">
        <ele>238.5443115</ele>
        <time>2012-11-13T13:00:14Z</time>
      </trkpt>
      <trkpt lat="49.1407" lon="6.2393">
        <ele>239.0249023</ele>
        <time>2012-11-13T13:00:16Z</time>
      </trkpt>
      <trkpt lat="49.14099" lon="6.23945">
        <ele>239.5054932</ele>
        <time>2012-11-13T13:00:22Z</time>
      </trkpt>
      <trkpt lat="49.14139" lon="6.23961">
        <ele>239.9862061</ele>
        <time>2012-11-13T13:00:30Z</time>
      </trkpt>
      <trkpt lat="49.14175" lon="6.23984">
        <ele>241.9089355</ele>
        <time>2012-11-13T13:00:38Z</time>
      </trkpt>
      <trkpt lat="49.14206" lon="6.24018">
        <ele>242.3896484</ele>
        <time>2012-11-13T13:00:46Z</time>
      </trkpt>
      <trkpt lat="49.14242" lon="6.24066">
        <ele>244.3122559</ele>
        <time>2012-11-13T13:00:56Z</time>
      </trkpt>
      <trkpt lat="49.14266" lon="6.24108">
        <ele>246.2348633</ele>
        <time>2012-11-13T13:01:04Z</time>
      </trkpt>
      <trkpt lat="49.143" lon="6.24162">
        <ele>247.1960449</ele>
        <time>2012-11-13T13:01:14Z</time>
      </trkpt>
      <trkpt lat="49.14325" lon="6.24205">
        <ele>246.7154541</ele>
        <time>2012-11-13T13:01:22Z</time>
      </trkpt>
      <trkpt lat="49.14362" lon="6.24247">
        <ele>247.6767578</ele>
        <time>2012-11-13T13:01:31Z</time>
      </trkpt>
      <trkpt lat="49.14402" lon="6.2429">
        <ele>248.1575928</ele>
        <time>2012-11-13T13:01:40Z</time>
      </trkpt>
      <trkpt lat="49.14439" lon="6.2433">
        <ele>250.0802002</ele>
        <time>2012-11-13T13:01:48Z</time>
      </trkpt>
      <trkpt lat="49.14495" lon="6.24391">
        <ele>249.5994873</ele>
        <time>2012-11-13T13:02:00Z</time>
      </trkpt>
      <trkpt lat="49.14543" lon="6.24443">
        <ele>251.0413818</ele>
        <time>2012-11-13T13:02:10Z</time>
      </trkpt>
      <trkpt lat="49.14594" lon="6.24498">
        <ele>252.4833984</ele>
        <time>2012-11-13T13:02:21Z</time>
      </trkpt>
      <trkpt lat="49.14636" lon="6.24542">
        <ele>254.4060059</ele>
        <time>2012-11-13T13:02:30Z</time>
      </trkpt>
      <trkpt lat="49.1468" lon="6.24581">
        <ele>255.3673096</ele>
        <time>2012-11-13T13:02:39Z</time>
      </trkpt>
      <trkpt lat="49.14731" lon="6.24616">
        <ele>256.3287354</ele>
        <time>2012-11-13T13:02:49Z</time>
      </trkpt>
      <trkpt lat="49.14775" lon="6.24646">
        <ele>256.3287354</ele>
        <time>2012-11-13T13:02:58Z</time>
      </trkpt>
      <trkpt lat="49.14811" lon="6.24669">
        <ele>256.8093262</ele>
        <time>2012-11-13T13:03:06Z</time>
      </trkpt>
      <trkpt lat="49.14833" lon="6.24688">
        <ele>255.8480225</ele>
        <time>2012-11-13T13:03:13Z</time>
      </trkpt>
      <trkpt lat="49.14848" lon="6.24696">
        <ele>255.3673096</ele>
        <time>2012-11-13T13:03:20Z</time>
      </trkpt>
      <trkpt lat="49.14847" lon="6.24696">
        <ele>254.4060059</ele>
        <time>2012-11-13T13:03:22Z</time>
      </trkpt>
      <trkpt lat="49.14847" lon="6.24696">
        <ele>254.8865967</ele>
        <time>2012-11-13T13:03:47Z</time>
      </trkpt>
      <trkpt lat="49.1485" lon="6.24698">
        <ele>254.4060059</ele>
        <time>2012-11-13T13:03:51Z</time>
      </trkpt>
      <trkpt lat="49.14858" lon="6.24708">
        <ele>255.3673096</ele>
        <time>2012-11-13T13:03:55Z</time>
      </trkpt>
      <trkpt lat="49.14878" lon="6.24721">
        <ele>253.925415</ele>
        <time>2012-11-13T13:04:00Z</time>
      </trkpt>
      <trkpt lat="49.14888" lon="6.24724">
        <ele>253.925415</ele>
        <time>2012-11-13T13:04:02Z</time>
      </trkpt>
      <trkpt lat="49.14929" lon="6.24748">
        <ele>252.9639893</ele>
        <time>2012-11-13T13:04:09Z</time>
      </trkpt>
      <trkpt lat="49.14967" lon="6.24773">
        <ele>249.1187744</ele>
        <time>2012-11-13T13:04:14Z</time>
      </trkpt>
      <trkpt lat="49.15001" lon="6.24798">
        <ele>245.7541504</ele>
        <time>2012-11-13T13:04:18Z</time>
      </trkpt>
      <trkpt lat="49.15012" lon="6.24804">
        <ele>245.7541504</ele>
        <time>2012-11-13T13:04:19Z</time>
      </trkpt>
      <trkpt lat="49.15064" lon="6.24837">
        <ele>241.9089355</ele>
        <time>2012-11-13T13:04:24Z</time>
      </trkpt>
      <trkpt lat="49.15112" lon="6.24861">
        <ele>238.0635986</ele>
        <time>2012-11-13T13:04:28Z</time>
      </trkpt>
      <trkpt lat="49.15161" lon="6.24868">
        <ele>234.2183838</ele>
        <time>2012-11-13T13:04:32Z</time>
      </trkpt>
      <trkpt lat="49.15185" lon="6.24868">
        <ele>233.2570801</ele>
        <time>2012-11-13T13:04:34Z</time>
      </trkpt>
      <trkpt lat="49.15197" lon="6.24866">
        <ele>229.4117432</ele>
        <time>2012-11-13T13:04:35Z</time>
      </trkpt>
      <trkpt lat="49.15261" lon="6.24841">
        <ele>225.0859375</ele>
        <time>2012-11-13T13:04:40Z</time>
      </trkpt>
      <trkpt lat="49.15296" lon="6.24817">
        <ele>221.2406006</ele>
        <time>2012-11-13T13:04:43Z</time>
      </trkpt>
      <trkpt lat="49.15338" lon="6.24775">
        <ele>217.8759766</ele>
        <time>2012-11-13T13:04:47Z</time>
      </trkpt>
      <trkpt lat="49.15365" lon="6.24736">
        <ele>215.9532471</ele>
        <time>2012-11-13T13:04:50Z</time>
      </trkpt>
      <trkpt lat="49.15388" lon="6.24692">
        <ele>212.588623</ele>
        <time>2012-11-13T13:04:53Z</time>
      </trkpt>
      <trkpt lat="49.15401" lon="6.24661">
        <ele>211.6274414</ele>
        <time>2012-11-13T13:04:55Z</time>
      </trkpt>
      <trkpt lat="49.15418" lon="6.24611">
        <ele>208.7434082</ele>
        <time>2012-11-13T13:04:58Z</time>
      </trkpt>
      <trkpt lat="49.15427" lon="6.24575">
        <ele>206.3400879</ele>
        <time>2012-11-13T13:05:00Z</time>
      </trkpt>
      <trkpt lat="49.15456" lon="6.24467">
        <ele>202.9754639</ele>
        <time>2012-11-13T13:05:06Z</time>
      </trkpt>
      <trkpt lat="49.1548" lon="6.24375">
        <ele>199.6108398</ele>
        <time>2012-11-13T13:05:11Z</time>
      </trkpt>
      <trkpt lat="49.15484" lon="6.24357">
        <ele>199.6108398</ele>
        <time>2012-11-13T13:05:12Z</time>
      </trkpt>
      <trkpt lat="49.15497" lon="6.24303">
        <ele>197.6882324</ele>
        <time>2012-11-13T13:05:15Z</time>
      </trkpt>
      <trkpt lat="49.15507" lon="6.24267">
        <ele>194.8043213</ele>
        <time>2012-11-13T13:05:17Z</time>
      </trkpt>
      <trkpt lat="49.15511" lon="6.24249">
        <ele>194.8043213</ele>
        <time>2012-11-13T13:05:18Z</time>
      </trkpt>
      <trkpt lat="49.15534" lon="6.24162">
        <ele>191.4395752</ele>
        <time>2012-11-13T13:05:23Z</time>
      </trkpt>
      <trkpt lat="49.15544" lon="6.24128">
        <ele>190.4783936</ele>
        <time>2012-11-13T13:05:25Z</time>
      </trkpt>
      <trkpt lat="49.15565" lon="6.24061">
        <ele>187.5943604</ele>
        <time>2012-11-13T13:05:29Z</time>
      </trkpt>
      <trkpt lat="49.1559" lon="6.24004">
        <ele>185.6717529</ele>
        <time>2012-11-13T13:05:33Z</time>
      </trkpt>
      <trkpt lat="49.15636" lon="6.23929">
        <ele>183.2684326</ele>
        <time>2012-11-13T13:05:39Z</time>
      </trkpt>
      <trkpt lat="49.15645" lon="6.23917">
        <ele>182.7878418</ele>
        <time>2012-11-13T13:05:40Z</time>
      </trkpt>
      <trkpt lat="49.15689" lon="6.23851">
        <ele>183.7490234</ele>
        <time>2012-11-13T13:05:46Z</time>
      </trkpt>
      <trkpt lat="49.15718" lon="6.23807">
        <ele>181.826416</ele>
        <time>2012-11-13T13:05:51Z</time>
      </trkpt>
      <trkpt lat="49.15757" lon="6.23739">
        <ele>182.7878418</ele>
        <time>2012-11-13T13:05:59Z</time>
      </trkpt>
      <trkpt lat="49.15787" lon="6.23676">
        <ele>182.3071289</ele>
        <time>2012-11-13T13:06:06Z</time>
      </trkpt>
      <trkpt lat="49.15817" lon="6.23607">
        <ele>180.8652344</ele>
        <time>2012-11-13T13:06:13Z</time>
      </trkpt>
      <trkpt lat="49.15846" lon="6.23529">
        <ele>179.9038086</ele>
        <time>2012-11-13T13:06:21Z</time>
      </trkpt>
      <trkpt lat="49.15882" lon="6.23414">
        <ele>179.9038086</ele>
        <time>2012-11-13T13:06:32Z</time>
      </trkpt>
      <trkpt lat="49.15919" lon="6.23316">
        <ele>180.8652344</ele>
        <time>2012-11-13T13:06:42Z</time>
      </trkpt>
      <trkpt lat="49.15956" lon="6.23221">
        <ele>179.9038086</ele>
        <time>2012-11-13T13:06:52Z</time>
      </trkpt>
      <trkpt lat="49.15978" lon="6.23178">
        <ele>179.4232178</ele>
        <time>2012-11-13T13:06:57Z</time>
      </trkpt>
      <trkpt lat="49.16018" lon="6.23134">
        <ele>180.8652344</ele>
        <time>2012-11-13T13:07:04Z</time>
      </trkpt>
      <trkpt lat="49.16041" lon="6.23105">
        <ele>179.4232178</ele>
        <time>2012-11-13T13:07:08Z</time>
      </trkpt>
      <trkpt lat="49.1608" lon="6.23042">
        <ele>178.4619141</ele>
        <time>2012-11-13T13:07:16Z</time>
      </trkpt>
      <trkpt lat="49.16095" lon="6.23016">
        <ele>178.4619141</ele>
        <time>2012-11-13T13:07:20Z</time>
      </trkpt>
      <trkpt lat="49.16112" lon="6.2301">
        <ele>177.5006104</ele>
        <time>2012-11-13T13:07:24Z</time>
      </trkpt>
      <trkpt lat="49.16126" lon="6.23025">
        <ele>177.9812012</ele>
        <time>2012-11-13T13:07:27Z</time>
      </trkpt>
      <trkpt lat="49.16149" lon="6.23045">
        <ele>178.4619141</ele>
        <time>2012-11-13T13:07:31Z</time>
      </trkpt>
      <trkpt lat="49.16183" lon="6.23061">
        <ele>179.4232178</ele>
        <time>2012-11-13T13:07:37Z</time>
      </trkpt>
      <trkpt lat="49.162" lon="6.23068">
        <ele>179.4232178</ele>
        <time>2012-11-13T13:07:40Z</time>
      </trkpt>
      <trkpt lat="49.16205" lon="6.23069">
        <ele>180.3845215</ele>
        <time>2012-11-13T13:07:41Z</time>
      </trkpt>
      <trkpt lat="49.16215" lon="6.23074">
        <ele>180.8652344</ele>
        <time>2012-11-13T13:07:43Z</time>
      </trkpt>
      <trkpt lat="49.16225" lon="6.23079">
        <ele>182.3071289</ele>
        <time>2012-11-13T13:07:45Z</time>
      </trkpt>
      <trkpt lat="49.16229" lon="6.23081">
        <ele>182.3071289</ele>
        <time>2012-11-13T13:07:46Z</time>
      </trkpt>
      <trkpt lat="49.16234" lon="6.23083">
        <ele>184.2298584</ele>
        <time>2012-11-13T13:07:47Z</time>
      </trkpt>
      <trkpt lat="49.16257" lon="6.23094">
        <ele>186.6331787</ele>
        <time>2012-11-13T13:07:53Z</time>
      </trkpt>
      <trkpt lat="49.16261" lon="6.23096">
        <ele>186.6331787</ele>
        <time>2012-11-13T13:07:54Z</time>
      </trkpt>
      <trkpt lat="49.16268" lon="6.23101">
        <ele>187.1137695</ele>
        <time>2012-11-13T13:07:56Z</time>
      </trkpt>
      <trkpt lat="49.16272" lon="6.23104">
        <ele>187.5943604</ele>
        <time>2012-11-13T13:07:57Z</time>
      </trkpt>
      <trkpt lat="49.16279" lon="6.23109">
        <ele>188.0750732</ele>
        <time>2012-11-13T13:07:59Z</time>
      </trkpt>
      <trkpt lat="49.1629" lon="6.23115">
        <ele>188.5557861</ele>
        <time>2012-11-13T13:08:02Z</time>
      </trkpt>
      <trkpt lat="49.16294" lon="6.23118">
        <ele>189.5169678</ele>
        <time>2012-11-13T13:08:03Z</time>
      </trkpt>
      <trkpt lat="49.16309" lon="6.23126">
        <ele>190.4783936</ele>
        <time>2012-11-13T13:08:07Z</time>
      </trkpt>
      <trkpt lat="49.16322" lon="6.23133">
        <ele>190.9589844</ele>
        <time>2012-11-13T13:08:10Z</time>
      </trkpt>
      <trkpt lat="49.16355" lon="6.23158">
        <ele>192.401123</ele>
        <time>2012-11-13T13:08:18Z</time>
      </trkpt>
      <trkpt lat="49.1639" lon="6.23194">
        <ele>193.3623047</ele>
        <time>2012-11-13T13:08:26Z</time>
      </trkpt>
      <trkpt lat="49.16433" lon="6.2324">
        <ele>194.8043213</ele>
        <time>2012-11-13T13:08:36Z</time>
      </trkpt>
      <trkpt lat="49.16469" lon="6.23278">
        <ele>194.8043213</ele>
        <time>2012-11-13T13:08:45Z</time>
      </trkpt>
      <trkpt lat="49.1652" lon="6.23331">
        <ele>196.2463379</ele>
        <time>2012-11-13T13:08:56Z</time>
      </trkpt>
      <trkpt lat="49.16563" lon="6.23377">
        <ele>196.7269287</ele>
        <time>2012-11-13T13:09:05Z</time>
      </trkpt>
      <trkpt lat="49.16589" lon="6.23408">
        <ele>196.2463379</ele>
        <time>2012-11-13T13:09:11Z</time>
      </trkpt>
      <trkpt lat="49.16602" lon="6.23446">
        <ele>196.2463379</ele>
        <time>2012-11-13T13:09:16Z</time>
      </trkpt>
      <trkpt lat="49.16594" lon="6.23471">
        <ele>196.2463379</ele>
        <time>2012-11-13T13:09:19Z</time>
      </trkpt>
      <trkpt lat="49.16581" lon="6.23519">
        <ele>196.2463379</ele>
        <time>2012-11-13T13:09:25Z</time>
      </trkpt>
      <trkpt lat="49.16582" lon="6.23528">
        <ele>196.7269287</ele>
        <time>2012-11-13T13:09:26Z</time>
      </trkpt>
      <trkpt lat="49.16592" lon="6.23584">
        <ele>196.2463379</ele>
        <time>2012-11-13T13:09:34Z</time>
      </trkpt>
      <trkpt lat="49.16593" lon="6.23591">
        <ele>196.7269287</ele>
        <time>2012-11-13T13:09:35Z</time>
      </trkpt>
      <trkpt lat="49.16609" lon="6.23602">
        <ele>196.7269287</ele>
        <time>2012-11-13T13:09:39Z</time>
      </trkpt>
      <trkpt lat="49.16623" lon="6.23594">
        <ele>197.2075195</ele>
        <time>2012-11-13T13:09:42Z</time>
      </trkpt>
      <trkpt lat="49.16633" lon="6.23586">
        <ele>197.2075195</ele>
        <time>2012-11-13T13:09:44Z</time>
      </trkpt>
      <trkpt lat="49.16654" lon="6.23583">
        <ele>195.765625</ele>
        <time>2012-11-13T13:09:48Z</time>
      </trkpt>
      <trkpt lat="49.16663" lon="6.23606">
        <ele>197.2075195</ele>
        <time>2012-11-13T13:09:51Z</time>
      </trkpt>
      <trkpt lat="49.16667" lon="6.23623">
        <ele>197.2075195</ele>
        <time>2012-11-13T13:09:53Z</time>
      </trkpt>
      <trkpt lat="49.16674" lon="6.23691">
        <ele>199.130127</ele>
        <time>2012-11-13T13:10:01Z</time>
      </trkpt>
      <trkpt lat="49.16677" lon="6.23707">
        <ele>198.6495361</ele>
        <time>2012-11-13T13:10:03Z</time>
      </trkpt>
      <trkpt lat="49.16685" lon="6.2373">
        <ele>198.6495361</ele>
        <time>2012-11-13T13:10:06Z</time>
      </trkpt>
      <trkpt lat="49.16703" lon="6.23736">
        <ele>197.6882324</ele>
        <time>2012-11-13T13:10:09Z</time>
      </trkpt>
      <trkpt lat="49.16709" lon="6.23735">
        <ele>196.7269287</ele>
        <time>2012-11-13T13:10:10Z</time>
      </trkpt>
      <trkpt lat="49.16722" lon="6.23728">
        <ele>196.2463379</ele>
        <time>2012-11-13T13:10:12Z</time>
      </trkpt>
      <trkpt lat="49.16762" lon="6.23704">
        <ele>196.2463379</ele>
        <time>2012-11-13T13:10:18Z</time>
      </trkpt>
      <trkpt lat="49.1681" lon="6.23677">
        <ele>195.2849121</ele>
        <time>2012-11-13T13:10:25Z</time>
      </trkpt>
      <trkpt lat="49.16824" lon="6.2367">
        <ele>195.765625</ele>
        <time>2012-11-13T13:10:27Z</time>
      </trkpt>
      <trkpt lat="49.16832" lon="6.23667">
        <ele>195.765625</ele>
        <time>2012-11-13T13:10:28Z</time>
      </trkpt>
      <trkpt lat="49.16878" lon="6.23652">
        <ele>194.8043213</ele>
        <time>2012-11-13T13:10:35Z</time>
      </trkpt>
      <trkpt lat="49.16913" lon="6.23651">
        <ele>195.2849121</ele>
        <time>2012-11-13T13:10:41Z</time>
      </trkpt>
      <trkpt lat="49.16953" lon="6.23664">
        <ele>195.765625</ele>
        <time>2012-11-13T13:10:48Z</time>
      </trkpt>
      <trkpt lat="49.1701" lon="6.23686">
        <ele>194.8043213</ele>
        <time>2012-11-13T13:10:57Z</time>
      </trkpt>
      <trkpt lat="49.17058" lon="6.23703">
        <ele>193.8430176</ele>
        <time>2012-11-13T13:11:04Z</time>
      </trkpt>
      <trkpt lat="49.171" lon="6.23706">
        <ele>194.3237305</ele>
        <time>2012-11-13T13:11:10Z</time>
      </trkpt>
      <trkpt lat="49.17147" lon="6.23703">
        <ele>193.8430176</ele>
        <time>2012-11-13T13:11:18Z</time>
      </trkpt>
      <trkpt lat="49.17196" lon="6.23703">
        <ele>192.401123</ele>
        <time>2012-11-13T13:11:26Z</time>
      </trkpt>
      <trkpt lat="49.17238" lon="6.23709">
        <ele>190.9589844</ele>
        <time>2012-11-13T13:11:32Z</time>
      </trkpt>
      <trkpt lat="49.17256" lon="6.23714">
        <ele>189.5169678</ele>
        <time>2012-11-13T13:11:35Z</time>
      </trkpt>
      <trkpt lat="49.17278" lon="6.23717">
        <ele>189.036377</ele>
        <time>2012-11-13T13:11:39Z</time>
      </trkpt>
      <trkpt lat="49.17308" lon="6.23736">
        <ele>187.5943604</ele>
        <time>2012-11-13T13:11:44Z</time>
      </trkpt>
      <trkpt lat="49.17315" lon="6.2374">
        <ele>187.5943604</ele>
        <time>2012-11-13T13:11:45Z</time>
      </trkpt>
      <trkpt lat="49.17385" lon="6.23775">
        <ele>189.5169678</ele>
        <time>2012-11-13T13:11:55Z</time>
      </trkpt>
      <trkpt lat="49.17407" lon="6.2381">
        <ele>190.4783936</ele>
        <time>2012-11-13T13:12:00Z</time>
      </trkpt>
      <trkpt lat="49.17409" lon="6.23819">
        <ele>190.4783936</ele>
        <time>2012-11-13T13:12:01Z</time>
      </trkpt>
      <trkpt lat="49.17418" lon="6.23885">
        <ele>192.401123</ele>
        <time>2012-11-13T13:12:08Z</time>
      </trkpt>
      <trkpt lat="49.17422" lon="6.23925">
        <ele>193.8430176</ele>
        <time>2012-11-13T13:12:13Z</time>
      </trkpt>
      <trkpt lat="49.17418" lon="6.23963">
        <ele>194.8043213</ele>
        <time>2012-11-13T13:12:19Z</time>
      </trkpt>
      <trkpt lat="49.17418" lon="6.23975">
        <ele>194.8043213</ele>
        <time>2012-11-13T13:12:21Z</time>
      </trkpt>
      <trkpt lat="49.1742" lon="6.23994">
        <ele>196.7269287</ele>
        <time>2012-11-13T13:12:24Z</time>
      </trkpt>
      <trkpt lat="49.1742" lon="6.24">
        <ele>197.2075195</ele>
        <time>2012-11-13T13:12:25Z</time>
      </trkpt>
      <trkpt lat="49.17422" lon="6.24035">
        <ele>198.1689453</ele>
        <time>2012-11-13T13:12:31Z</time>
      </trkpt>
      <trkpt lat="49.17422" lon="6.24046">
        <ele>198.1689453</ele>
        <time>2012-11-13T13:12:33Z</time>
      </trkpt>
      <trkpt lat="49.17423" lon="6.24063">
        <ele>200.0916748</ele>
        <time>2012-11-13T13:12:36Z</time>
      </trkpt>
      <trkpt lat="49.17423" lon="6.24068">
        <ele>200.5722656</ele>
        <time>2012-11-13T13:12:37Z</time>
      </trkpt>
      <trkpt lat="49.17427" lon="6.2412">
        <ele>202.494873</ele>
        <time>2012-11-13T13:12:46Z</time>
      </trkpt>
      <trkpt lat="49.17432" lon="6.24148">
        <ele>203.4561768</ele>
        <time>2012-11-13T13:12:51Z</time>
      </trkpt>
      <trkpt lat="49.17444" lon="6.24175">
        <ele>203.9368896</ele>
        <time>2012-11-13T13:12:56Z</time>
      </trkpt>
      <trkpt lat="49.1745" lon="6.24185">
        <ele>204.8980713</ele>
        <time>2012-11-13T13:12:58Z</time>
      </trkpt>
      <trkpt lat="49.17473" lon="6.24217">
        <ele>205.3787842</ele>
        <time>2012-11-13T13:13:05Z</time>
      </trkpt>
      <trkpt lat="49.17492" lon="6.24243">
        <ele>205.8594971</ele>
        <time>2012-11-13T13:13:11Z</time>
      </trkpt>
      <trkpt lat="49.17515" lon="6.24255">
        <ele>205.3787842</ele>
        <time>2012-11-13T13:13:16Z</time>
      </trkpt>
      <trkpt lat="49.17524" lon="6.24255">
        <ele>205.8594971</ele>
        <time>2012-11-13T13:13:18Z</time>
      </trkpt>
      <trkpt lat="49.17556" lon="6.24247">
        <ele>206.3400879</ele>
        <time>2012-11-13T13:13:25Z</time>
      </trkpt>
      <trkpt lat="49.17595" lon="6.24253">
        <ele>207.3013916</ele>
        <time>2012-11-13T13:13:33Z</time>
      </trkpt>
      <trkpt lat="49.17644" lon="6.24269">
        <ele>208.7434082</ele>
        <time>2012-11-13T13:13:43Z</time>
      </trkpt>
      <trkpt lat="49.17658" lon="6.24274">
        <ele>209.2241211</ele>
        <time>2012-11-13T13:13:46Z</time>
      </trkpt>
      <trkpt lat="49.17668" lon="6.24278">
        <ele>209.2241211</ele>
        <time>2012-11-13T13:13:48Z</time>
      </trkpt>
      <trkpt lat="49.17677" lon="6.24281">
        <ele>209.704834</ele>
        <time>2012-11-13T13:13:50Z</time>
      </trkpt>
      <trkpt lat="49.17687" lon="6.24283">
        <ele>210.1854248</ele>
        <time>2012-11-13T13:13:52Z</time>
      </trkpt>
      <trkpt lat="49.17695" lon="6.24286">
        <ele>209.704834</ele>
        <time>2012-11-13T13:13:54Z</time>
      </trkpt>
      <trkpt lat="49.17704" lon="6.24292">
        <ele>209.704834</ele>
        <time>2012-11-13T13:13:56Z</time>
      </trkpt>
      <trkpt lat="49.17737" lon="6.24309">
        <ele>210.1854248</ele>
        <time>2012-11-13T13:14:03Z</time>
      </trkpt>
      <trkpt lat="49.17774" lon="6.24319">
        <ele>209.704834</ele>
        <time>2012-11-13T13:14:10Z</time>
      </trkpt>
      <trkpt lat="49.17821" lon="6.24321">
        <ele>210.6660156</ele>
        <time>2012-11-13T13:14:18Z</time>
      </trkpt>
      <trkpt lat="49.17878" lon="6.24318">
        <ele>208.7434082</ele>
        <time>2012-11-13T13:14:27Z</time>
      </trkpt>
      <trkpt lat="49.17899" lon="6.24316">
        <ele>207.3013916</ele>
        <time>2012-11-13T13:14:30Z</time>
      </trkpt>
      <trkpt lat="49.17952" lon="6.24314">
        <ele>206.3400879</ele>
        <time>2012-11-13T13:14:37Z</time>
      </trkpt>
      <trkpt lat="49.17978" lon="6.24331">
        <ele>205.3787842</ele>
        <time>2012-11-13T13:14:41Z</time>
      </trkpt>
      <trkpt lat="49.17985" lon="6.24351">
        <ele>205.8594971</ele>
        <time>2012-11-13T13:14:43Z</time>
      </trkpt>
      <trkpt lat="49.18005" lon="6.2441">
        <ele>203.4561768</ele>
        <time>2012-11-13T13:14:48Z</time>
      </trkpt>
      <trkpt lat="49.18017" lon="6.24434">
        <ele>202.494873</ele>
        <time>2012-11-13T13:14:50Z</time>
      </trkpt>
      <trkpt lat="49.18037" lon="6.24469">
        <ele>198.6495361</ele>
        <time>2012-11-13T13:14:53Z</time>
      </trkpt>
      <trkpt lat="49.18053" lon="6.24492">
        <ele>197.2075195</ele>
        <time>2012-11-13T13:14:55Z</time>
      </trkpt>
      <trkpt lat="49.18085" lon="6.24542">
        <ele>193.3623047</ele>
        <time>2012-11-13T13:14:59Z</time>
      </trkpt>
      <trkpt lat="49.181" lon="6.24568">
        <ele>193.3623047</ele>
        <time>2012-11-13T13:15:01Z</time>
      </trkpt>
      <trkpt lat="49.18116" lon="6.24595">
        <ele>191.4395752</ele>
        <time>2012-11-13T13:15:04Z</time>
      </trkpt>
      <trkpt lat="49.18127" lon="6.246">
        <ele>189.5169678</ele>
        <time>2012-11-13T13:15:05Z</time>
      </trkpt>
      <trkpt lat="49.18136" lon="6.24607">
        <ele>189.9976807</ele>
        <time>2012-11-13T13:15:06Z</time>
      </trkpt>
      <trkpt lat="49.18173" lon="6.2469">
        <ele>189.036377</ele>
        <time>2012-11-13T13:15:11Z</time>
      </trkpt>
      <trkpt lat="49.18184" lon="6.24715">
        <ele>189.9976807</ele>
        <time>2012-11-13T13:15:13Z</time>
      </trkpt>
      <trkpt lat="49.18197" lon="6.24762">
        <ele>189.036377</ele>
        <time>2012-11-13T13:15:17Z</time>
      </trkpt>
      <trkpt lat="49.1821" lon="6.24829">
        <ele>188.5557861</ele>
        <time>2012-11-13T13:15:23Z</time>
      </trkpt>
      <trkpt lat="49.18215" lon="6.24862">
        <ele>189.036377</ele>
        <time>2012-11-13T13:15:26Z</time>
      </trkpt>
      <trkpt lat="49.18217" lon="6.24874">
        <ele>189.036377</ele>
        <time>2012-11-13T13:15:27Z</time>
      </trkpt>
      <trkpt lat="49.18234" lon="6.2498">
        <ele>189.5169678</ele>
        <time>2012-11-13T13:15:37Z</time>
      </trkpt>
      <trkpt lat="49.1824" lon="6.25051">
        <ele>190.4783936</ele>
        <time>2012-11-13T13:15:44Z</time>
      </trkpt>
      <trkpt lat="49.18243" lon="6.25089">
        <ele>191.4395752</ele>
        <time>2012-11-13T13:15:48Z</time>
      </trkpt>
      <trkpt lat="49.18243" lon="6.25098">
        <ele>191.4395752</ele>
        <time>2012-11-13T13:15:49Z</time>
      </trkpt>
      <trkpt lat="49.18244" lon="6.25108">
        <ele>191.4395752</ele>
        <time>2012-11-13T13:15:50Z</time>
      </trkpt>
      <trkpt lat="49.18246" lon="6.25145">
        <ele>191.9202881</ele>
        <time>2012-11-13T13:15:54Z</time>
      </trkpt>
      <trkpt lat="49.18247" lon="6.25154">
        <ele>191.9202881</ele>
        <time>2012-11-13T13:15:55Z</time>
      </trkpt>
      <trkpt lat="49.18248" lon="6.25182">
        <ele>191.9202881</ele>
        <time>2012-11-13T13:15:58Z</time>
      </trkpt>
      <trkpt lat="49.18249" lon="6.25201">
        <ele>191.9202881</ele>
        <time>2012-11-13T13:16:00Z</time>
      </trkpt>
      <trkpt lat="49.18249" lon="6.2522">
        <ele>191.9202881</ele>
        <time>2012-11-13T13:16:02Z</time>
      </trkpt>
      <trkpt lat="49.18248" lon="6.25256">
        <ele>192.8817139</ele>
        <time>2012-11-13T13:16:06Z</time>
      </trkpt>
      <trkpt lat="49.18247" lon="6.2532">
        <ele>192.8817139</ele>
        <time>2012-11-13T13:16:13Z</time>
      </trkpt>
      <trkpt lat="49.18246" lon="6.25357">
        <ele>192.8817139</ele>
        <time>2012-11-13T13:16:17Z</time>
      </trkpt>
      <trkpt lat="49.18255" lon="6.25393">
        <ele>193.3623047</ele>
        <time>2012-11-13T13:16:21Z</time>
      </trkpt>
      <trkpt lat="49.18271" lon="6.25412">
        <ele>192.401123</ele>
        <time>2012-11-13T13:16:24Z</time>
      </trkpt>
      <trkpt lat="49.18278" lon="6.25416">
        <ele>192.401123</ele>
        <time>2012-11-13T13:16:25Z</time>
      </trkpt>
      <trkpt lat="49.18311" lon="6.25437">
        <ele>191.9202881</ele>
        <time>2012-11-13T13:16:30Z</time>
      </trkpt>
      <trkpt lat="49.18353" lon="6.25464">
        <ele>192.401123</ele>
        <time>2012-11-13T13:16:37Z</time>
      </trkpt>
      <trkpt lat="49.18414" lon="6.25503">
        <ele>194.3237305</ele>
        <time>2012-11-13T13:16:48Z</time>
      </trkpt>
      <trkpt lat="49.18466" lon="6.25541">
        <ele>194.8043213</ele>
        <time>2012-11-13T13:16:58Z</time>
      </trkpt>
      <trkpt lat="49.18494" lon="6.2557">
        <ele>195.765625</ele>
        <time>2012-11-13T13:17:04Z</time>
      </trkpt>
      <trkpt lat="49.18503" lon="6.25582">
        <ele>196.2463379</ele>
        <time>2012-11-13T13:17:06Z</time>
      </trkpt>
      <trkpt lat="49.18536" lon="6.25629">
        <ele>196.7269287</ele>
        <time>2012-11-13T13:17:14Z</time>
      </trkpt>
      <trkpt lat="49.18548" lon="6.25647">
        <ele>196.7269287</ele>
        <time>2012-11-13T13:17:17Z</time>
      </trkpt>
      <trkpt lat="49.18552" lon="6.25654">
        <ele>197.6882324</ele>
        <time>2012-11-13T13:17:18Z</time>
      </trkpt>
      <trkpt lat="49.18592" lon="6.25721">
        <ele>199.130127</ele>
        <time>2012-11-13T13:17:28Z</time>
      </trkpt>
      <trkpt lat="49.18621" lon="6.25792">
        <ele>199.6108398</ele>
        <time>2012-11-13T13:17:37Z</time>
      </trkpt>
      <trkpt lat="49.18641" lon="6.25861">
        <ele>200.5722656</ele>
        <time>2012-11-13T13:17:45Z</time>
      </trkpt>
      <trkpt lat="49.18649" lon="6.25906">
        <ele>202.494873</ele>
        <time>2012-11-13T13:17:50Z</time>
      </trkpt>
      <trkpt lat="49.18657" lon="6.25951">
        <ele>202.9754639</ele>
        <time>2012-11-13T13:17:55Z</time>
      </trkpt>
      <trkpt lat="49.18669" lon="6.26013">
        <ele>202.9754639</ele>
        <time>2012-11-13T13:18:02Z</time>
      </trkpt>
      <trkpt lat="49.18675" lon="6.26048">
        <ele>202.9754639</ele>
        <time>2012-11-13T13:18:06Z</time>
      </trkpt>
      <trkpt lat="49.1868" lon="6.26075">
        <ele>204.4174805</ele>
        <time>2012-11-13T13:18:09Z</time>
      </trkpt>
      <trkpt lat="49.18682" lon="6.26083">
        <ele>204.4174805</ele>
        <time>2012-11-13T13:18:10Z</time>
      </trkpt>
      <trkpt lat="49.18685" lon="6.26101">
        <ele>204.8980713</ele>
        <time>2012-11-13T13:18:12Z</time>
      </trkpt>
      <trkpt lat="49.18687" lon="6.26111">
        <ele>205.3787842</ele>
        <time>2012-11-13T13:18:13Z</time>
      </trkpt>
      <trkpt lat="49.18689" lon="6.2612">
        <ele>204.8980713</ele>
        <time>2012-11-13T13:18:14Z</time>
      </trkpt>
      <trkpt lat="49.18709" lon="6.2621">
        <ele>206.8206787</ele>
        <time>2012-11-13T13:18:24Z</time>
      </trkpt>
      <trkpt lat="49.18722" lon="6.2629">
        <ele>206.8206787</ele>
        <time>2012-11-13T13:18:33Z</time>
      </trkpt>
      <trkpt lat="49.18727" lon="6.26381">
        <ele>206.8206787</ele>
        <time>2012-11-13T13:18:43Z</time>
      </trkpt>
      <trkpt lat="49.18726" lon="6.26437">
        <ele>207.3013916</ele>
        <time>2012-11-13T13:18:49Z</time>
      </trkpt>
      <trkpt lat="49.18717" lon="6.265">
        <ele>207.7821045</ele>
        <time>2012-11-13T13:18:56Z</time>
      </trkpt>
      <trkpt lat="49.18714" lon="6.26517">
        <ele>208.2628174</ele>
        <time>2012-11-13T13:18:58Z</time>
      </trkpt>
      <trkpt lat="49.18691" lon="6.26585">
        <ele>209.704834</ele>
        <time>2012-11-13T13:19:06Z</time>
      </trkpt>
      <trkpt lat="49.18657" lon="6.26678">
        <ele>210.6660156</ele>
        <time>2012-11-13T13:19:17Z</time>
      </trkpt>
      <trkpt lat="49.18646" lon="6.26733">
        <ele>210.6660156</ele>
        <time>2012-11-13T13:19:23Z</time>
      </trkpt>
      <trkpt lat="49.18643" lon="6.26808">
        <ele>212.588623</ele>
        <time>2012-11-13T13:19:31Z</time>
      </trkpt>
      <trkpt lat="49.18641" lon="6.26884">
        <ele>213.5500488</ele>
        <time>2012-11-13T13:19:39Z</time>
      </trkpt>
      <trkpt lat="49.1864" lon="6.26913">
        <ele>214.5112305</ele>
        <time>2012-11-13T13:19:42Z</time>
      </trkpt>
      <trkpt lat="49.18639" lon="6.26922">
        <ele>214.9919434</ele>
        <time>2012-11-13T13:19:43Z</time>
      </trkpt>
      <trkpt lat="49.18638" lon="6.26932">
        <ele>215.4726563</ele>
        <time>2012-11-13T13:19:44Z</time>
      </trkpt>
      <trkpt lat="49.18633" lon="6.26959">
        <ele>215.4726563</ele>
        <time>2012-11-13T13:19:47Z</time>
      </trkpt>
      <trkpt lat="49.18632" lon="6.26968">
        <ele>215.4726563</ele>
        <time>2012-11-13T13:19:48Z</time>
      </trkpt>
      <trkpt lat="49.1863" lon="6.26977">
        <ele>215.9532471</ele>
        <time>2012-11-13T13:19:49Z</time>
      </trkpt>
      <trkpt lat="49.18626" lon="6.26994">
        <ele>216.43396</ele>
        <time>2012-11-13T13:19:51Z</time>
      </trkpt>
      <trkpt lat="49.18612" lon="6.27057">
        <ele>216.9146729</ele>
        <time>2012-11-13T13:19:58Z</time>
      </trkpt>
      <trkpt lat="49.18596" lon="6.27111">
        <ele>218.3565674</ele>
        <time>2012-11-13T13:20:05Z</time>
      </trkpt>
      <trkpt lat="49.18573" lon="6.27192">
        <ele>221.2406006</ele>
        <time>2012-11-13T13:20:15Z</time>
      </trkpt>
      <trkpt lat="49.18568" lon="6.27205">
        <ele>222.2017822</ele>
        <time>2012-11-13T13:20:17Z</time>
      </trkpt>
      <trkpt lat="49.18561" lon="6.27233">
        <ele>222.2017822</ele>
        <time>2012-11-13T13:20:21Z</time>
      </trkpt>
      <trkpt lat="49.18554" lon="6.27259">
        <ele>221.7211914</ele>
        <time>2012-11-13T13:20:25Z</time>
      </trkpt>
      <trkpt lat="49.18534" lon="6.27335">
        <ele>221.7211914</ele>
        <time>2012-11-13T13:20:36Z</time>
      </trkpt>
      <trkpt lat="49.18514" lon="6.2741">
        <ele>224.1245117</ele>
        <time>2012-11-13T13:20:47Z</time>
      </trkpt>
      <trkpt lat="49.18497" lon="6.27473">
        <ele>225.0859375</ele>
        <time>2012-11-13T13:20:56Z</time>
      </trkpt>
      <trkpt lat="49.18484" lon="6.27522">
        <ele>225.5665283</ele>
        <time>2012-11-13T13:21:03Z</time>
      </trkpt>
      <trkpt lat="49.18469" lon="6.27577">
        <ele>227.0085449</ele>
        <time>2012-11-13T13:21:11Z</time>
      </trkpt>
      <trkpt lat="49.18451" lon="6.27643">
        <ele>227.4891357</ele>
        <time>2012-11-13T13:21:21Z</time>
      </trkpt>
      <trkpt lat="49.18436" lon="6.27704">
        <ele>228.4504395</ele>
        <time>2012-11-13T13:21:30Z</time>
      </trkpt>
      <trkpt lat="49.18428" lon="6.27731">
        <ele>229.4117432</ele>
        <time>2012-11-13T13:21:34Z</time>
      </trkpt>
      <trkpt lat="49.18413" lon="6.27785">
        <ele>230.3730469</ele>
        <time>2012-11-13T13:21:42Z</time>
      </trkpt>
      <trkpt lat="49.18405" lon="6.27818">
        <ele>231.8149414</ele>
        <time>2012-11-13T13:21:47Z</time>
      </trkpt>
      <trkpt lat="49.18389" lon="6.27882">
        <ele>233.7376709</ele>
        <time>2012-11-13T13:21:57Z</time>
      </trkpt>
      <trkpt lat="49.18384" lon="6.27909">
        <ele>234.2183838</ele>
        <time>2012-11-13T13:22:01Z</time>
      </trkpt>
      <trkpt lat="49.18386" lon="6.27945">
        <ele>235.1796875</ele>
        <time>2012-11-13T13:22:06Z</time>
      </trkpt>
      <trkpt lat="49.18396" lon="6.28005">
        <ele>236.1409912</ele>
        <time>2012-11-13T13:22:14Z</time>
      </trkpt>
      <trkpt lat="49.1841" lon="6.28079">
        <ele>235.1796875</ele>
        <time>2012-11-13T13:22:24Z</time>
      </trkpt>
      <trkpt lat="49.18411" lon="6.28088">
        <ele>234.6990967</ele>
        <time>2012-11-13T13:22:25Z</time>
      </trkpt>
      <trkpt lat="49.18399" lon="6.28111">
        <ele>235.1796875</ele>
        <time>2012-11-13T13:22:29Z</time>
      </trkpt>
      <trkpt lat="49.18393" lon="6.28113">
        <ele>234.6990967</ele>
        <time>2012-11-13T13:22:30Z</time>
      </trkpt>
      <trkpt lat="49.18352" lon="6.28124">
        <ele>235.1796875</ele>
        <time>2012-11-13T13:22:37Z</time>
      </trkpt>
      <trkpt lat="49.18304" lon="6.2813">
        <ele>236.1409912</ele>
        <time>2012-11-13T13:22:45Z</time>
      </trkpt>
      <trkpt lat="49.18255" lon="6.28139">
        <ele>235.6602783</ele>
        <time>2012-11-13T13:22:53Z</time>
      </trkpt>
      <trkpt lat="49.18233" lon="6.28141">
        <ele>235.1796875</ele>
        <time>2012-11-13T13:22:58Z</time>
      </trkpt>
      <trkpt lat="49.18228" lon="6.28131">
        <ele>235.1796875</ele>
        <time>2012-11-13T13:23:01Z</time>
      </trkpt>
      <trkpt lat="49.18226" lon="6.28118">
        <ele>235.1796875</ele>
        <time>2012-11-13T13:23:03Z</time>
      </trkpt>
      <trkpt lat="49.18226" lon="6.2811">
        <ele>235.6602783</ele>
        <time>2012-11-13T13:23:04Z</time>
      </trkpt>
      <trkpt lat="49.18226" lon="6.28102">
        <ele>235.6602783</ele>
        <time>2012-11-13T13:23:05Z</time>
      </trkpt>
      <trkpt lat="49.18227" lon="6.2803">
        <ele>235.1796875</ele>
        <time>2012-11-13T13:23:13Z</time>
      </trkpt>
      <trkpt lat="49.18227" lon="6.28011">
        <ele>235.1796875</ele>
        <time>2012-11-13T13:23:15Z</time>
      </trkpt>
      <trkpt lat="49.18227" lon="6.27993">
        <ele>235.1796875</ele>
        <time>2012-11-13T13:23:17Z</time>
      </trkpt>
      <trkpt lat="49.18216" lon="6.27968">
        <ele>233.7376709</ele>
        <time>2012-11-13T13:23:21Z</time>
      </trkpt>
      <trkpt lat="49.18205" lon="6.27967">
        <ele>234.2183838</ele>
        <time>2012-11-13T13:23:23Z</time>
      </trkpt>
      <trkpt lat="49.18152" lon="6.27969">
        <ele>235.6602783</ele>
        <time>2012-11-13T13:23:31Z</time>
      </trkpt>
      <trkpt lat="49.18145" lon="6.27969">
        <ele>235.6602783</ele>
        <time>2012-11-13T13:23:32Z</time>
      </trkpt>
      <trkpt lat="49.18096" lon="6.27983">
        <ele>235.6602783</ele>
        <time>2012-11-13T13:23:40Z</time>
      </trkpt>
      <trkpt lat="49.1806" lon="6.28014">
        <ele>237.1022949</ele>
        <time>2012-11-13T13:23:47Z</time>
      </trkpt>
      <trkpt lat="49.18021" lon="6.28066">
        <ele>236.1409912</ele>
        <time>2012-11-13T13:23:55Z</time>
      </trkpt>
      <trkpt lat="49.17993" lon="6.28093">
        <ele>235.6602783</ele>
        <time>2012-11-13T13:24:00Z</time>
      </trkpt>
      <trkpt lat="49.17956" lon="6.2811">
        <ele>235.6602783</ele>
        <time>2012-11-13T13:24:06Z</time>
      </trkpt>
      <trkpt lat="49.17905" lon="6.28124">
        <ele>236.6217041</ele>
        <time>2012-11-13T13:24:14Z</time>
      </trkpt>
      <trkpt lat="49.1786" lon="6.28139">
        <ele>236.6217041</ele>
        <time>2012-11-13T13:24:21Z</time>
      </trkpt>
      <trkpt lat="49.17815" lon="6.28172">
        <ele>237.1022949</ele>
        <time>2012-11-13T13:24:29Z</time>
      </trkpt>
      <trkpt lat="49.17792" lon="6.28204">
        <ele>237.5828857</ele>
        <time>2012-11-13T13:24:34Z</time>
      </trkpt>
      <trkpt lat="49.17782" lon="6.28226">
        <ele>238.0635986</ele>
        <time>2012-11-13T13:24:37Z</time>
      </trkpt>
      <trkpt lat="49.17771" lon="6.28268">
        <ele>238.0635986</ele>
        <time>2012-11-13T13:24:42Z</time>
      </trkpt>
      <trkpt lat="49.17768" lon="6.28311">
        <ele>239.0249023</ele>
        <time>2012-11-13T13:24:46Z</time>
      </trkpt>
      <trkpt lat="49.17765" lon="6.28345">
        <ele>237.5828857</ele>
        <time>2012-11-13T13:24:49Z</time>
      </trkpt>
      <trkpt lat="49.17762" lon="6.2843">
        <ele>238.5443115</ele>
        <time>2012-11-13T13:24:57Z</time>
      </trkpt>
      <trkpt lat="49.17764" lon="6.28526">
        <ele>238.5443115</ele>
        <time>2012-11-13T13:25:06Z</time>
      </trkpt>
      <trkpt lat="49.17763" lon="6.28605">
        <ele>239.5054932</ele>
        <time>2012-11-13T13:25:14Z</time>
      </trkpt>
      <trkpt lat="49.17762" lon="6.28701">
        <ele>240.467041</ele>
        <time>2012-11-13T13:25:24Z</time>
      </trkpt>
      <trkpt lat="49.17759" lon="6.28801">
        <ele>240.9476318</ele>
        <time>2012-11-13T13:25:34Z</time>
      </trkpt>
      <trkpt lat="49.17765" lon="6.28869">
        <ele>241.9089355</ele>
        <time>2012-11-13T13:25:41Z</time>
      </trkpt>
      <trkpt lat="49.17782" lon="6.28943">
        <ele>242.8702393</ele>
        <time>2012-11-13T13:25:49Z</time>
      </trkpt>
      <trkpt lat="49.17804" lon="6.29033">
        <ele>243.3508301</ele>
        <time>2012-11-13T13:25:59Z</time>
      </trkpt>
      <trkpt lat="49.17809" lon="6.29051">
        <ele>244.3122559</ele>
        <time>2012-11-13T13:26:01Z</time>
      </trkpt>
      <trkpt lat="49.1783" lon="6.29125">
        <ele>245.2734375</ele>
        <time>2012-11-13T13:26:09Z</time>
      </trkpt>
      <trkpt lat="49.17858" lon="6.29181">
        <ele>245.2734375</ele>
        <time>2012-11-13T13:26:16Z</time>
      </trkpt>
      <trkpt lat="49.17882" lon="6.29239">
        <ele>245.7541504</ele>
        <time>2012-11-13T13:26:23Z</time>
      </trkpt>
      <trkpt lat="49.17897" lon="6.29303">
        <ele>246.2348633</ele>
        <time>2012-11-13T13:26:30Z</time>
      </trkpt>
      <trkpt lat="49.17906" lon="6.29362">
        <ele>246.7154541</ele>
        <time>2012-11-13T13:26:36Z</time>
      </trkpt>
      <trkpt lat="49.17912" lon="6.29441">
        <ele>247.1960449</ele>
        <time>2012-11-13T13:26:44Z</time>
      </trkpt>
      <trkpt lat="49.1791" lon="6.2946">
        <ele>247.1960449</ele>
        <time>2012-11-13T13:26:46Z</time>
      </trkpt>
      <trkpt lat="49.17905" lon="6.29517">
        <ele>247.1960449</ele>
        <time>2012-11-13T13:26:52Z</time>
      </trkpt>
      <trkpt lat="49.179" lon="6.2961">
        <ele>246.7154541</ele>
        <time>2012-11-13T13:27:01Z</time>
      </trkpt>
      <trkpt lat="49.17899" lon="6.29643">
        <ele>247.1960449</ele>
        <time>2012-11-13T13:27:04Z</time>
      </trkpt>
      <trkpt lat="49.17898" lon="6.29665">
        <ele>247.6767578</ele>
        <time>2012-11-13T13:27:06Z</time>
      </trkpt>
      <trkpt lat="49.17897" lon="6.29695">
        <ele>247.6767578</ele>
        <time>2012-11-13T13:27:09Z</time>
      </trkpt>
      <trkpt lat="49.17896" lon="6.29704">
        <ele>247.6767578</ele>
        <time>2012-11-13T13:27:10Z</time>
      </trkpt>
      <trkpt lat="49.1789" lon="6.29802">
        <ele>248.6381836</ele>
        <time>2012-11-13T13:27:20Z</time>
      </trkpt>
      <trkpt lat="49.17881" lon="6.29879">
        <ele>249.5994873</ele>
        <time>2012-11-13T13:27:28Z</time>
      </trkpt>
      <trkpt lat="49.17878" lon="6.29898">
        <ele>250.0802002</ele>
        <time>2012-11-13T13:27:30Z</time>
      </trkpt>
      <trkpt lat="49.17876" lon="6.29908">
        <ele>250.0802002</ele>
        <time>2012-11-13T13:27:31Z</time>
      </trkpt>
      <trkpt lat="49.17872" lon="6.29927">
        <ele>250.560791</ele>
        <time>2012-11-13T13:27:33Z</time>
      </trkpt>
      <trkpt lat="49.17869" lon="6.29937">
        <ele>250.0802002</ele>
        <time>2012-11-13T13:27:34Z</time>
      </trkpt>
      <trkpt lat="49.17854" lon="6.29996">
        <ele>250.0802002</ele>
        <time>2012-11-13T13:27:40Z</time>
      </trkpt>
      <trkpt lat="49.17846" lon="6.30021">
        <ele>250.0802002</ele>
        <time>2012-11-13T13:27:43Z</time>
      </trkpt>
      <trkpt lat="49.17815" lon="6.30098">
        <ele>252.4833984</ele>
        <time>2012-11-13T13:27:52Z</time>
      </trkpt>
      <trkpt lat="49.17785" lon="6.30172">
        <ele>252.9639893</ele>
        <time>2012-11-13T13:28:01Z</time>
      </trkpt>
      <trkpt lat="49.17757" lon="6.30243">
        <ele>256.3287354</ele>
        <time>2012-11-13T13:28:10Z</time>
      </trkpt>
      <trkpt lat="49.17734" lon="6.30307">
        <ele>256.8093262</ele>
        <time>2012-11-13T13:28:18Z</time>
      </trkpt>
      <trkpt lat="49.17731" lon="6.30315">
        <ele>257.770752</ele>
        <time>2012-11-13T13:28:19Z</time>
      </trkpt>
      <trkpt lat="49.1772" lon="6.30334">
        <ele>259.2126465</ele>
        <time>2012-11-13T13:28:22Z</time>
      </trkpt>
      <trkpt lat="49.17716" lon="6.3034">
        <ele>259.2126465</ele>
        <time>2012-11-13T13:28:23Z</time>
      </trkpt>
      <trkpt lat="49.17712" lon="6.30346">
        <ele>259.2126465</ele>
        <time>2012-11-13T13:28:24Z</time>
      </trkpt>
      <trkpt lat="49.17691" lon="6.30353">
        <ele>261.1352539</ele>
        <time>2012-11-13T13:28:28Z</time>
      </trkpt>
      <trkpt lat="49.17685" lon="6.30353">
        <ele>260.654541</ele>
        <time>2012-11-13T13:28:29Z</time>
      </trkpt>
      <trkpt lat="49.17639" lon="6.30351">
        <ele>261.6159668</ele>
        <time>2012-11-13T13:28:37Z</time>
      </trkpt>
      <trkpt lat="49.17598" lon="6.30355">
        <ele>262.5771484</ele>
        <time>2012-11-13T13:28:44Z</time>
      </trkpt>
      <trkpt lat="49.17564" lon="6.30375">
        <ele>263.5385742</ele>
        <time>2012-11-13T13:28:50Z</time>
      </trkpt>
      <trkpt lat="49.17534" lon="6.3041">
        <ele>263.5385742</ele>
        <time>2012-11-13T13:28:56Z</time>
      </trkpt>
      <trkpt lat="49.17509" lon="6.30459">
        <ele>263.5385742</ele>
        <time>2012-11-13T13:29:03Z</time>
      </trkpt>
      <trkpt lat="49.17488" lon="6.30512">
        <ele>262.0965576</ele>
        <time>2012-11-13T13:29:10Z</time>
      </trkpt>
      <trkpt lat="49.17475" lon="6.30561">
        <ele>261.6159668</ele>
        <time>2012-11-13T13:29:15Z</time>
      </trkpt>
      <trkpt lat="49.17473" lon="6.30603">
        <ele>261.6159668</ele>
        <time>2012-11-13T13:29:19Z</time>
      </trkpt>
      <trkpt lat="49.17478" lon="6.30676">
        <ele>261.6159668</ele>
        <time>2012-11-13T13:29:26Z</time>
      </trkpt>
      <trkpt lat="49.17472" lon="6.30741">
        <ele>262.5771484</ele>
        <time>2012-11-13T13:29:33Z</time>
      </trkpt>
      <trkpt lat="49.17468" lon="6.30783">
        <ele>263.0578613</ele>
        <time>2012-11-13T13:29:39Z</time>
      </trkpt>
      <trkpt lat="49.17466" lon="6.30806">
        <ele>262.0965576</ele>
        <time>2012-11-13T13:29:45Z</time>
      </trkpt>
      <trkpt lat="49.17466" lon="6.30808">
        <ele>263.0578613</ele>
        <time>2012-11-13T13:29:46Z</time>
      </trkpt>
      <trkpt lat="49.17474" lon="6.30817">
        <ele>262.0965576</ele>
        <time>2012-11-13T13:29:50Z</time>
      </trkpt>
      <trkpt lat="49.17484" lon="6.30817">
        <ele>262.0965576</ele>
        <time>2012-11-13T13:29:52Z</time>
      </trkpt>
      <trkpt lat="49.17506" lon="6.30814">
        <ele>260.654541</ele>
        <time>2012-11-13T13:29:56Z</time>
      </trkpt>
      <trkpt lat="49.17545" lon="6.3081">
        <ele>260.1739502</ele>
        <time>2012-11-13T13:30:02Z</time>
      </trkpt>
      <trkpt lat="49.17598" lon="6.30804">
        <ele>260.654541</ele>
        <time>2012-11-13T13:30:09Z</time>
      </trkpt>
      <trkpt lat="49.17635" lon="6.30798">
        <ele>261.1352539</ele>
        <time>2012-11-13T13:30:14Z</time>
      </trkpt>
      <trkpt lat="49.17648" lon="6.30796">
        <ele>262.5771484</ele>
        <time>2012-11-13T13:30:16Z</time>
      </trkpt>
      <trkpt lat="49.17704" lon="6.30788">
        <ele>264.9805908</ele>
        <time>2012-11-13T13:30:25Z</time>
      </trkpt>
      <trkpt lat="49.17762" lon="6.30784">
        <ele>265.9418945</ele>
        <time>2012-11-13T13:30:34Z</time>
      </trkpt>
      <trkpt lat="49.17788" lon="6.30786">
        <ele>266.4224854</ele>
        <time>2012-11-13T13:30:38Z</time>
      </trkpt>
      <trkpt lat="49.17817" lon="6.30788">
        <ele>265.4613037</ele>
        <time>2012-11-13T13:30:42Z</time>
      </trkpt>
      <trkpt lat="49.17831" lon="6.30788">
        <ele>266.9031982</ele>
        <time>2012-11-13T13:30:44Z</time>
      </trkpt>
      <trkpt lat="49.17846" lon="6.30789">
        <ele>266.9031982</ele>
        <time>2012-11-13T13:30:46Z</time>
      </trkpt>
      <trkpt lat="49.17853" lon="6.3079">
        <ele>266.9031982</ele>
        <time>2012-11-13T13:30:47Z</time>
      </trkpt>
      <trkpt lat="49.17932" lon="6.30796">
        <ele>266.4224854</ele>
        <time>2012-11-13T13:30:58Z</time>
      </trkpt>
      <trkpt lat="49.17994" lon="6.308">
        <ele>264.4998779</ele>
        <time>2012-11-13T13:31:06Z</time>
      </trkpt>
      <trkpt lat="49.18051" lon="6.30804">
        <ele>263.5385742</ele>
        <time>2012-11-13T13:31:13Z</time>
      </trkpt>
      <trkpt lat="49.18115" lon="6.30808">
        <ele>262.0965576</ele>
        <time>2012-11-13T13:31:20Z</time>
      </trkpt>
      <trkpt lat="49.18145" lon="6.30809">
        <ele>260.654541</ele>
        <time>2012-11-13T13:31:23Z</time>
      </trkpt>
      <trkpt lat="49.18183" lon="6.30811">
        <ele>260.654541</ele>
        <time>2012-11-13T13:31:27Z</time>
      </trkpt>
      <trkpt lat="49.18218" lon="6.30813">
        <ele>261.1352539</ele>
        <time>2012-11-13T13:31:31Z</time>
      </trkpt>
      <trkpt lat="49.18233" lon="6.30814">
        <ele>262.0965576</ele>
        <time>2012-11-13T13:31:33Z</time>
      </trkpt>
      <trkpt lat="49.18282" lon="6.30817">
        <ele>264.9805908</ele>
        <time>2012-11-13T13:31:40Z</time>
      </trkpt>
      <trkpt lat="49.18308" lon="6.30819">
        <ele>266.9031982</ele>
        <time>2012-11-13T13:31:44Z</time>
      </trkpt>
      <trkpt lat="49.1836" lon="6.30817">
        <ele>269.7871094</ele>
        <time>2012-11-13T13:31:52Z</time>
      </trkpt>
      <trkpt lat="49.18386" lon="6.30813">
        <ele>271.229126</ele>
        <time>2012-11-13T13:31:56Z</time>
      </trkpt>
      <trkpt lat="49.18392" lon="6.30812">
        <ele>270.7484131</ele>
        <time>2012-11-13T13:31:57Z</time>
      </trkpt>
      <trkpt lat="49.18399" lon="6.30811">
        <ele>271.7097168</ele>
        <time>2012-11-13T13:31:58Z</time>
      </trkpt>
      <trkpt lat="49.18454" lon="6.30802">
        <ele>272.6711426</ele>
        <time>2012-11-13T13:32:07Z</time>
      </trkpt>
      <trkpt lat="49.18518" lon="6.30787">
        <ele>273.1518555</ele>
        <time>2012-11-13T13:32:18Z</time>
      </trkpt>
      <trkpt lat="49.18523" lon="6.30785">
        <ele>273.1518555</ele>
        <time>2012-11-13T13:32:19Z</time>
      </trkpt>
      <trkpt lat="49.18541" lon="6.30794">
        <ele>272.6711426</ele>
        <time>2012-11-13T13:32:23Z</time>
      </trkpt>
      <trkpt lat="49.18546" lon="6.30818">
        <ele>273.1518555</ele>
        <time>2012-11-13T13:32:26Z</time>
      </trkpt>
      <trkpt lat="49.18546" lon="6.30836">
        <ele>274.1130371</ele>
        <time>2012-11-13T13:32:28Z</time>
      </trkpt>
      <trkpt lat="49.18547" lon="6.30845">
        <ele>273.6324463</ele>
        <time>2012-11-13T13:32:29Z</time>
      </trkpt>
      <trkpt lat="49.18553" lon="6.30919">
        <ele>272.1904297</ele>
        <time>2012-11-13T13:32:37Z</time>
      </trkpt>
      <trkpt lat="49.18558" lon="6.30983">
        <ele>272.1904297</ele>
        <time>2012-11-13T13:32:44Z</time>
      </trkpt>
      <trkpt lat="49.18564" lon="6.31054">
        <ele>273.1518555</ele>
        <time>2012-11-13T13:32:53Z</time>
      </trkpt>
      <trkpt lat="49.18571" lon="6.31127">
        <ele>273.6324463</ele>
        <time>2012-11-13T13:33:02Z</time>
      </trkpt>
      <trkpt lat="49.18581" lon="6.31227">
        <ele>276.0356445</ele>
        <time>2012-11-13T13:33:14Z</time>
      </trkpt>
      <trkpt lat="49.18586" lon="6.31279">
        <ele>277.4776611</ele>
        <time>2012-11-13T13:33:20Z</time>
      </trkpt>
      <trkpt lat="49.18588" lon="6.31312">
        <ele>276.9970703</ele>
        <time>2012-11-13T13:33:24Z</time>
      </trkpt>
      <trkpt lat="49.18595" lon="6.31396">
        <ele>278.9196777</ele>
        <time>2012-11-13T13:33:34Z</time>
      </trkpt>
      <trkpt lat="49.18596" lon="6.31405">
        <ele>278.4389648</ele>
        <time>2012-11-13T13:33:35Z</time>
      </trkpt>
      <trkpt lat="49.18597" lon="6.31421">
        <ele>279.4002686</ele>
        <time>2012-11-13T13:33:37Z</time>
      </trkpt>
      <trkpt lat="49.18599" lon="6.31438">
        <ele>279.4002686</ele>
        <time>2012-11-13T13:33:39Z</time>
      </trkpt>
      <trkpt lat="49.18599" lon="6.31447">
        <ele>279.8808594</ele>
        <time>2012-11-13T13:33:40Z</time>
      </trkpt>
      <trkpt lat="49.18602" lon="6.31518">
        <ele>282.2843018</ele>
        <time>2012-11-13T13:33:49Z</time>
      </trkpt>
      <trkpt lat="49.18601" lon="6.31593">
        <ele>284.2069092</ele>
        <time>2012-11-13T13:33:59Z</time>
      </trkpt>
      <trkpt lat="49.18602" lon="6.31631">
        <ele>285.6488037</ele>
        <time>2012-11-13T13:34:04Z</time>
      </trkpt>
      <trkpt lat="49.18604" lon="6.31675">
        <ele>285.6488037</ele>
        <time>2012-11-13T13:34:10Z</time>
      </trkpt>
      <trkpt lat="49.18606" lon="6.31706">
        <ele>285.6488037</ele>
        <time>2012-11-13T13:34:14Z</time>
      </trkpt>
      <trkpt lat="49.18607" lon="6.31713">
        <ele>286.6102295</ele>
        <time>2012-11-13T13:34:15Z</time>
      </trkpt>
      <trkpt lat="49.18616" lon="6.31785">
        <ele>287.0908203</ele>
        <time>2012-11-13T13:34:24Z</time>
      </trkpt>
      <trkpt lat="49.18621" lon="6.31817">
        <ele>288.0522461</ele>
        <time>2012-11-13T13:34:28Z</time>
      </trkpt>
      <trkpt lat="49.18623" lon="6.31834">
        <ele>286.6102295</ele>
        <time>2012-11-13T13:34:30Z</time>
      </trkpt>
      <trkpt lat="49.18634" lon="6.31907">
        <ele>288.0522461</ele>
        <time>2012-11-13T13:34:39Z</time>
      </trkpt>
      <trkpt lat="49.18645" lon="6.31986">
        <ele>288.532959</ele>
        <time>2012-11-13T13:34:48Z</time>
      </trkpt>
      <trkpt lat="49.18661" lon="6.32082">
        <ele>287.5714111</ele>
        <time>2012-11-13T13:34:58Z</time>
      </trkpt>
      <trkpt lat="49.18675" lon="6.32182">
        <ele>288.532959</ele>
        <time>2012-11-13T13:35:08Z</time>
      </trkpt>
      <trkpt lat="49.18679" lon="6.3221">
        <ele>286.6102295</ele>
        <time>2012-11-13T13:35:11Z</time>
      </trkpt>
      <trkpt lat="49.18688" lon="6.32268">
        <ele>286.6102295</ele>
        <time>2012-11-13T13:35:18Z</time>
      </trkpt>
      <trkpt lat="49.18695" lon="6.32311">
        <ele>287.5714111</ele>
        <time>2012-11-13T13:35:23Z</time>
      </trkpt>
      <trkpt lat="49.187" lon="6.32345">
        <ele>288.532959</ele>
        <time>2012-11-13T13:35:27Z</time>
      </trkpt>
      <trkpt lat="49.18707" lon="6.32396">
        <ele>287.5714111</ele>
        <time>2012-11-13T13:35:33Z</time>
      </trkpt>
      <trkpt lat="49.18721" lon="6.3248">
        <ele>288.0522461</ele>
        <time>2012-11-13T13:35:42Z</time>
      </trkpt>
      <trkpt lat="49.18733" lon="6.3255">
        <ele>288.0522461</ele>
        <time>2012-11-13T13:35:50Z</time>
      </trkpt>
      <trkpt lat="49.18755" lon="6.32644">
        <ele>289.4941406</ele>
        <time>2012-11-13T13:36:01Z</time>
      </trkpt>
      <trkpt lat="49.18774" lon="6.32698">
        <ele>288.532959</ele>
        <time>2012-11-13T13:36:08Z</time>
      </trkpt>
      <trkpt lat="49.1879" lon="6.32749">
        <ele>289.0135498</ele>
        <time>2012-11-13T13:36:14Z</time>
      </trkpt>
      <trkpt lat="49.18803" lon="6.32827">
        <ele>289.9748535</ele>
        <time>2012-11-13T13:36:22Z</time>
      </trkpt>
      <trkpt lat="49.1882" lon="6.32938">
        <ele>289.4941406</ele>
        <time>2012-11-13T13:36:34Z</time>
      </trkpt>
      <trkpt lat="49.18822" lon="6.32995">
        <ele>289.9748535</ele>
        <time>2012-11-13T13:36:40Z</time>
      </trkpt>
      <trkpt lat="49.18814" lon="6.33041">
        <ele>290.4555664</ele>
        <time>2012-11-13T13:36:45Z</time>
      </trkpt>
      <trkpt lat="49.18794" lon="6.33089">
        <ele>290.4555664</ele>
        <time>2012-11-13T13:36:51Z</time>
      </trkpt>
      <trkpt lat="49.18769" lon="6.33117">
        <ele>291.416748</ele>
        <time>2012-11-13T13:36:56Z</time>
      </trkpt>
      <trkpt lat="49.18724" lon="6.33152">
        <ele>289.9748535</ele>
        <time>2012-11-13T13:37:04Z</time>
      </trkpt>
      <trkpt lat="49.18696" lon="6.33175">
        <ele>290.9361572</ele>
        <time>2012-11-13T13:37:09Z</time>
      </trkpt>
      <trkpt lat="49.18651" lon="6.33213">
        <ele>290.4555664</ele>
        <time>2012-11-13T13:37:17Z</time>
      </trkpt>
      <trkpt lat="49.18628" lon="6.33226">
        <ele>290.4555664</ele>
        <time>2012-11-13T13:37:21Z</time>
      </trkpt>
      <trkpt lat="49.18602" lon="6.33228">
        <ele>290.4555664</ele>
        <time>2012-11-13T13:37:25Z</time>
      </trkpt>
      <trkpt lat="49.18547" lon="6.33214">
        <ele>290.9361572</ele>
        <time>2012-11-13T13:37:34Z</time>
      </trkpt>
      <trkpt lat="49.18521" lon="6.33221">
        <ele>290.9361572</ele>
        <time>2012-11-13T13:37:39Z</time>
      </trkpt>
      <trkpt lat="49.18514" lon="6.33227">
        <ele>290.9361572</ele>
        <time>2012-11-13T13:37:41Z</time>
      </trkpt>
      <trkpt lat="49.18511" lon="6.3323">
        <ele>290.4555664</ele>
        <time>2012-11-13T13:37:42Z</time>
      </trkpt>
      <trkpt lat="49.18508" lon="6.33232">
        <ele>290.4555664</ele>
        <time>2012-11-13T13:37:43Z</time>
      </trkpt>
      <trkpt lat="49.18505" lon="6.33234">
        <ele>290.9361572</ele>
        <time>2012-11-13T13:37:44Z</time>
      </trkpt>
      <trkpt lat="49.18503" lon="6.33236">
        <ele>290.9361572</ele>
        <time>2012-11-13T13:37:45Z</time>
      </trkpt>
      <trkpt lat="49.185" lon="6.33237">
        <ele>290.9361572</ele>
        <time>2012-11-13T13:37:46Z</time>
      </trkpt>
      <trkpt lat="49.18498" lon="6.3324">
        <ele>291.416748</ele>
        <time>2012-11-13T13:37:47Z</time>
      </trkpt>
      <trkpt lat="49.18496" lon="6.33249">
        <ele>292.3781738</ele>
        <time>2012-11-13T13:37:49Z</time>
      </trkpt>
      <trkpt lat="49.18503" lon="6.33272">
        <ele>292.3781738</ele>
        <time>2012-11-13T13:37:53Z</time>
      </trkpt>
      <trkpt lat="49.18534" lon="6.33334">
        <ele>292.3781738</ele>
        <time>2012-11-13T13:38:02Z</time>
      </trkpt>
      <trkpt lat="49.18545" lon="6.33355">
        <ele>292.3781738</ele>
        <time>2012-11-13T13:38:05Z</time>
      </trkpt>
      <trkpt lat="49.18552" lon="6.33369">
        <ele>293.3393555</ele>
        <time>2012-11-13T13:38:07Z</time>
      </trkpt>
      <trkpt lat="49.18582" lon="6.33426">
        <ele>293.3393555</ele>
        <time>2012-11-13T13:38:15Z</time>
      </trkpt>
      <trkpt lat="49.18598" lon="6.33456">
        <ele>293.8200684</ele>
        <time>2012-11-13T13:38:19Z</time>
      </trkpt>
      <trkpt lat="49.18602" lon="6.33464">
        <ele>293.3393555</ele>
        <time>2012-11-13T13:38:20Z</time>
      </trkpt>
      <trkpt lat="49.18638" lon="6.33531">
        <ele>294.3007813</ele>
        <time>2012-11-13T13:38:29Z</time>
      </trkpt>
      <trkpt lat="49.18659" lon="6.33567">
        <ele>294.7813721</ele>
        <time>2012-11-13T13:38:34Z</time>
      </trkpt>
      <trkpt lat="49.18677" lon="6.33597">
        <ele>294.7813721</ele>
        <time>2012-11-13T13:38:38Z</time>
      </trkpt>
      <trkpt lat="49.18682" lon="6.33605">
        <ele>294.7813721</ele>
        <time>2012-11-13T13:38:39Z</time>
      </trkpt>
      <trkpt lat="49.18725" lon="6.33678">
        <ele>296.7041016</ele>
        <time>2012-11-13T13:38:49Z</time>
      </trkpt>
      <trkpt lat="49.18744" lon="6.33707">
        <ele>297.1846924</ele>
        <time>2012-11-13T13:38:53Z</time>
      </trkpt>
      <trkpt lat="49.18788" lon="6.33776">
        <ele>297.6654053</ele>
        <time>2012-11-13T13:39:03Z</time>
      </trkpt>
      <trkpt lat="49.18838" lon="6.33849">
        <ele>299.1072998</ele>
        <time>2012-11-13T13:39:14Z</time>
      </trkpt>
      <trkpt lat="49.18886" lon="6.33914">
        <ele>300.0687256</ele>
        <time>2012-11-13T13:39:24Z</time>
      </trkpt>
      <trkpt lat="49.18933" lon="6.33975">
        <ele>301.5106201</ele>
        <time>2012-11-13T13:39:34Z</time>
      </trkpt>
      <trkpt lat="49.18971" lon="6.34022">
        <ele>302.4719238</ele>
        <time>2012-11-13T13:39:42Z</time>
      </trkpt>
      <trkpt lat="49.19027" lon="6.34087">
        <ele>303.9139404</ele>
        <time>2012-11-13T13:39:53Z</time>
      </trkpt>
      <trkpt lat="49.19072" lon="6.34136">
        <ele>304.8752441</ele>
        <time>2012-11-13T13:40:01Z</time>
      </trkpt>
      <trkpt lat="49.19096" lon="6.3416">
        <ele>304.8752441</ele>
        <time>2012-11-13T13:40:05Z</time>
      </trkpt>
      <trkpt lat="49.19141" lon="6.34206">
        <ele>306.7978516</ele>
        <time>2012-11-13T13:40:13Z</time>
      </trkpt>
      <trkpt lat="49.19174" lon="6.34239">
        <ele>309.6818848</ele>
        <time>2012-11-13T13:40:19Z</time>
      </trkpt>
      <trkpt lat="49.19179" lon="6.34245">
        <ele>309.6818848</ele>
        <time>2012-11-13T13:40:20Z</time>
      </trkpt>
      <trkpt lat="49.19207" lon="6.34274">
        <ele>309.6818848</ele>
        <time>2012-11-13T13:40:25Z</time>
      </trkpt>
      <trkpt lat="49.19233" lon="6.343">
        <ele>310.6430664</ele>
        <time>2012-11-13T13:40:30Z</time>
      </trkpt>
      <trkpt lat="49.19238" lon="6.34305">
        <ele>310.6430664</ele>
        <time>2012-11-13T13:40:31Z</time>
      </trkpt>
      <trkpt lat="49.19289" lon="6.34357">
        <ele>311.1237793</ele>
        <time>2012-11-13T13:40:41Z</time>
      </trkpt>
      <trkpt lat="49.1931" lon="6.34378">
        <ele>312.0852051</ele>
        <time>2012-11-13T13:40:45Z</time>
      </trkpt>
      <trkpt lat="49.19347" lon="6.34415">
        <ele>312.5657959</ele>
        <time>2012-11-13T13:40:52Z</time>
      </trkpt>
      <trkpt lat="49.19411" lon="6.3448">
        <ele>313.0465088</ele>
        <time>2012-11-13T13:41:04Z</time>
      </trkpt>
      <trkpt lat="49.19468" lon="6.34538">
        <ele>314.0078125</ele>
        <time>2012-11-13T13:41:15Z</time>
      </trkpt>
      <trkpt lat="49.19489" lon="6.34558">
        <ele>312.5657959</ele>
        <time>2012-11-13T13:41:19Z</time>
      </trkpt>
      <trkpt lat="49.19548" lon="6.34617">
        <ele>313.0465088</ele>
        <time>2012-11-13T13:41:30Z</time>
      </trkpt>
      <trkpt lat="49.19606" lon="6.34676">
        <ele>314.4884033</ele>
        <time>2012-11-13T13:41:41Z</time>
      </trkpt>
      <trkpt lat="49.1966" lon="6.34731">
        <ele>314.4884033</ele>
        <time>2012-11-13T13:41:51Z</time>
      </trkpt>
      <trkpt lat="49.19716" lon="6.34787">
        <ele>315.9304199</ele>
        <time>2012-11-13T13:42:01Z</time>
      </trkpt>
      <trkpt lat="49.19782" lon="6.34853">
        <ele>316.8917236</ele>
        <time>2012-11-13T13:42:13Z</time>
      </trkpt>
      <trkpt lat="49.19825" lon="6.34896">
        <ele>318.3336182</ele>
        <time>2012-11-13T13:42:21Z</time>
      </trkpt>
      <trkpt lat="49.19865" lon="6.34936">
        <ele>320.7370605</ele>
        <time>2012-11-13T13:42:29Z</time>
      </trkpt>
      <trkpt lat="49.19887" lon="6.34959">
        <ele>322.1789551</ele>
        <time>2012-11-13T13:42:34Z</time>
      </trkpt>
      <trkpt lat="49.19933" lon="6.35006">
        <ele>324.1015625</ele>
        <time>2012-11-13T13:42:45Z</time>
      </trkpt>
      <trkpt lat="49.19973" lon="6.35054">
        <ele>326.0241699</ele>
        <time>2012-11-13T13:42:55Z</time>
      </trkpt>
      <trkpt lat="49.20012" lon="6.3511">
        <ele>327.9467773</ele>
        <time>2012-11-13T13:43:05Z</time>
      </trkpt>
      <trkpt lat="49.20046" lon="6.35169">
        <ele>329.388916</ele>
        <time>2012-11-13T13:43:15Z</time>
      </trkpt>
      <trkpt lat="49.20077" lon="6.35232">
        <ele>332.2728271</ele>
        <time>2012-11-13T13:43:25Z</time>
      </trkpt>
      <trkpt lat="49.20109" lon="6.35302">
        <ele>333.2341309</ele>
        <time>2012-11-13T13:43:36Z</time>
      </trkpt>
      <trkpt lat="49.20141" lon="6.35375">
        <ele>334.1954346</ele>
        <time>2012-11-13T13:43:47Z</time>
      </trkpt>
      <trkpt lat="49.20168" lon="6.35438">
        <ele>334.6761475</ele>
        <time>2012-11-13T13:43:56Z</time>
      </trkpt>
      <trkpt lat="49.20188" lon="6.35499">
        <ele>335.1567383</ele>
        <time>2012-11-13T13:44:04Z</time>
      </trkpt>
      <trkpt lat="49.20209" lon="6.35576">
        <ele>338.0407715</ele>
        <time>2012-11-13T13:44:14Z</time>
      </trkpt>
      <trkpt lat="49.20226" lon="6.35649">
        <ele>336.1181641</ele>
        <time>2012-11-13T13:44:23Z</time>
      </trkpt>
      <trkpt lat="49.20242" lon="6.35715">
        <ele>337.0794678</ele>
        <time>2012-11-13T13:44:31Z</time>
      </trkpt>
      <trkpt lat="49.20255" lon="6.35785">
        <ele>338.0407715</ele>
        <time>2012-11-13T13:44:39Z</time>
      </trkpt>
      <trkpt lat="49.20266" lon="6.35862">
        <ele>338.0407715</ele>
        <time>2012-11-13T13:44:47Z</time>
      </trkpt>
      <trkpt lat="49.20281" lon="6.35945">
        <ele>338.0407715</ele>
        <time>2012-11-13T13:44:56Z</time>
      </trkpt>
      <trkpt lat="49.203" lon="6.36016">
        <ele>339.9633789</ele>
        <time>2012-11-13T13:45:04Z</time>
      </trkpt>
      <trkpt lat="49.20324" lon="6.36099">
        <ele>339.482666</ele>
        <time>2012-11-13T13:45:13Z</time>
      </trkpt>
      <trkpt lat="49.20345" lon="6.36172">
        <ele>339.9633789</ele>
        <time>2012-11-13T13:45:21Z</time>
      </trkpt>
      <trkpt lat="49.20371" lon="6.36254">
        <ele>340.4440918</ele>
        <time>2012-11-13T13:45:30Z</time>
      </trkpt>
      <trkpt lat="49.20401" lon="6.36308">
        <ele>339.9633789</ele>
        <time>2012-11-13T13:45:37Z</time>
      </trkpt>
      <trkpt lat="49.20426" lon="6.36355">
        <ele>339.9633789</ele>
        <time>2012-11-13T13:45:43Z</time>
      </trkpt>
      <trkpt lat="49.20467" lon="6.36429">
        <ele>339.0020752</ele>
        <time>2012-11-13T13:45:52Z</time>
      </trkpt>
      <trkpt lat="49.20502" lon="6.36496">
        <ele>339.9633789</ele>
        <time>2012-11-13T13:46:00Z</time>
      </trkpt>
      <trkpt lat="49.2053" lon="6.36547">
        <ele>339.0020752</ele>
        <time>2012-11-13T13:46:06Z</time>
      </trkpt>
      <trkpt lat="49.20566" lon="6.36611">
        <ele>339.482666</ele>
        <time>2012-11-13T13:46:13Z</time>
      </trkpt>
      <trkpt lat="49.2057" lon="6.36619">
        <ele>339.482666</ele>
        <time>2012-11-13T13:46:14Z</time>
      </trkpt>
      <trkpt lat="49.2058" lon="6.36636">
        <ele>339.9633789</ele>
        <time>2012-11-13T13:46:16Z</time>
      </trkpt>
      <trkpt lat="49.20589" lon="6.36652">
        <ele>339.482666</ele>
        <time>2012-11-13T13:46:18Z</time>
      </trkpt>
      <trkpt lat="49.20593" lon="6.3666">
        <ele>339.0020752</ele>
        <time>2012-11-13T13:46:19Z</time>
      </trkpt>
      <trkpt lat="49.2063" lon="6.36727">
        <ele>339.9633789</ele>
        <time>2012-11-13T13:46:27Z</time>
      </trkpt>
      <trkpt lat="49.20662" lon="6.36785">
        <ele>340.4440918</ele>
        <time>2012-11-13T13:46:34Z</time>
      </trkpt>
      <trkpt lat="49.20686" lon="6.36827">
        <ele>339.9633789</ele>
        <time>2012-11-13T13:46:39Z</time>
      </trkpt>
      <trkpt lat="49.2072" lon="6.36887">
        <ele>340.9246826</ele>
        <time>2012-11-13T13:46:46Z</time>
      </trkpt>
      <trkpt lat="49.20761" lon="6.36961">
        <ele>341.8859863</ele>
        <time>2012-11-13T13:46:55Z</time>
      </trkpt>
      <trkpt lat="49.20784" lon="6.37">
        <ele>343.3278809</ele>
        <time>2012-11-13T13:47:00Z</time>
      </trkpt>
      <trkpt lat="49.20832" lon="6.37086">
        <ele>342.84729</ele>
        <time>2012-11-13T13:47:11Z</time>
      </trkpt>
      <trkpt lat="49.20866" lon="6.37146">
        <ele>344.2894287</ele>
        <time>2012-11-13T13:47:19Z</time>
      </trkpt>
      <trkpt lat="49.20878" lon="6.37167">
        <ele>343.3278809</ele>
        <time>2012-11-13T13:47:22Z</time>
      </trkpt>
      <trkpt lat="49.20886" lon="6.37179">
        <ele>344.2894287</ele>
        <time>2012-11-13T13:47:24Z</time>
      </trkpt>
      <trkpt lat="49.2089" lon="6.37185">
        <ele>344.7700195</ele>
        <time>2012-11-13T13:47:25Z</time>
      </trkpt>
      <trkpt lat="49.20898" lon="6.37207">
        <ele>345.7313232</ele>
        <time>2012-11-13T13:47:28Z</time>
      </trkpt>
      <trkpt lat="49.20899" lon="6.37215">
        <ele>345.7313232</ele>
        <time>2012-11-13T13:47:29Z</time>
      </trkpt>
      <trkpt lat="49.20897" lon="6.37229">
        <ele>345.2506104</ele>
        <time>2012-11-13T13:47:31Z</time>
      </trkpt>
      <trkpt lat="49.20891" lon="6.37275">
        <ele>345.7313232</ele>
        <time>2012-11-13T13:47:37Z</time>
      </trkpt>
      <trkpt lat="49.20886" lon="6.37332">
        <ele>346.692627</ele>
        <time>2012-11-13T13:47:44Z</time>
      </trkpt>
      <trkpt lat="49.20879" lon="6.37395">
        <ele>347.6539307</ele>
        <time>2012-11-13T13:47:51Z</time>
      </trkpt>
      <trkpt lat="49.20872" lon="6.37475">
        <ele>344.2894287</ele>
        <time>2012-11-13T13:47:59Z</time>
      </trkpt>
      <trkpt lat="49.20869" lon="6.37508">
        <ele>343.8085938</ele>
        <time>2012-11-13T13:48:02Z</time>
      </trkpt>
      <trkpt lat="49.20868" lon="6.37519">
        <ele>344.2894287</ele>
        <time>2012-11-13T13:48:03Z</time>
      </trkpt>
      <trkpt lat="49.20867" lon="6.37531">
        <ele>343.8085938</ele>
        <time>2012-11-13T13:48:04Z</time>
      </trkpt>
      <trkpt lat="49.20864" lon="6.37567">
        <ele>343.8085938</ele>
        <time>2012-11-13T13:48:07Z</time>
      </trkpt>
      <trkpt lat="49.20863" lon="6.37579">
        <ele>343.3278809</ele>
        <time>2012-11-13T13:48:08Z</time>
      </trkpt>
      <trkpt lat="49.20861" lon="6.37591">
        <ele>343.8085938</ele>
        <time>2012-11-13T13:48:09Z</time>
      </trkpt>
      <trkpt lat="49.20858" lon="6.37616">
        <ele>342.84729</ele>
        <time>2012-11-13T13:48:11Z</time>
      </trkpt>
      <trkpt lat="49.20837" lon="6.37674">
        <ele>340.9246826</ele>
        <time>2012-11-13T13:48:16Z</time>
      </trkpt>
      <trkpt lat="49.20831" lon="6.37684">
        <ele>340.9246826</ele>
        <time>2012-11-13T13:48:17Z</time>
      </trkpt>
      <trkpt lat="49.20817" lon="6.37702">
        <ele>338.5214844</ele>
        <time>2012-11-13T13:48:19Z</time>
      </trkpt>
      <trkpt lat="49.20752" lon="6.37766">
        <ele>334.1954346</ele>
        <time>2012-11-13T13:48:27Z</time>
      </trkpt>
      <trkpt lat="49.20744" lon="6.37775">
        <ele>334.1954346</ele>
        <time>2012-11-13T13:48:28Z</time>
      </trkpt>
      <trkpt lat="49.20718" lon="6.37801">
        <ele>332.2728271</ele>
        <time>2012-11-13T13:48:31Z</time>
      </trkpt>
      <trkpt lat="49.2069" lon="6.37829">
        <ele>328.4276123</ele>
        <time>2012-11-13T13:48:34Z</time>
      </trkpt>
      <trkpt lat="49.20681" lon="6.37839">
        <ele>328.4276123</ele>
        <time>2012-11-13T13:48:35Z</time>
      </trkpt>
      <trkpt lat="49.20608" lon="6.37911">
        <ele>328.4276123</ele>
        <time>2012-11-13T13:48:43Z</time>
      </trkpt>
      <trkpt lat="49.20582" lon="6.37936">
        <ele>328.9083252</ele>
        <time>2012-11-13T13:48:47Z</time>
      </trkpt>
      <trkpt lat="49.20567" lon="6.37954">
        <ele>331.3115234</ele>
        <time>2012-11-13T13:48:50Z</time>
      </trkpt>
      <trkpt lat="49.20548" lon="6.37975">
        <ele>333.7147217</ele>
        <time>2012-11-13T13:48:54Z</time>
      </trkpt>
      <trkpt lat="49.20519" lon="6.38016">
        <ele>337.0794678</ele>
        <time>2012-11-13T13:49:01Z</time>
      </trkpt>
      <trkpt lat="49.20503" lon="6.38038">
        <ele>339.0020752</ele>
        <time>2012-11-13T13:49:05Z</time>
      </trkpt>
      <trkpt lat="49.20499" lon="6.38044">
        <ele>339.0020752</ele>
        <time>2012-11-13T13:49:06Z</time>
      </trkpt>
      <trkpt lat="49.20467" lon="6.38087">
        <ele>339.9633789</ele>
        <time>2012-11-13T13:49:14Z</time>
      </trkpt>
      <trkpt lat="49.20433" lon="6.38136">
        <ele>339.9633789</ele>
        <time>2012-11-13T13:49:22Z</time>
      </trkpt>
      <trkpt lat="49.20406" lon="6.38175">
        <ele>337.0794678</ele>
        <time>2012-11-13T13:49:27Z</time>
      </trkpt>
      <trkpt lat="49.20402" lon="6.38184">
        <ele>337.0794678</ele>
        <time>2012-11-13T13:49:28Z</time>
      </trkpt>
      <trkpt lat="49.20383" lon="6.38231">
        <ele>333.2341309</ele>
        <time>2012-11-13T13:49:32Z</time>
      </trkpt>
      <trkpt lat="49.20379" lon="6.38244">
        <ele>333.7147217</ele>
        <time>2012-11-13T13:49:33Z</time>
      </trkpt>
      <trkpt lat="49.20363" lon="6.38303">
        <ele>329.8695068</ele>
        <time>2012-11-13T13:49:37Z</time>
      </trkpt>
      <trkpt lat="49.20343" lon="6.38371">
        <ele>327.4661865</ele>
        <time>2012-11-13T13:49:41Z</time>
      </trkpt>
      <trkpt lat="49.20313" lon="6.38466">
        <ele>326.0241699</ele>
        <time>2012-11-13T13:49:47Z</time>
      </trkpt>
      <trkpt lat="49.20288" lon="6.38539">
        <ele>325.0629883</ele>
        <time>2012-11-13T13:49:52Z</time>
      </trkpt>
      <trkpt lat="49.20276" lon="6.38579">
        <ele>322.659668</ele>
        <time>2012-11-13T13:49:55Z</time>
      </trkpt>
      <trkpt lat="49.2026" lon="6.38665">
        <ele>320.7370605</ele>
        <time>2012-11-13T13:50:01Z</time>
      </trkpt>
      <trkpt lat="49.20242" lon="6.38737">
        <ele>316.8917236</ele>
        <time>2012-11-13T13:50:06Z</time>
      </trkpt>
      <trkpt lat="49.20234" lon="6.38765">
        <ele>315.9304199</ele>
        <time>2012-11-13T13:50:08Z</time>
      </trkpt>
      <trkpt lat="49.20215" lon="6.38824">
        <ele>313.0465088</ele>
        <time>2012-11-13T13:50:12Z</time>
      </trkpt>
      <trkpt lat="49.20191" lon="6.38888">
        <ele>309.2011719</ele>
        <time>2012-11-13T13:50:16Z</time>
      </trkpt>
      <trkpt lat="49.20157" lon="6.38946">
        <ele>308.720459</ele>
        <time>2012-11-13T13:50:20Z</time>
      </trkpt>
      <trkpt lat="49.20117" lon="6.39007">
        <ele>308.720459</ele>
        <time>2012-11-13T13:50:25Z</time>
      </trkpt>
      <trkpt lat="49.20098" lon="6.39036">
        <ele>310.6430664</ele>
        <time>2012-11-13T13:50:28Z</time>
      </trkpt>
      <trkpt lat="49.20066" lon="6.39088">
        <ele>308.720459</ele>
        <time>2012-11-13T13:50:34Z</time>
      </trkpt>
      <trkpt lat="49.20029" lon="6.3915">
        <ele>305.8366699</ele>
        <time>2012-11-13T13:50:40Z</time>
      </trkpt>
      <trkpt lat="49.19997" lon="6.39206">
        <ele>301.991333</ele>
        <time>2012-11-13T13:50:45Z</time>
      </trkpt>
      <trkpt lat="49.19967" lon="6.39252">
        <ele>300.0687256</ele>
        <time>2012-11-13T13:50:49Z</time>
      </trkpt>
      <trkpt lat="49.1993" lon="6.39278">
        <ele>300.5493164</ele>
        <time>2012-11-13T13:50:53Z</time>
      </trkpt>
      <trkpt lat="49.1992" lon="6.3928">
        <ele>300.5493164</ele>
        <time>2012-11-13T13:50:54Z</time>
      </trkpt>
      <trkpt lat="49.19875" lon="6.39302">
        <ele>303.4332275</ele>
        <time>2012-11-13T13:51:00Z</time>
      </trkpt>
      <trkpt lat="49.1984" lon="6.39327">
        <ele>304.3946533</ele>
        <time>2012-11-13T13:51:06Z</time>
      </trkpt>
      <trkpt lat="49.19789" lon="6.39363">
        <ele>303.9139404</ele>
        <time>2012-11-13T13:51:15Z</time>
      </trkpt>
      <trkpt lat="49.19748" lon="6.39394">
        <ele>304.3946533</ele>
        <time>2012-11-13T13:51:22Z</time>
      </trkpt>
      <trkpt lat="49.19709" lon="6.39423">
        <ele>303.9139404</ele>
        <time>2012-11-13T13:51:29Z</time>
      </trkpt>
      <trkpt lat="49.19673" lon="6.3945">
        <ele>304.3946533</ele>
        <time>2012-11-13T13:51:36Z</time>
      </trkpt>
      <trkpt lat="49.19668" lon="6.39454">
        <ele>305.355957</ele>
        <time>2012-11-13T13:51:37Z</time>
      </trkpt>
      <trkpt lat="49.19659" lon="6.39461">
        <ele>305.355957</ele>
        <time>2012-11-13T13:51:39Z</time>
      </trkpt>
      <trkpt lat="49.19653" lon="6.39464">
        <ele>304.8752441</ele>
        <time>2012-11-13T13:51:40Z</time>
      </trkpt>
      <trkpt lat="49.19623" lon="6.39486">
        <ele>304.3946533</ele>
        <time>2012-11-13T13:51:45Z</time>
      </trkpt>
      <trkpt lat="49.19594" lon="6.39509">
        <ele>302.4719238</ele>
        <time>2012-11-13T13:51:49Z</time>
      </trkpt>
      <trkpt lat="49.1955" lon="6.39544">
        <ele>299.5880127</ele>
        <time>2012-11-13T13:51:54Z</time>
      </trkpt>
      <trkpt lat="49.19498" lon="6.39582">
        <ele>300.0687256</ele>
        <time>2012-11-13T13:52:00Z</time>
      </trkpt>
      <trkpt lat="49.19489" lon="6.39589">
        <ele>300.0687256</ele>
        <time>2012-11-13T13:52:01Z</time>
      </trkpt>
      <trkpt lat="49.19466" lon="6.39632">
        <ele>300.0687256</ele>
        <time>2012-11-13T13:52:05Z</time>
      </trkpt>
      <trkpt lat="49.19464" lon="6.3968">
        <ele>299.1072998</ele>
        <time>2012-11-13T13:52:09Z</time>
      </trkpt>
      <trkpt lat="49.19464" lon="6.39702">
        <ele>299.1072998</ele>
        <time>2012-11-13T13:52:11Z</time>
      </trkpt>
      <trkpt lat="49.19452" lon="6.39739">
        <ele>300.0687256</ele>
        <time>2012-11-13T13:52:15Z</time>
      </trkpt>
      <trkpt lat="49.19429" lon="6.39763">
        <ele>300.0687256</ele>
        <time>2012-11-13T13:52:19Z</time>
      </trkpt>
      <trkpt lat="49.19402" lon="6.39771">
        <ele>299.1072998</ele>
        <time>2012-11-13T13:52:23Z</time>
      </trkpt>
      <trkpt lat="49.19338" lon="6.39763">
        <ele>297.1846924</ele>
        <time>2012-11-13T13:52:31Z</time>
      </trkpt>
      <trkpt lat="49.19317" lon="6.39759">
        <ele>295.2619629</ele>
        <time>2012-11-13T13:52:34Z</time>
      </trkpt>
      <trkpt lat="49.19289" lon="6.39767">
        <ele>295.2619629</ele>
        <time>2012-11-13T13:52:38Z</time>
      </trkpt>
      <trkpt lat="49.19273" lon="6.39788">
        <ele>294.3007813</ele>
        <time>2012-11-13T13:52:41Z</time>
      </trkpt>
      <trkpt lat="49.19265" lon="6.39812">
        <ele>294.7813721</ele>
        <time>2012-11-13T13:52:44Z</time>
      </trkpt>
      <trkpt lat="49.19264" lon="6.39871">
        <ele>293.8200684</ele>
        <time>2012-11-13T13:52:50Z</time>
      </trkpt>
      <trkpt lat="49.19266" lon="6.39881">
        <ele>293.8200684</ele>
        <time>2012-11-13T13:52:51Z</time>
      </trkpt>
      <trkpt lat="49.19271" lon="6.39892">
        <ele>293.8200684</ele>
        <time>2012-11-13T13:52:52Z</time>
      </trkpt>
      <trkpt lat="49.19285" lon="6.39939">
        <ele>292.8587646</ele>
        <time>2012-11-13T13:52:56Z</time>
      </trkpt>
      <trkpt lat="49.19291" lon="6.40003">
        <ele>292.8587646</ele>
        <time>2012-11-13T13:53:01Z</time>
      </trkpt>
      <trkpt lat="49.19293" lon="6.4007">
        <ele>293.3393555</ele>
        <time>2012-11-13T13:53:07Z</time>
      </trkpt>
      <trkpt lat="49.19293" lon="6.40111">
        <ele>292.3781738</ele>
        <time>2012-11-13T13:53:11Z</time>
      </trkpt>
      <trkpt lat="49.19294" lon="6.40121">
        <ele>292.8587646</ele>
        <time>2012-11-13T13:53:12Z</time>
      </trkpt>
      <trkpt lat="49.19303" lon="6.40171">
        <ele>292.3781738</ele>
        <time>2012-11-13T13:53:17Z</time>
      </trkpt>
      <trkpt lat="49.19322" lon="6.40231">
        <ele>291.416748</ele>
        <time>2012-11-13T13:53:23Z</time>
      </trkpt>
      <trkpt lat="49.19334" lon="6.40296">
        <ele>289.4941406</ele>
        <time>2012-11-13T13:53:29Z</time>
      </trkpt>
      <trkpt lat="49.19343" lon="6.40369">
        <ele>288.0522461</ele>
        <time>2012-11-13T13:53:35Z</time>
      </trkpt>
      <trkpt lat="49.19351" lon="6.40418">
        <ele>283.7261963</ele>
        <time>2012-11-13T13:53:39Z</time>
      </trkpt>
      <trkpt lat="49.19352" lon="6.40431">
        <ele>283.7261963</ele>
        <time>2012-11-13T13:53:40Z</time>
      </trkpt>
      <trkpt lat="49.19346" lon="6.4048">
        <ele>281.8035889</ele>
        <time>2012-11-13T13:53:44Z</time>
      </trkpt>
      <trkpt lat="49.19334" lon="6.40502">
        <ele>281.322998</ele>
        <time>2012-11-13T13:53:46Z</time>
      </trkpt>
      <trkpt lat="49.19319" lon="6.40523">
        <ele>279.8808594</ele>
        <time>2012-11-13T13:53:48Z</time>
      </trkpt>
      <trkpt lat="49.19275" lon="6.40579">
        <ele>276.0356445</ele>
        <time>2012-11-13T13:53:53Z</time>
      </trkpt>
      <trkpt lat="49.19231" lon="6.40639">
        <ele>271.7097168</ele>
        <time>2012-11-13T13:53:58Z</time>
      </trkpt>
      <trkpt lat="49.19204" lon="6.40674">
        <ele>268.3450928</ele>
        <time>2012-11-13T13:54:01Z</time>
      </trkpt>
      <trkpt lat="49.19187" lon="6.40697">
        <ele>267.3839111</ele>
        <time>2012-11-13T13:54:03Z</time>
      </trkpt>
      <trkpt lat="49.19162" lon="6.4073">
        <ele>265.4613037</ele>
        <time>2012-11-13T13:54:06Z</time>
      </trkpt>
      <trkpt lat="49.19115" lon="6.40794">
        <ele>260.654541</ele>
        <time>2012-11-13T13:54:12Z</time>
      </trkpt>
      <trkpt lat="49.19079" lon="6.40843">
        <ele>258.7319336</ele>
        <time>2012-11-13T13:54:17Z</time>
      </trkpt>
      <trkpt lat="49.19061" lon="6.40897">
        <ele>254.4060059</ele>
        <time>2012-11-13T13:54:21Z</time>
      </trkpt>
      <trkpt lat="49.1906" lon="6.40944">
        <ele>253.4447021</ele>
        <time>2012-11-13T13:54:24Z</time>
      </trkpt>
      <trkpt lat="49.19062" lon="6.40988">
        <ele>248.1575928</ele>
        <time>2012-11-13T13:54:27Z</time>
      </trkpt>
      <trkpt lat="49.19064" lon="6.41037">
        <ele>244.3122559</ele>
        <time>2012-11-13T13:54:31Z</time>
      </trkpt>
      <trkpt lat="49.19067" lon="6.41068">
        <ele>241.4282227</ele>
        <time>2012-11-13T13:54:34Z</time>
      </trkpt>
      <trkpt lat="49.1907" lon="6.41086">
        <ele>240.467041</ele>
        <time>2012-11-13T13:54:36Z</time>
      </trkpt>
      <trkpt lat="49.19062" lon="6.41107">
        <ele>240.467041</ele>
        <time>2012-11-13T13:54:39Z</time>
      </trkpt>
      <trkpt lat="49.1905" lon="6.41111">
        <ele>239.9862061</ele>
        <time>2012-11-13T13:54:41Z</time>
      </trkpt>
      <trkpt lat="49.18998" lon="6.41124">
        <ele>240.467041</ele>
        <time>2012-11-13T13:54:49Z</time>
      </trkpt>
      <trkpt lat="49.18964" lon="6.41132">
        <ele>240.467041</ele>
        <time>2012-11-13T13:54:54Z</time>
      </trkpt>
      <trkpt lat="49.18938" lon="6.41138">
        <ele>240.467041</ele>
        <time>2012-11-13T13:54:58Z</time>
      </trkpt>
      <trkpt lat="49.18917" lon="6.41125">
        <ele>240.9476318</ele>
        <time>2012-11-13T13:55:02Z</time>
      </trkpt>
      <trkpt lat="49.18913" lon="6.41111">
        <ele>241.4282227</ele>
        <time>2012-11-13T13:55:04Z</time>
      </trkpt>
      <trkpt lat="49.18908" lon="6.41079">
        <ele>243.3508301</ele>
        <time>2012-11-13T13:55:10Z</time>
      </trkpt>
      <trkpt lat="49.18903" lon="6.41045">
        <ele>245.7541504</ele>
        <time>2012-11-13T13:55:18Z</time>
      </trkpt>
      <trkpt lat="49.18902" lon="6.41034">
        <ele>246.7154541</ele>
        <time>2012-11-13T13:55:21Z</time>
      </trkpt>
      <trkpt lat="49.18902" lon="6.4103">
        <ele>247.1960449</ele>
        <time>2012-11-13T13:55:22Z</time>
      </trkpt>
      <trkpt lat="49.18898" lon="6.41009">
        <ele>249.5994873</ele>
        <time>2012-11-13T13:55:28Z</time>
      </trkpt>
      <trkpt lat="49.1889" lon="6.40986">
        <ele>251.0413818</ele>
        <time>2012-11-13T13:55:35Z</time>
      </trkpt>
      <trkpt lat="49.18876" lon="6.40958">
        <ele>252.9639893</ele>
        <time>2012-11-13T13:55:43Z</time>
      </trkpt>
      <trkpt lat="49.18855" lon="6.40922">
        <ele>254.4060059</ele>
        <time>2012-11-13T13:55:54Z</time>
      </trkpt>
      <trkpt lat="49.18838" lon="6.40898">
        <ele>255.8480225</ele>
        <time>2012-11-13T13:56:03Z</time>
      </trkpt>
      <trkpt lat="49.18823" lon="6.40873">
        <ele>258.2513428</ele>
        <time>2012-11-13T13:56:12Z</time>
      </trkpt>
      <trkpt lat="49.18804" lon="6.40844">
        <ele>261.1352539</ele>
        <time>2012-11-13T13:56:22Z</time>
      </trkpt>
      <trkpt lat="49.18783" lon="6.40813">
        <ele>261.6159668</ele>
        <time>2012-11-13T13:56:33Z</time>
      </trkpt>
      <trkpt lat="49.18774" lon="6.40798">
        <ele>263.5385742</ele>
        <time>2012-11-13T13:56:38Z</time>
      </trkpt>
      <trkpt lat="49.18757" lon="6.40772">
        <ele>264.9805908</ele>
        <time>2012-11-13T13:56:47Z</time>
      </trkpt>
      <trkpt lat="49.18756" lon="6.40769">
        <ele>264.9805908</ele>
        <time>2012-11-13T13:56:48Z</time>
      </trkpt>
      <trkpt lat="49.18748" lon="6.40754">
        <ele>265.9418945</ele>
        <time>2012-11-13T13:56:53Z</time>
      </trkpt>
      <trkpt lat="49.18746" lon="6.40751">
        <ele>265.4613037</ele>
        <time>2012-11-13T13:56:54Z</time>
      </trkpt>
      <trkpt lat="49.18735" lon="6.40726">
        <ele>267.864502</ele>
        <time>2012-11-13T13:57:02Z</time>
      </trkpt>
      <trkpt lat="49.18728" lon="6.40704">
        <ele>269.3065186</ele>
        <time>2012-11-13T13:57:09Z</time>
      </trkpt>
      <trkpt lat="49.18718" lon="6.40677">
        <ele>270.2677002</ele>
        <time>2012-11-13T13:57:17Z</time>
      </trkpt>
      <trkpt lat="49.18707" lon="6.40651">
        <ele>271.7097168</ele>
        <time>2012-11-13T13:57:24Z</time>
      </trkpt>
      <trkpt lat="49.18699" lon="6.40624">
        <ele>273.6324463</ele>
        <time>2012-11-13T13:57:31Z</time>
      </trkpt>
      <trkpt lat="49.1869" lon="6.40596">
        <ele>274.59375</ele>
        <time>2012-11-13T13:57:39Z</time>
      </trkpt>
      <trkpt lat="49.18684" lon="6.4057">
        <ele>276.0356445</ele>
        <time>2012-11-13T13:57:45Z</time>
      </trkpt>
      <trkpt lat="49.18681" lon="6.40537">
        <ele>276.9970703</ele>
        <time>2012-11-13T13:57:53Z</time>
      </trkpt>
      <trkpt lat="49.18675" lon="6.40509">
        <ele>278.9196777</ele>
        <time>2012-11-13T13:58:00Z</time>
      </trkpt>
      <trkpt lat="49.18666" lon="6.40495">
        <ele>281.322998</ele>
        <time>2012-11-13T13:58:06Z</time>
      </trkpt>
      <trkpt lat="49.18654" lon="6.40493">
        <ele>282.2843018</ele>
        <time>2012-11-13T13:58:11Z</time>
      </trkpt>
      <trkpt lat="49.18649" lon="6.405">
        <ele>283.2456055</ele>
        <time>2012-11-13T13:58:15Z</time>
      </trkpt>
      <trkpt lat="49.18637" lon="6.40517">
        <ele>285.1682129</ele>
        <time>2012-11-13T13:58:22Z</time>
      </trkpt>
      <trkpt lat="49.18629" lon="6.40529">
        <ele>286.1295166</ele>
        <time>2012-11-13T13:58:27Z</time>
      </trkpt>
      <trkpt lat="49.18612" lon="6.40543">
        <ele>287.0908203</ele>
        <time>2012-11-13T13:58:34Z</time>
      </trkpt>
      <trkpt lat="49.18601" lon="6.40549">
        <ele>288.0522461</ele>
        <time>2012-11-13T13:58:40Z</time>
      </trkpt>
      <trkpt lat="49.18584" lon="6.4055">
        <ele>289.4941406</ele>
        <time>2012-11-13T13:58:46Z</time>
      </trkpt>
      <trkpt lat="49.18567" lon="6.40549">
        <ele>290.9361572</ele>
        <time>2012-11-13T13:58:52Z</time>
      </trkpt>
      <trkpt lat="49.18549" lon="6.40536">
        <ele>292.3781738</ele>
        <time>2012-11-13T13:58:58Z</time>
      </trkpt>
      <trkpt lat="49.18534" lon="6.4051">
        <ele>294.3007813</ele>
        <time>2012-11-13T13:59:05Z</time>
      </trkpt>
      <trkpt lat="49.1852" lon="6.40485">
        <ele>295.7426758</ele>
        <time>2012-11-13T13:59:12Z</time>
      </trkpt>
      <trkpt lat="49.18504" lon="6.40457">
        <ele>297.6654053</ele>
        <time>2012-11-13T13:59:21Z</time>
      </trkpt>
      <trkpt lat="49.1849" lon="6.40426">
        <ele>298.626709</ele>
        <time>2012-11-13T13:59:29Z</time>
      </trkpt>
      <trkpt lat="49.18482" lon="6.40396">
        <ele>297.1846924</ele>
        <time>2012-11-13T13:59:35Z</time>
      </trkpt>
      <trkpt lat="49.18477" lon="6.40369">
        <ele>296.2235107</ele>
        <time>2012-11-13T13:59:41Z</time>
      </trkpt>
      <trkpt lat="49.18473" lon="6.40341">
        <ele>294.7813721</ele>
        <time>2012-11-13T13:59:46Z</time>
      </trkpt>
      <trkpt lat="49.1847" lon="6.40329">
        <ele>294.3007813</ele>
        <time>2012-11-13T13:59:52Z</time>
      </trkpt>
      <trkpt lat="49.18469" lon="6.40324">
        <ele>294.7813721</ele>
        <time>2012-11-13T14:00:09Z</time>
      </trkpt>
      <trkpt lat="49.18469" lon="6.40325">
        <ele>294.7813721</ele>
        <time>2012-11-13T14:00:10Z</time>
      </trkpt>
      <trkpt lat="49.18468" lon="6.40326">
        <ele>294.7813721</ele>
        <time>2012-11-13T14:00:12Z</time>
      </trkpt>
      <trkpt lat="49.18466" lon="6.40327">
        <ele>294.7813721</ele>
        <time>2012-11-13T14:00:15Z</time>
      </trkpt>
      <trkpt lat="49.18465" lon="6.40328">
        <ele>294.7813721</ele>
        <time>2012-11-13T14:00:16Z</time>
      </trkpt>
      <trkpt lat="49.18462" lon="6.40329">
        <ele>294.3007813</ele>
        <time>2012-11-13T14:00:17Z</time>
      </trkpt>
      <trkpt lat="49.18468" lon="6.40327">
        <ele>294.7813721</ele>
        <time>2012-11-13T14:00:40Z</time>
      </trkpt>
      <trkpt lat="49.18468" lon="6.40326">
        <ele>294.7813721</ele>
        <time>2012-11-13T14:00:41Z</time>
      </trkpt>
      <trkpt lat="49.18469" lon="6.40326">
        <ele>294.3007813</ele>
        <time>2012-11-13T14:00:42Z</time>
      </trkpt>
      <trkpt lat="49.18469" lon="6.40325">
        <ele>294.7813721</ele>
        <time>2012-11-13T14:00:45Z</time>
      </trkpt>
      <trkpt lat="49.18471" lon="6.4032">
        <ele>294.3007813</ele>
        <time>2012-11-13T14:00:47Z</time>
      </trkpt>
      <trkpt lat="49.1847" lon="6.40319">
        <ele>294.3007813</ele>
        <time>2012-11-13T14:00:49Z</time>
      </trkpt>
      <trkpt lat="49.18471" lon="6.40319">
        <ele>293.8200684</ele>
        <time>2012-11-13T14:00:52Z</time>
      </trkpt>
      <trkpt lat="49.18472" lon="6.40319">
        <ele>293.3393555</ele>
        <time>2012-11-13T14:00:53Z</time>
      </trkpt>
      <trkpt lat="49.18468" lon="6.40324">
        <ele>294.3007813</ele>
        <time>2012-11-13T14:01:11Z</time>
      </trkpt>
      <trkpt lat="49.18467" lon="6.40325">
        <ele>293.8200684</ele>
        <time>2012-11-13T14:01:12Z</time>
      </trkpt>
      <trkpt lat="49.18466" lon="6.40333">
        <ele>293.8200684</ele>
        <time>2012-11-13T14:01:15Z</time>
      </trkpt>
      <trkpt lat="49.18465" lon="6.40334">
        <ele>294.7813721</ele>
        <time>2012-11-13T14:01:18Z</time>
      </trkpt>
      <trkpt lat="49.18463" lon="6.40347">
        <ele>294.3007813</ele>
        <time>2012-11-13T14:01:23Z</time>
      </trkpt>
      <trkpt lat="49.18464" lon="6.40359">
        <ele>294.3007813</ele>
        <time>2012-11-13T14:01:27Z</time>
      </trkpt>
      <trkpt lat="49.18464" lon="6.40361">
        <ele>294.3007813</ele>
        <time>2012-11-13T14:01:30Z</time>
      </trkpt>
      <trkpt lat="49.18465" lon="6.40362">
        <ele>294.7813721</ele>
        <time>2012-11-13T14:01:31Z</time>
      </trkpt>
      <trkpt lat="49.18466" lon="6.40363">
        <ele>294.7813721</ele>
        <time>2012-11-13T14:01:32Z</time>
      </trkpt>
      <trkpt lat="49.18468" lon="6.40361">
        <ele>294.7813721</ele>
        <time>2012-11-13T14:01:37Z</time>
      </trkpt>
      <trkpt lat="49.18468" lon="6.40358">
        <ele>294.7813721</ele>
        <time>2012-11-13T14:01:38Z</time>
      </trkpt>
      <trkpt lat="49.18463" lon="6.40331">
        <ele>297.1846924</ele>
        <time>2012-11-13T14:03:29Z</time>
      </trkpt>
      <trkpt lat="49.18462" lon="6.40331">
        <ele>297.1846924</ele>
        <time>2012-11-13T14:03:30Z</time>
      </trkpt>
      <trkpt lat="49.18461" lon="6.40328">
        <ele>297.1846924</ele>
        <time>2012-11-13T14:03:32Z</time>
      </trkpt>
      <trkpt lat="49.18461" lon="6.40327">
        <ele>297.1846924</ele>
        <time>2012-11-13T14:03:35Z</time>
      </trkpt>
      <trkpt lat="49.18461" lon="6.40325">
        <ele>296.7041016</ele>
        <time>2012-11-13T14:03:36Z</time>
      </trkpt>
      <trkpt lat="49.18466" lon="6.403">
        <ele>296.2235107</ele>
        <time>2012-11-13T14:03:41Z</time>
      </trkpt>
      <trkpt lat="49.18466" lon="6.40273">
        <ele>295.7426758</ele>
        <time>2012-11-13T14:03:45Z</time>
      </trkpt>
      <trkpt lat="49.18462" lon="6.40228">
        <ele>293.3393555</ele>
        <time>2012-11-13T14:03:50Z</time>
      </trkpt>
      <trkpt lat="49.18461" lon="6.40201">
        <ele>292.3781738</ele>
        <time>2012-11-13T14:03:52Z</time>
      </trkpt>
      <trkpt lat="49.18462" lon="6.40139">
        <ele>289.4941406</ele>
        <time>2012-11-13T14:03:56Z</time>
      </trkpt>
      <trkpt lat="49.18468" lon="6.40116">
        <ele>288.532959</ele>
        <time>2012-11-13T14:03:58Z</time>
      </trkpt>
      <trkpt lat="49.18484" lon="6.40092">
        <ele>286.6102295</ele>
        <time>2012-11-13T14:04:01Z</time>
      </trkpt>
      <trkpt lat="49.18506" lon="6.40071">
        <ele>284.6876221</ele>
        <time>2012-11-13T14:04:04Z</time>
      </trkpt>
      <trkpt lat="49.18521" lon="6.40044">
        <ele>283.7261963</ele>
        <time>2012-11-13T14:04:07Z</time>
      </trkpt>
      <trkpt lat="49.18526" lon="6.40021">
        <ele>282.7650146</ele>
        <time>2012-11-13T14:04:10Z</time>
      </trkpt>
      <trkpt lat="49.18507" lon="6.39998">
        <ele>282.7650146</ele>
        <time>2012-11-13T14:04:13Z</time>
      </trkpt>
      <trkpt lat="49.1846" lon="6.39972">
        <ele>279.4002686</ele>
        <time>2012-11-13T14:04:19Z</time>
      </trkpt>
      <trkpt lat="49.18452" lon="6.39968">
        <ele>279.8808594</ele>
        <time>2012-11-13T14:04:20Z</time>
      </trkpt>
      <trkpt lat="49.18412" lon="6.39942">
        <ele>277.4776611</ele>
        <time>2012-11-13T14:04:25Z</time>
      </trkpt>
      <trkpt lat="49.18375" lon="6.39885">
        <ele>275.5550537</ele>
        <time>2012-11-13T14:04:31Z</time>
      </trkpt>
      <trkpt lat="49.18322" lon="6.39787">
        <ele>273.1518555</ele>
        <time>2012-11-13T14:04:40Z</time>
      </trkpt>
      <trkpt lat="49.18273" lon="6.39699">
        <ele>269.7871094</ele>
        <time>2012-11-13T14:04:48Z</time>
      </trkpt>
      <trkpt lat="49.18267" lon="6.39687">
        <ele>270.2677002</ele>
        <time>2012-11-13T14:04:49Z</time>
      </trkpt>
      <trkpt lat="49.18216" lon="6.39596">
        <ele>267.3839111</ele>
        <time>2012-11-13T14:04:57Z</time>
      </trkpt>
      <trkpt lat="49.18199" lon="6.39564">
        <ele>265.9418945</ele>
        <time>2012-11-13T14:05:00Z</time>
      </trkpt>
      <trkpt lat="49.18167" lon="6.39492">
        <ele>264.9805908</ele>
        <time>2012-11-13T14:05:06Z</time>
      </trkpt>
      <trkpt lat="49.18151" lon="6.39425">
        <ele>262.0965576</ele>
        <time>2012-11-13T14:05:11Z</time>
      </trkpt>
      <trkpt lat="49.18149" lon="6.39412">
        <ele>262.0965576</ele>
        <time>2012-11-13T14:05:12Z</time>
      </trkpt>
      <trkpt lat="49.18134" lon="6.39335">
        <ele>261.6159668</ele>
        <time>2012-11-13T14:05:18Z</time>
      </trkpt>
      <trkpt lat="49.18116" lon="6.39238">
        <ele>260.1739502</ele>
        <time>2012-11-13T14:05:26Z</time>
      </trkpt>
      <trkpt lat="49.18098" lon="6.39145">
        <ele>260.1739502</ele>
        <time>2012-11-13T14:05:34Z</time>
      </trkpt>
      <trkpt lat="49.1808" lon="6.39047">
        <ele>257.770752</ele>
        <time>2012-11-13T14:05:42Z</time>
      </trkpt>
      <trkpt lat="49.18059" lon="6.38953">
        <ele>256.3287354</ele>
        <time>2012-11-13T14:05:50Z</time>
      </trkpt>
      <trkpt lat="49.18027" lon="6.38846">
        <ele>255.3673096</ele>
        <time>2012-11-13T14:05:59Z</time>
      </trkpt>
      <trkpt lat="49.17997" lon="6.38742">
        <ele>253.4447021</ele>
        <time>2012-11-13T14:06:08Z</time>
      </trkpt>
      <trkpt lat="49.17967" lon="6.38638">
        <ele>252.4833984</ele>
        <time>2012-11-13T14:06:17Z</time>
      </trkpt>
      <trkpt lat="49.17946" lon="6.38565">
        <ele>249.1187744</ele>
        <time>2012-11-13T14:06:23Z</time>
      </trkpt>
      <trkpt lat="49.17942" lon="6.38552">
        <ele>248.6381836</ele>
        <time>2012-11-13T14:06:24Z</time>
      </trkpt>
      <trkpt lat="49.17916" lon="6.38462">
        <ele>247.6767578</ele>
        <time>2012-11-13T14:06:31Z</time>
      </trkpt>
      <trkpt lat="49.17908" lon="6.38438">
        <ele>247.1960449</ele>
        <time>2012-11-13T14:06:33Z</time>
      </trkpt>
      <trkpt lat="49.17876" lon="6.38391">
        <ele>247.1960449</ele>
        <time>2012-11-13T14:06:38Z</time>
      </trkpt>
      <trkpt lat="49.17851" lon="6.38369">
        <ele>242.8702393</ele>
        <time>2012-11-13T14:06:41Z</time>
      </trkpt>
      <trkpt lat="49.17816" lon="6.38339">
        <ele>239.9862061</ele>
        <time>2012-11-13T14:06:45Z</time>
      </trkpt>
      <trkpt lat="49.17787" lon="6.38314">
        <ele>237.1022949</ele>
        <time>2012-11-13T14:06:48Z</time>
      </trkpt>
      <trkpt lat="49.17767" lon="6.38297">
        <ele>236.1409912</ele>
        <time>2012-11-13T14:06:50Z</time>
      </trkpt>
      <trkpt lat="49.17737" lon="6.38272">
        <ele>232.2957764</ele>
        <time>2012-11-13T14:06:53Z</time>
      </trkpt>
      <trkpt lat="49.17728" lon="6.38265">
        <ele>233.7376709</ele>
        <time>2012-11-13T14:06:54Z</time>
      </trkpt>
      <trkpt lat="49.17701" lon="6.38224">
        <ele>231.8149414</ele>
        <time>2012-11-13T14:06:58Z</time>
      </trkpt>
      <trkpt lat="49.17698" lon="6.38197">
        <ele>232.7764893</ele>
        <time>2012-11-13T14:07:00Z</time>
      </trkpt>
      <trkpt lat="49.17695" lon="6.38168">
        <ele>233.7376709</ele>
        <time>2012-11-13T14:07:02Z</time>
      </trkpt>
      <trkpt lat="49.17687" lon="6.38104">
        <ele>235.6602783</ele>
        <time>2012-11-13T14:07:07Z</time>
      </trkpt>
      <trkpt lat="49.17679" lon="6.38043">
        <ele>237.1022949</ele>
        <time>2012-11-13T14:07:13Z</time>
      </trkpt>
      <trkpt lat="49.17673" lon="6.37984">
        <ele>239.5054932</ele>
        <time>2012-11-13T14:07:20Z</time>
      </trkpt>
      <trkpt lat="49.17666" lon="6.37934">
        <ele>242.8702393</ele>
        <time>2012-11-13T14:07:26Z</time>
      </trkpt>
      <trkpt lat="49.1766" lon="6.37883">
        <ele>245.7541504</ele>
        <time>2012-11-13T14:07:33Z</time>
      </trkpt>
      <trkpt lat="49.17656" lon="6.37863">
        <ele>246.2348633</ele>
        <time>2012-11-13T14:07:36Z</time>
      </trkpt>
      <trkpt lat="49.17655" lon="6.37856">
        <ele>246.2348633</ele>
        <time>2012-11-13T14:07:37Z</time>
      </trkpt>
      <trkpt lat="49.17645" lon="6.37829">
        <ele>246.7154541</ele>
        <time>2012-11-13T14:07:41Z</time>
      </trkpt>
      <trkpt lat="49.1762" lon="6.37773">
        <ele>246.7154541</ele>
        <time>2012-11-13T14:07:49Z</time>
      </trkpt>
      <trkpt lat="49.17594" lon="6.37715">
        <ele>246.2348633</ele>
        <time>2012-11-13T14:07:57Z</time>
      </trkpt>
      <trkpt lat="49.17566" lon="6.37649">
        <ele>245.7541504</ele>
        <time>2012-11-13T14:08:05Z</time>
      </trkpt>
      <trkpt lat="49.1754" lon="6.37592">
        <ele>244.3122559</ele>
        <time>2012-11-13T14:08:11Z</time>
      </trkpt>
      <trkpt lat="49.175" lon="6.37525">
        <ele>241.9089355</ele>
        <time>2012-11-13T14:08:18Z</time>
      </trkpt>
      <trkpt lat="49.17438" lon="6.3743">
        <ele>239.5054932</ele>
        <time>2012-11-13T14:08:28Z</time>
      </trkpt>
      <trkpt lat="49.17425" lon="6.37409">
        <ele>238.5443115</ele>
        <time>2012-11-13T14:08:30Z</time>
      </trkpt>
      <trkpt lat="49.17374" lon="6.37333">
        <ele>235.6602783</ele>
        <time>2012-11-13T14:08:37Z</time>
      </trkpt>
      <trkpt lat="49.17339" lon="6.37298">
        <ele>235.6602783</ele>
        <time>2012-11-13T14:08:41Z</time>
      </trkpt>
      <trkpt lat="49.17268" lon="6.37244">
        <ele>234.2183838</ele>
        <time>2012-11-13T14:08:49Z</time>
      </trkpt>
      <trkpt lat="49.17201" lon="6.37197">
        <ele>231.8149414</ele>
        <time>2012-11-13T14:08:57Z</time>
      </trkpt>
      <trkpt lat="49.17134" lon="6.37148">
        <ele>228.9311523</ele>
        <time>2012-11-13T14:09:05Z</time>
      </trkpt>
      <trkpt lat="49.171" lon="6.37123">
        <ele>228.4504395</ele>
        <time>2012-11-13T14:09:10Z</time>
      </trkpt>
      <trkpt lat="49.17071" lon="6.37121">
        <ele>227.4891357</ele>
        <time>2012-11-13T14:09:14Z</time>
      </trkpt>
      <trkpt lat="49.17048" lon="6.37127">
        <ele>226.0471191</ele>
        <time>2012-11-13T14:09:17Z</time>
      </trkpt>
      <trkpt lat="49.17018" lon="6.37117">
        <ele>222.6824951</ele>
        <time>2012-11-13T14:09:21Z</time>
      </trkpt>
      <trkpt lat="49.17006" lon="6.37098">
        <ele>222.6824951</ele>
        <time>2012-11-13T14:09:23Z</time>
      </trkpt>
      <trkpt lat="49.16952" lon="6.36994">
        <ele>223.163208</ele>
        <time>2012-11-13T14:09:33Z</time>
      </trkpt>
      <trkpt lat="49.1692" lon="6.36933">
        <ele>224.6052246</ele>
        <time>2012-11-13T14:09:40Z</time>
      </trkpt>
      <trkpt lat="49.16895" lon="6.36887">
        <ele>227.4891357</ele>
        <time>2012-11-13T14:09:47Z</time>
      </trkpt>
      <trkpt lat="49.16869" lon="6.3684">
        <ele>230.3730469</ele>
        <time>2012-11-13T14:09:55Z</time>
      </trkpt>
      <trkpt lat="49.16845" lon="6.368">
        <ele>231.8149414</ele>
        <time>2012-11-13T14:10:03Z</time>
      </trkpt>
      <trkpt lat="49.16834" lon="6.36808">
        <ele>231.8149414</ele>
        <time>2012-11-13T14:10:07Z</time>
      </trkpt>
      <trkpt lat="49.16814" lon="6.36862">
        <ele>232.2957764</ele>
        <time>2012-11-13T14:10:15Z</time>
      </trkpt>
      <trkpt lat="49.16812" lon="6.3687">
        <ele>232.2957764</ele>
        <time>2012-11-13T14:10:16Z</time>
      </trkpt>
      <trkpt lat="49.16805" lon="6.36926">
        <ele>233.2570801</ele>
        <time>2012-11-13T14:10:23Z</time>
      </trkpt>
      <trkpt lat="49.16795" lon="6.36983">
        <ele>234.2183838</ele>
        <time>2012-11-13T14:10:31Z</time>
      </trkpt>
      <trkpt lat="49.16779" lon="6.37045">
        <ele>233.7376709</ele>
        <time>2012-11-13T14:10:39Z</time>
      </trkpt>
      <trkpt lat="49.16758" lon="6.37091">
        <ele>232.7764893</ele>
        <time>2012-11-13T14:10:44Z</time>
      </trkpt>
      <trkpt lat="49.16724" lon="6.37142">
        <ele>232.7764893</ele>
        <time>2012-11-13T14:10:50Z</time>
      </trkpt>
      <trkpt lat="49.16682" lon="6.3719">
        <ele>231.8149414</ele>
        <time>2012-11-13T14:10:57Z</time>
      </trkpt>
      <trkpt lat="49.16658" lon="6.37237">
        <ele>231.3343506</ele>
        <time>2012-11-13T14:11:02Z</time>
      </trkpt>
      <trkpt lat="49.16645" lon="6.37273">
        <ele>229.892334</ele>
        <time>2012-11-13T14:11:05Z</time>
      </trkpt>
      <trkpt lat="49.16619" lon="6.37314">
        <ele>228.4504395</ele>
        <time>2012-11-13T14:11:09Z</time>
      </trkpt>
      <trkpt lat="49.16569" lon="6.37359">
        <ele>224.1245117</ele>
        <time>2012-11-13T14:11:15Z</time>
      </trkpt>
      <trkpt lat="49.16503" lon="6.37412">
        <ele>224.1245117</ele>
        <time>2012-11-13T14:11:23Z</time>
      </trkpt>
      <trkpt lat="49.16489" lon="6.37425">
        <ele>224.1245117</ele>
        <time>2012-11-13T14:11:25Z</time>
      </trkpt>
      <trkpt lat="49.16459" lon="6.37475">
        <ele>222.6824951</ele>
        <time>2012-11-13T14:11:31Z</time>
      </trkpt>
      <trkpt lat="49.16427" lon="6.37539">
        <ele>222.6824951</ele>
        <time>2012-11-13T14:11:39Z</time>
      </trkpt>
      <trkpt lat="49.16403" lon="6.37594">
        <ele>222.2017822</ele>
        <time>2012-11-13T14:11:45Z</time>
      </trkpt>
      <trkpt lat="49.16364" lon="6.37678">
        <ele>219.3179932</ele>
        <time>2012-11-13T14:11:53Z</time>
      </trkpt>
      <trkpt lat="49.16359" lon="6.37689">
        <ele>218.8372803</ele>
        <time>2012-11-13T14:11:54Z</time>
      </trkpt>
      <trkpt lat="49.16323" lon="6.37757">
        <ele>218.3565674</ele>
        <time>2012-11-13T14:12:01Z</time>
      </trkpt>
      <trkpt lat="49.16272" lon="6.37829">
        <ele>217.8759766</ele>
        <time>2012-11-13T14:12:10Z</time>
      </trkpt>
      <trkpt lat="49.16232" lon="6.37891">
        <ele>220.2791748</ele>
        <time>2012-11-13T14:12:18Z</time>
      </trkpt>
      <trkpt lat="49.16203" lon="6.3794">
        <ele>220.7598877</ele>
        <time>2012-11-13T14:12:25Z</time>
      </trkpt>
      <trkpt lat="49.16167" lon="6.37998">
        <ele>219.798584</ele>
        <time>2012-11-13T14:12:33Z</time>
      </trkpt>
      <trkpt lat="49.16126" lon="6.38064">
        <ele>221.7211914</ele>
        <time>2012-11-13T14:12:42Z</time>
      </trkpt>
      <trkpt lat="49.16098" lon="6.38106">
        <ele>224.6052246</ele>
        <time>2012-11-13T14:12:49Z</time>
      </trkpt>
      <trkpt lat="49.16072" lon="6.38123">
        <ele>226.527832</ele>
        <time>2012-11-13T14:12:54Z</time>
      </trkpt>
      <trkpt lat="49.16051" lon="6.38119">
        <ele>227.4891357</ele>
        <time>2012-11-13T14:12:58Z</time>
      </trkpt>
      <trkpt lat="49.16042" lon="6.38111">
        <ele>227.4891357</ele>
        <time>2012-11-13T14:13:00Z</time>
      </trkpt>
      <trkpt lat="49.16038" lon="6.38106">
        <ele>228.4504395</ele>
        <time>2012-11-13T14:13:01Z</time>
      </trkpt>
      <trkpt lat="49.16031" lon="6.38095">
        <ele>229.4117432</ele>
        <time>2012-11-13T14:13:03Z</time>
      </trkpt>
      <trkpt lat="49.16029" lon="6.38089">
        <ele>229.4117432</ele>
        <time>2012-11-13T14:13:04Z</time>
      </trkpt>
      <trkpt lat="49.16012" lon="6.3804">
        <ele>231.8149414</ele>
        <time>2012-11-13T14:13:12Z</time>
      </trkpt>
      <trkpt lat="49.15997" lon="6.37997">
        <ele>234.2183838</ele>
        <time>2012-11-13T14:13:20Z</time>
      </trkpt>
      <trkpt lat="49.15984" lon="6.37967">
        <ele>234.2183838</ele>
        <time>2012-11-13T14:13:26Z</time>
      </trkpt>
      <trkpt lat="49.15968" lon="6.37949">
        <ele>235.6602783</ele>
        <time>2012-11-13T14:13:31Z</time>
      </trkpt>
      <trkpt lat="49.15947" lon="6.37937">
        <ele>237.1022949</ele>
        <time>2012-11-13T14:13:37Z</time>
      </trkpt>
      <trkpt lat="49.1593" lon="6.3794">
        <ele>238.0635986</ele>
        <time>2012-11-13T14:13:42Z</time>
      </trkpt>
      <trkpt lat="49.15911" lon="6.37944">
        <ele>239.9862061</ele>
        <time>2012-11-13T14:13:48Z</time>
      </trkpt>
      <trkpt lat="49.15893" lon="6.37959">
        <ele>240.467041</ele>
        <time>2012-11-13T14:13:53Z</time>
      </trkpt>
      <trkpt lat="49.15868" lon="6.37975">
        <ele>241.9089355</ele>
        <time>2012-11-13T14:14:01Z</time>
      </trkpt>
      <trkpt lat="49.15845" lon="6.37996">
        <ele>243.831543</ele>
        <time>2012-11-13T14:14:09Z</time>
      </trkpt>
      <trkpt lat="49.15819" lon="6.38016">
        <ele>245.7541504</ele>
        <time>2012-11-13T14:14:17Z</time>
      </trkpt>
      <trkpt lat="49.15794" lon="6.38022">
        <ele>246.2348633</ele>
        <time>2012-11-13T14:14:24Z</time>
      </trkpt>
      <trkpt lat="49.15772" lon="6.3802">
        <ele>247.6767578</ele>
        <time>2012-11-13T14:14:31Z</time>
      </trkpt>
      <trkpt lat="49.15756" lon="6.38008">
        <ele>248.1575928</ele>
        <time>2012-11-13T14:14:36Z</time>
      </trkpt>
      <trkpt lat="49.15743" lon="6.37992">
        <ele>249.5994873</ele>
        <time>2012-11-13T14:14:41Z</time>
      </trkpt>
      <trkpt lat="49.15723" lon="6.37965">
        <ele>252.0028076</ele>
        <time>2012-11-13T14:14:49Z</time>
      </trkpt>
      <trkpt lat="49.15704" lon="6.37942">
        <ele>252.4833984</ele>
        <time>2012-11-13T14:14:57Z</time>
      </trkpt>
      <trkpt lat="49.15686" lon="6.37918">
        <ele>254.4060059</ele>
        <time>2012-11-13T14:15:04Z</time>
      </trkpt>
      <trkpt lat="49.15659" lon="6.37883">
        <ele>255.3673096</ele>
        <time>2012-11-13T14:15:14Z</time>
      </trkpt>
      <trkpt lat="49.15635" lon="6.37851">
        <ele>258.2513428</ele>
        <time>2012-11-13T14:15:23Z</time>
      </trkpt>
      <trkpt lat="49.15618" lon="6.37832">
        <ele>259.2126465</ele>
        <time>2012-11-13T14:15:29Z</time>
      </trkpt>
      <trkpt lat="49.15586" lon="6.37813">
        <ele>261.1352539</ele>
        <time>2012-11-13T14:15:38Z</time>
      </trkpt>
      <trkpt lat="49.15556" lon="6.37799">
        <ele>262.5771484</ele>
        <time>2012-11-13T14:15:46Z</time>
      </trkpt>
      <trkpt lat="49.15534" lon="6.3779">
        <ele>263.5385742</ele>
        <time>2012-11-13T14:15:52Z</time>
      </trkpt>
      <trkpt lat="49.15508" lon="6.37781">
        <ele>263.5385742</ele>
        <time>2012-11-13T14:15:59Z</time>
      </trkpt>
      <trkpt lat="49.15477" lon="6.37777">
        <ele>264.0192871</ele>
        <time>2012-11-13T14:16:06Z</time>
      </trkpt>
      <trkpt lat="49.15442" lon="6.37773">
        <ele>263.5385742</ele>
        <time>2012-11-13T14:16:12Z</time>
      </trkpt>
      <trkpt lat="49.15403" lon="6.37773">
        <ele>262.0965576</ele>
        <time>2012-11-13T14:16:18Z</time>
      </trkpt>
      <trkpt lat="49.15358" lon="6.37777">
        <ele>261.6159668</ele>
        <time>2012-11-13T14:16:24Z</time>
      </trkpt>
      <trkpt lat="49.15297" lon="6.37783">
        <ele>260.654541</ele>
        <time>2012-11-13T14:16:31Z</time>
      </trkpt>
      <trkpt lat="49.15242" lon="6.37786">
        <ele>259.2126465</ele>
        <time>2012-11-13T14:16:37Z</time>
      </trkpt>
      <trkpt lat="49.15176" lon="6.37796">
        <ele>256.8093262</ele>
        <time>2012-11-13T14:16:44Z</time>
      </trkpt>
      <trkpt lat="49.15136" lon="6.37819">
        <ele>254.8865967</ele>
        <time>2012-11-13T14:16:48Z</time>
      </trkpt>
      <trkpt lat="49.15107" lon="6.37841">
        <ele>253.4447021</ele>
        <time>2012-11-13T14:16:51Z</time>
      </trkpt>
      <trkpt lat="49.15053" lon="6.37866">
        <ele>251.0413818</ele>
        <time>2012-11-13T14:16:56Z</time>
      </trkpt>
      <trkpt lat="49.15032" lon="6.37874">
        <ele>250.0802002</ele>
        <time>2012-11-13T14:16:58Z</time>
      </trkpt>
      <trkpt lat="49.1499" lon="6.3789">
        <ele>247.1960449</ele>
        <time>2012-11-13T14:17:02Z</time>
      </trkpt>
      <trkpt lat="49.14928" lon="6.37902">
        <ele>245.7541504</ele>
        <time>2012-11-13T14:17:08Z</time>
      </trkpt>
      <trkpt lat="49.14849" lon="6.37916">
        <ele>245.2734375</ele>
        <time>2012-11-13T14:17:16Z</time>
      </trkpt>
      <trkpt lat="49.148" lon="6.3793">
        <ele>244.7928467</ele>
        <time>2012-11-13T14:17:22Z</time>
      </trkpt>
      <trkpt lat="49.14761" lon="6.37947">
        <ele>244.3122559</ele>
        <time>2012-11-13T14:17:27Z</time>
      </trkpt>
      <trkpt lat="49.1474" lon="6.37961">
        <ele>242.8702393</ele>
        <time>2012-11-13T14:17:30Z</time>
      </trkpt>
      <trkpt lat="49.14693" lon="6.37989">
        <ele>241.9089355</ele>
        <time>2012-11-13T14:17:36Z</time>
      </trkpt>
      <trkpt lat="49.1465" lon="6.37999">
        <ele>240.9476318</ele>
        <time>2012-11-13T14:17:41Z</time>
      </trkpt>
      <trkpt lat="49.14585" lon="6.38006">
        <ele>239.0249023</ele>
        <time>2012-11-13T14:17:48Z</time>
      </trkpt>
      <trkpt lat="49.14538" lon="6.38002">
        <ele>236.6217041</ele>
        <time>2012-11-13T14:17:53Z</time>
      </trkpt>
      <trkpt lat="49.14479" lon="6.37983">
        <ele>233.7376709</ele>
        <time>2012-11-13T14:17:59Z</time>
      </trkpt>
      <trkpt lat="49.14469" lon="6.3798">
        <ele>233.2570801</ele>
        <time>2012-11-13T14:18:00Z</time>
      </trkpt>
      <trkpt lat="49.1444" lon="6.37975">
        <ele>232.2957764</ele>
        <time>2012-11-13T14:18:03Z</time>
      </trkpt>
      <trkpt lat="49.14408" lon="6.37987">
        <ele>229.4117432</ele>
        <time>2012-11-13T14:18:07Z</time>
      </trkpt>
      <trkpt lat="49.14401" lon="6.37993">
        <ele>228.9311523</ele>
        <time>2012-11-13T14:18:08Z</time>
      </trkpt>
      <trkpt lat="49.14381" lon="6.38016">
        <ele>226.527832</ele>
        <time>2012-11-13T14:18:11Z</time>
      </trkpt>
      <trkpt lat="49.14352" lon="6.38037">
        <ele>222.2017822</ele>
        <time>2012-11-13T14:18:15Z</time>
      </trkpt>
      <trkpt lat="49.14339" lon="6.38038">
        <ele>221.2406006</ele>
        <time>2012-11-13T14:18:17Z</time>
      </trkpt>
      <trkpt lat="49.14325" lon="6.38038">
        <ele>219.798584</ele>
        <time>2012-11-13T14:18:20Z</time>
      </trkpt>
      <trkpt lat="49.14309" lon="6.38034">
        <ele>217.8759766</ele>
        <time>2012-11-13T14:18:25Z</time>
      </trkpt>
      <trkpt lat="49.14305" lon="6.38022">
        <ele>217.3953857</ele>
        <time>2012-11-13T14:18:32Z</time>
      </trkpt>
      <trkpt lat="49.14304" lon="6.38002">
        <ele>217.3953857</ele>
        <time>2012-11-13T14:18:36Z</time>
      </trkpt>
      <trkpt lat="49.14304" lon="6.37995">
        <ele>217.3953857</ele>
        <time>2012-11-13T14:18:37Z</time>
      </trkpt>
      <trkpt lat="49.14305" lon="6.37939">
        <ele>216.9146729</ele>
        <time>2012-11-13T14:18:44Z</time>
      </trkpt>
      <trkpt lat="49.14305" lon="6.3793">
        <ele>216.43396</ele>
        <time>2012-11-13T14:18:45Z</time>
      </trkpt>
      <trkpt lat="49.14291" lon="6.37885">
        <ele>216.43396</ele>
        <time>2012-11-13T14:18:50Z</time>
      </trkpt>
      <trkpt lat="49.14285" lon="6.37878">
        <ele>216.43396</ele>
        <time>2012-11-13T14:18:51Z</time>
      </trkpt>
      <trkpt lat="49.14241" lon="6.37827">
        <ele>214.9919434</ele>
        <time>2012-11-13T14:18:59Z</time>
      </trkpt>
      <trkpt lat="49.14212" lon="6.3779">
        <ele>215.4726563</ele>
        <time>2012-11-13T14:19:06Z</time>
      </trkpt>
      <trkpt lat="49.14195" lon="6.37768">
        <ele>216.43396</ele>
        <time>2012-11-13T14:19:10Z</time>
      </trkpt>
      <trkpt lat="49.14171" lon="6.37753">
        <ele>216.43396</ele>
        <time>2012-11-13T14:19:15Z</time>
      </trkpt>
      <trkpt lat="49.14154" lon="6.3776">
        <ele>216.43396</ele>
        <time>2012-11-13T14:19:18Z</time>
      </trkpt>
      <trkpt lat="49.14111" lon="6.37773">
        <ele>214.0306396</ele>
        <time>2012-11-13T14:19:25Z</time>
      </trkpt>
      <trkpt lat="49.14077" lon="6.37782">
        <ele>212.1080322</ele>
        <time>2012-11-13T14:19:29Z</time>
      </trkpt>
      <trkpt lat="49.1402" lon="6.37803">
        <ele>211.1467285</ele>
        <time>2012-11-13T14:19:35Z</time>
      </trkpt>
      <trkpt lat="49.1397" lon="6.37822">
        <ele>210.1854248</ele>
        <time>2012-11-13T14:19:41Z</time>
      </trkpt>
      <trkpt lat="49.13924" lon="6.37826">
        <ele>211.6274414</ele>
        <time>2012-11-13T14:19:47Z</time>
      </trkpt>
      <trkpt lat="49.13885" lon="6.37833">
        <ele>211.6274414</ele>
        <time>2012-11-13T14:19:53Z</time>
      </trkpt>
      <trkpt lat="49.1384" lon="6.37855">
        <ele>213.5500488</ele>
        <time>2012-11-13T14:20:01Z</time>
      </trkpt>
      <trkpt lat="49.13789" lon="6.37878">
        <ele>213.5500488</ele>
        <time>2012-11-13T14:20:10Z</time>
      </trkpt>
      <trkpt lat="49.1377" lon="6.37893">
        <ele>213.5500488</ele>
        <time>2012-11-13T14:20:16Z</time>
      </trkpt>
      <trkpt lat="49.13726" lon="6.37915">
        <ele>213.0693359</ele>
        <time>2012-11-13T14:20:22Z</time>
      </trkpt>
      <trkpt lat="49.13687" lon="6.37944">
        <ele>212.1080322</ele>
        <time>2012-11-13T14:20:29Z</time>
      </trkpt>
      <trkpt lat="49.13652" lon="6.37967">
        <ele>212.1080322</ele>
        <time>2012-11-13T14:20:35Z</time>
      </trkpt>
      <trkpt lat="49.13633" lon="6.37998">
        <ele>211.1467285</ele>
        <time>2012-11-13T14:20:40Z</time>
      </trkpt>
      <trkpt lat="49.13632" lon="6.38028">
        <ele>211.1467285</ele>
        <time>2012-11-13T14:20:43Z</time>
      </trkpt>
      <trkpt lat="49.13635" lon="6.38051">
        <ele>211.1467285</ele>
        <time>2012-11-13T14:20:45Z</time>
      </trkpt>
      <trkpt lat="49.13664" lon="6.38174">
        <ele>209.704834</ele>
        <time>2012-11-13T14:20:56Z</time>
      </trkpt>
      <trkpt lat="49.13682" lon="6.38252">
        <ele>209.704834</ele>
        <time>2012-11-13T14:21:04Z</time>
      </trkpt>
      <trkpt lat="49.1369" lon="6.38312">
        <ele>209.2241211</ele>
        <time>2012-11-13T14:21:10Z</time>
      </trkpt>
      <trkpt lat="49.13682" lon="6.38362">
        <ele>209.704834</ele>
        <time>2012-11-13T14:21:15Z</time>
      </trkpt>
      <trkpt lat="49.13657" lon="6.38422">
        <ele>209.2241211</ele>
        <time>2012-11-13T14:21:22Z</time>
      </trkpt>
      <trkpt lat="49.13631" lon="6.38488">
        <ele>208.7434082</ele>
        <time>2012-11-13T14:21:30Z</time>
      </trkpt>
      <trkpt lat="49.13608" lon="6.3855">
        <ele>209.2241211</ele>
        <time>2012-11-13T14:21:37Z</time>
      </trkpt>
      <trkpt lat="49.13582" lon="6.38617">
        <ele>209.2241211</ele>
        <time>2012-11-13T14:21:45Z</time>
      </trkpt>
      <trkpt lat="49.1356" lon="6.38671">
        <ele>209.704834</ele>
        <time>2012-11-13T14:21:52Z</time>
      </trkpt>
      <trkpt lat="49.13532" lon="6.38744">
        <ele>209.2241211</ele>
        <time>2012-11-13T14:22:00Z</time>
      </trkpt>
      <trkpt lat="49.13516" lon="6.38792">
        <ele>209.704834</ele>
        <time>2012-11-13T14:22:06Z</time>
      </trkpt>
      <trkpt lat="49.13507" lon="6.38821">
        <ele>210.1854248</ele>
        <time>2012-11-13T14:22:11Z</time>
      </trkpt>
      <trkpt lat="49.13495" lon="6.3883">
        <ele>210.1854248</ele>
        <time>2012-11-13T14:22:15Z</time>
      </trkpt>
      <trkpt lat="49.13477" lon="6.38822">
        <ele>210.6660156</ele>
        <time>2012-11-13T14:22:20Z</time>
      </trkpt>
      <trkpt lat="49.13439" lon="6.38801">
        <ele>210.6660156</ele>
        <time>2012-11-13T14:22:28Z</time>
      </trkpt>
      <trkpt lat="49.13399" lon="6.38784">
        <ele>210.1854248</ele>
        <time>2012-11-13T14:22:36Z</time>
      </trkpt>
      <trkpt lat="49.13366" lon="6.38771">
        <ele>210.6660156</ele>
        <time>2012-11-13T14:22:43Z</time>
      </trkpt>
      <trkpt lat="49.13348" lon="6.38762">
        <ele>209.704834</ele>
        <time>2012-11-13T14:22:49Z</time>
      </trkpt>
      <trkpt lat="49.13341" lon="6.38764">
        <ele>209.704834</ele>
        <time>2012-11-13T14:22:53Z</time>
      </trkpt>
      <trkpt lat="49.13326" lon="6.38756">
        <ele>209.704834</ele>
        <time>2012-11-13T14:22:59Z</time>
      </trkpt>
      <trkpt lat="49.13302" lon="6.38737">
        <ele>210.1854248</ele>
        <time>2012-11-13T14:23:05Z</time>
      </trkpt>
      <trkpt lat="49.13268" lon="6.38709">
        <ele>210.1854248</ele>
        <time>2012-11-13T14:23:12Z</time>
      </trkpt>
      <trkpt lat="49.13227" lon="6.3867">
        <ele>210.1854248</ele>
        <time>2012-11-13T14:23:21Z</time>
      </trkpt>
      <trkpt lat="49.13182" lon="6.38624">
        <ele>209.704834</ele>
        <time>2012-11-13T14:23:31Z</time>
      </trkpt>
      <trkpt lat="49.13129" lon="6.38574">
        <ele>210.1854248</ele>
        <time>2012-11-13T14:23:42Z</time>
      </trkpt>
      <trkpt lat="49.1309" lon="6.38538">
        <ele>210.1854248</ele>
        <time>2012-11-13T14:23:50Z</time>
      </trkpt>
      <trkpt lat="49.13051" lon="6.38502">
        <ele>210.1854248</ele>
        <time>2012-11-13T14:23:58Z</time>
      </trkpt>
      <trkpt lat="49.13006" lon="6.38462">
        <ele>210.1854248</ele>
        <time>2012-11-13T14:24:06Z</time>
      </trkpt>
      <trkpt lat="49.12961" lon="6.38428">
        <ele>210.1854248</ele>
        <time>2012-11-13T14:24:14Z</time>
      </trkpt>
      <trkpt lat="49.12918" lon="6.38403">
        <ele>210.1854248</ele>
        <time>2012-11-13T14:24:21Z</time>
      </trkpt>
      <trkpt lat="49.12882" lon="6.38389">
        <ele>211.1467285</ele>
        <time>2012-11-13T14:24:27Z</time>
      </trkpt>
      <trkpt lat="49.12827" lon="6.38377">
        <ele>211.1467285</ele>
        <time>2012-11-13T14:24:35Z</time>
      </trkpt>
      <trkpt lat="49.12767" lon="6.38376">
        <ele>210.1854248</ele>
        <time>2012-11-13T14:24:44Z</time>
      </trkpt>
      <trkpt lat="49.12716" lon="6.38386">
        <ele>210.6660156</ele>
        <time>2012-11-13T14:24:52Z</time>
      </trkpt>
      <trkpt lat="49.12659" lon="6.38406">
        <ele>210.6660156</ele>
        <time>2012-11-13T14:25:01Z</time>
      </trkpt>
      <trkpt lat="49.12617" lon="6.38429">
        <ele>210.6660156</ele>
        <time>2012-11-13T14:25:08Z</time>
      </trkpt>
      <trkpt lat="49.12571" lon="6.38461">
        <ele>211.1467285</ele>
        <time>2012-11-13T14:25:16Z</time>
      </trkpt>
      <trkpt lat="49.12519" lon="6.38508">
        <ele>211.1467285</ele>
        <time>2012-11-13T14:25:25Z</time>
      </trkpt>
      <trkpt lat="49.1248" lon="6.38543">
        <ele>210.6660156</ele>
        <time>2012-11-13T14:25:32Z</time>
      </trkpt>
      <trkpt lat="49.12423" lon="6.38595">
        <ele>210.1854248</ele>
        <time>2012-11-13T14:25:42Z</time>
      </trkpt>
      <trkpt lat="49.12387" lon="6.38635">
        <ele>210.6660156</ele>
        <time>2012-11-13T14:25:49Z</time>
      </trkpt>
      <trkpt lat="49.12334" lon="6.38708">
        <ele>210.6660156</ele>
        <time>2012-11-13T14:26:00Z</time>
      </trkpt>
      <trkpt lat="49.12288" lon="6.38781">
        <ele>210.1854248</ele>
        <time>2012-11-13T14:26:10Z</time>
      </trkpt>
      <trkpt lat="49.12249" lon="6.38842">
        <ele>210.6660156</ele>
        <time>2012-11-13T14:26:19Z</time>
      </trkpt>
      <trkpt lat="49.12213" lon="6.38892">
        <ele>211.6274414</ele>
        <time>2012-11-13T14:26:27Z</time>
      </trkpt>
      <trkpt lat="49.12164" lon="6.3894">
        <ele>210.1854248</ele>
        <time>2012-11-13T14:26:36Z</time>
      </trkpt>
      <trkpt lat="49.12118" lon="6.38982">
        <ele>210.6660156</ele>
        <time>2012-11-13T14:26:44Z</time>
      </trkpt>
      <trkpt lat="49.12078" lon="6.39009">
        <ele>210.6660156</ele>
        <time>2012-11-13T14:26:51Z</time>
      </trkpt>
      <trkpt lat="49.12031" lon="6.39036">
        <ele>210.6660156</ele>
        <time>2012-11-13T14:26:59Z</time>
      </trkpt>
      <trkpt lat="49.12008" lon="6.39046">
        <ele>210.6660156</ele>
        <time>2012-11-13T14:27:04Z</time>
      </trkpt>
      <trkpt lat="49.11974" lon="6.39057">
        <ele>211.6274414</ele>
        <time>2012-11-13T14:27:10Z</time>
      </trkpt>
      <trkpt lat="49.11929" lon="6.39068">
        <ele>211.6274414</ele>
        <time>2012-11-13T14:27:17Z</time>
      </trkpt>
      <trkpt lat="49.1187" lon="6.39071">
        <ele>212.1080322</ele>
        <time>2012-11-13T14:27:26Z</time>
      </trkpt>
      <trkpt lat="49.1181" lon="6.39068">
        <ele>211.1467285</ele>
        <time>2012-11-13T14:27:35Z</time>
      </trkpt>
      <trkpt lat="49.11756" lon="6.39067">
        <ele>211.6274414</ele>
        <time>2012-11-13T14:27:43Z</time>
      </trkpt>
      <trkpt lat="49.11706" lon="6.39064">
        <ele>211.6274414</ele>
        <time>2012-11-13T14:27:51Z</time>
      </trkpt>
      <trkpt lat="49.11638" lon="6.39059">
        <ele>212.1080322</ele>
        <time>2012-11-13T14:28:02Z</time>
      </trkpt>
      <trkpt lat="49.11575" lon="6.39054">
        <ele>211.6274414</ele>
        <time>2012-11-13T14:28:12Z</time>
      </trkpt>
      <trkpt lat="49.11511" lon="6.39051">
        <ele>211.6274414</ele>
        <time>2012-11-13T14:28:22Z</time>
      </trkpt>
      <trkpt lat="49.11498" lon="6.39051">
        <ele>212.1080322</ele>
        <time>2012-11-13T14:28:24Z</time>
      </trkpt>
      <trkpt lat="49.11472" lon="6.39066">
        <ele>211.6274414</ele>
        <time>2012-11-13T14:28:29Z</time>
      </trkpt>
      <trkpt lat="49.11456" lon="6.39069">
        <ele>211.6274414</ele>
        <time>2012-11-13T14:28:32Z</time>
      </trkpt>
      <trkpt lat="49.11404" lon="6.39065">
        <ele>212.1080322</ele>
        <time>2012-11-13T14:28:41Z</time>
      </trkpt>
      <trkpt lat="49.11353" lon="6.39064">
        <ele>212.588623</ele>
        <time>2012-11-13T14:28:50Z</time>
      </trkpt>
      <trkpt lat="49.11339" lon="6.39066">
        <ele>212.1080322</ele>
        <time>2012-11-13T14:28:54Z</time>
      </trkpt>
      <trkpt lat="49.11321" lon="6.3906">
        <ele>211.6274414</ele>
        <time>2012-11-13T14:28:59Z</time>
      </trkpt>
      <trkpt lat="49.11296" lon="6.39063">
        <ele>212.588623</ele>
        <time>2012-11-13T14:29:04Z</time>
      </trkpt>
      <trkpt lat="49.11249" lon="6.39081">
        <ele>213.0693359</ele>
        <time>2012-11-13T14:29:12Z</time>
      </trkpt>
      <trkpt lat="49.11197" lon="6.3911">
        <ele>213.0693359</ele>
        <time>2012-11-13T14:29:21Z</time>
      </trkpt>
      <trkpt lat="49.11134" lon="6.39137">
        <ele>213.5500488</ele>
        <time>2012-11-13T14:29:31Z</time>
      </trkpt>
      <trkpt lat="49.11093" lon="6.39155">
        <ele>214.0306396</ele>
        <time>2012-11-13T14:29:38Z</time>
      </trkpt>
      <trkpt lat="49.11038" lon="6.39183">
        <ele>212.588623</ele>
        <time>2012-11-13T14:29:48Z</time>
      </trkpt>
      <trkpt lat="49.10996" lon="6.39203">
        <ele>213.0693359</ele>
        <time>2012-11-13T14:29:56Z</time>
      </trkpt>
      <trkpt lat="49.10958" lon="6.39222">
        <ele>212.1080322</ele>
        <time>2012-11-13T14:30:04Z</time>
      </trkpt>
      <trkpt lat="49.10931" lon="6.39231">
        <ele>213.0693359</ele>
        <time>2012-11-13T14:30:10Z</time>
      </trkpt>
      <trkpt lat="49.10905" lon="6.39223">
        <ele>213.5500488</ele>
        <time>2012-11-13T14:30:16Z</time>
      </trkpt>
      <trkpt lat="49.10886" lon="6.39216">
        <ele>213.5500488</ele>
        <time>2012-11-13T14:30:20Z</time>
      </trkpt>
      <trkpt lat="49.10873" lon="6.3923">
        <ele>213.5500488</ele>
        <time>2012-11-13T14:30:23Z</time>
      </trkpt>
      <trkpt lat="49.10865" lon="6.39244">
        <ele>214.0306396</ele>
        <time>2012-11-13T14:30:25Z</time>
      </trkpt>
      <trkpt lat="49.10835" lon="6.39264">
        <ele>214.0306396</ele>
        <time>2012-11-13T14:30:30Z</time>
      </trkpt>
      <trkpt lat="49.10789" lon="6.39278">
        <ele>214.0306396</ele>
        <time>2012-11-13T14:30:37Z</time>
      </trkpt>
      <trkpt lat="49.10728" lon="6.39286">
        <ele>213.5500488</ele>
        <time>2012-11-13T14:30:46Z</time>
      </trkpt>
      <trkpt lat="49.10682" lon="6.39284">
        <ele>214.0306396</ele>
        <time>2012-11-13T14:30:53Z</time>
      </trkpt>
      <trkpt lat="49.10628" lon="6.39273">
        <ele>213.5500488</ele>
        <time>2012-11-13T14:31:01Z</time>
      </trkpt>
      <trkpt lat="49.10575" lon="6.39254">
        <ele>214.0306396</ele>
        <time>2012-11-13T14:31:09Z</time>
      </trkpt>
      <trkpt lat="49.10523" lon="6.39225">
        <ele>214.0306396</ele>
        <time>2012-11-13T14:31:17Z</time>
      </trkpt>
      <trkpt lat="49.10479" lon="6.39188">
        <ele>214.0306396</ele>
        <time>2012-11-13T14:31:24Z</time>
      </trkpt>
      <trkpt lat="49.10444" lon="6.39153">
        <ele>214.5112305</ele>
        <time>2012-11-13T14:31:30Z</time>
      </trkpt>
      <trkpt lat="49.10418" lon="6.39113">
        <ele>214.0306396</ele>
        <time>2012-11-13T14:31:36Z</time>
      </trkpt>
      <trkpt lat="49.10385" lon="6.3907">
        <ele>214.5112305</ele>
        <time>2012-11-13T14:31:43Z</time>
      </trkpt>
      <trkpt lat="49.10361" lon="6.39044">
        <ele>214.0306396</ele>
        <time>2012-11-13T14:31:47Z</time>
      </trkpt>
      <trkpt lat="49.10321" lon="6.39021">
        <ele>215.4726563</ele>
        <time>2012-11-13T14:31:54Z</time>
      </trkpt>
      <trkpt lat="49.10282" lon="6.39012">
        <ele>217.3953857</ele>
        <time>2012-11-13T14:32:01Z</time>
      </trkpt>
      <trkpt lat="49.10244" lon="6.39015">
        <ele>218.8372803</ele>
        <time>2012-11-13T14:32:08Z</time>
      </trkpt>
      <trkpt lat="49.10228" lon="6.3902">
        <ele>219.3179932</ele>
        <time>2012-11-13T14:32:13Z</time>
      </trkpt>
      <trkpt lat="49.10223" lon="6.39021">
        <ele>219.3179932</ele>
        <time>2012-11-13T14:32:17Z</time>
      </trkpt>
      <trkpt lat="49.10222" lon="6.39017">
        <ele>219.3179932</ele>
        <time>2012-11-13T14:32:21Z</time>
      </trkpt>
      <trkpt lat="49.10215" lon="6.39003">
        <ele>218.3565674</ele>
        <time>2012-11-13T14:32:26Z</time>
      </trkpt>
      <trkpt lat="49.10205" lon="6.39006">
        <ele>219.3179932</ele>
        <time>2012-11-13T14:32:29Z</time>
      </trkpt>
      <trkpt lat="49.10179" lon="6.39024">
        <ele>220.2791748</ele>
        <time>2012-11-13T14:32:37Z</time>
      </trkpt>
      <trkpt lat="49.10163" lon="6.39047">
        <ele>221.7211914</ele>
        <time>2012-11-13T14:32:42Z</time>
      </trkpt>
      <trkpt lat="49.10147" lon="6.39065">
        <ele>223.163208</ele>
        <time>2012-11-13T14:32:46Z</time>
      </trkpt>
      <trkpt lat="49.10101" lon="6.39102">
        <ele>224.1245117</ele>
        <time>2012-11-13T14:32:55Z</time>
      </trkpt>
      <trkpt lat="49.10061" lon="6.39128">
        <ele>225.5665283</ele>
        <time>2012-11-13T14:33:03Z</time>
      </trkpt>
      <trkpt lat="49.10028" lon="6.39148">
        <ele>227.9697266</ele>
        <time>2012-11-13T14:33:11Z</time>
      </trkpt>
      <trkpt lat="49.10013" lon="6.39157">
        <ele>227.4891357</ele>
        <time>2012-11-13T14:33:15Z</time>
      </trkpt>
      <trkpt lat="49.09978" lon="6.39175">
        <ele>227.0085449</ele>
        <time>2012-11-13T14:33:23Z</time>
      </trkpt>
      <trkpt lat="49.09938" lon="6.39198">
        <ele>227.0085449</ele>
        <time>2012-11-13T14:33:31Z</time>
      </trkpt>
      <trkpt lat="49.09908" lon="6.3922">
        <ele>227.9697266</ele>
        <time>2012-11-13T14:33:37Z</time>
      </trkpt>
      <trkpt lat="49.09868" lon="6.39269">
        <ele>227.9697266</ele>
        <time>2012-11-13T14:33:46Z</time>
      </trkpt>
      <trkpt lat="49.09834" lon="6.39312">
        <ele>228.9311523</ele>
        <time>2012-11-13T14:33:54Z</time>
      </trkpt>
      <trkpt lat="49.0981" lon="6.39346">
        <ele>229.4117432</ele>
        <time>2012-11-13T14:34:00Z</time>
      </trkpt>
      <trkpt lat="49.09782" lon="6.39387">
        <ele>229.892334</ele>
        <time>2012-11-13T14:34:07Z</time>
      </trkpt>
      <trkpt lat="49.09757" lon="6.39419">
        <ele>230.8537598</ele>
        <time>2012-11-13T14:34:14Z</time>
      </trkpt>
      <trkpt lat="49.09739" lon="6.39441">
        <ele>232.7764893</ele>
        <time>2012-11-13T14:34:20Z</time>
      </trkpt>
      <trkpt lat="49.09723" lon="6.39458">
        <ele>234.6990967</ele>
        <time>2012-11-13T14:34:26Z</time>
      </trkpt>
      <trkpt lat="49.09708" lon="6.39459">
        <ele>235.6602783</ele>
        <time>2012-11-13T14:34:30Z</time>
      </trkpt>
      <trkpt lat="49.09698" lon="6.39444">
        <ele>236.1409912</ele>
        <time>2012-11-13T14:34:34Z</time>
      </trkpt>
      <trkpt lat="49.0969" lon="6.39418">
        <ele>237.5828857</ele>
        <time>2012-11-13T14:34:39Z</time>
      </trkpt>
      <trkpt lat="49.09685" lon="6.3941">
        <ele>237.5828857</ele>
        <time>2012-11-13T14:34:41Z</time>
      </trkpt>
      <trkpt lat="49.09663" lon="6.39404">
        <ele>239.5054932</ele>
        <time>2012-11-13T14:34:46Z</time>
      </trkpt>
      <trkpt lat="49.0963" lon="6.39412">
        <ele>240.9476318</ele>
        <time>2012-11-13T14:34:54Z</time>
      </trkpt>
      <trkpt lat="49.09599" lon="6.3942">
        <ele>240.9476318</ele>
        <time>2012-11-13T14:35:02Z</time>
      </trkpt>
      <trkpt lat="49.09571" lon="6.39427">
        <ele>239.5054932</ele>
        <time>2012-11-13T14:35:07Z</time>
      </trkpt>
      <trkpt lat="49.09557" lon="6.3943">
        <ele>238.0635986</ele>
        <time>2012-11-13T14:35:09Z</time>
      </trkpt>
      <trkpt lat="49.09541" lon="6.39437">
        <ele>236.6217041</ele>
        <time>2012-11-13T14:35:11Z</time>
      </trkpt>
      <trkpt lat="49.09506" lon="6.39462">
        <ele>233.7376709</ele>
        <time>2012-11-13T14:35:15Z</time>
      </trkpt>
      <trkpt lat="49.09497" lon="6.3947">
        <ele>233.7376709</ele>
        <time>2012-11-13T14:35:16Z</time>
      </trkpt>
      <trkpt lat="49.09455" lon="6.39499">
        <ele>230.8537598</ele>
        <time>2012-11-13T14:35:20Z</time>
      </trkpt>
      <trkpt lat="49.0941" lon="6.395">
        <ele>230.3730469</ele>
        <time>2012-11-13T14:35:24Z</time>
      </trkpt>
      <trkpt lat="49.09394" lon="6.3949">
        <ele>230.8537598</ele>
        <time>2012-11-13T14:35:26Z</time>
      </trkpt>
      <trkpt lat="49.09365" lon="6.39465">
        <ele>233.2570801</ele>
        <time>2012-11-13T14:35:31Z</time>
      </trkpt>
      <trkpt lat="49.09348" lon="6.39445">
        <ele>235.6602783</ele>
        <time>2012-11-13T14:35:36Z</time>
      </trkpt>
      <trkpt lat="49.09344" lon="6.39442">
        <ele>235.6602783</ele>
        <time>2012-11-13T14:35:37Z</time>
      </trkpt>
      <trkpt lat="49.09328" lon="6.39423">
        <ele>238.5443115</ele>
        <time>2012-11-13T14:35:43Z</time>
      </trkpt>
      <trkpt lat="49.09322" lon="6.39416">
        <ele>239.5054932</ele>
        <time>2012-11-13T14:35:45Z</time>
      </trkpt>
      <trkpt lat="49.093" lon="6.39392">
        <ele>241.9089355</ele>
        <time>2012-11-13T14:35:52Z</time>
      </trkpt>
      <trkpt lat="49.09267" lon="6.39363">
        <ele>243.3508301</ele>
        <time>2012-11-13T14:36:02Z</time>
      </trkpt>
      <trkpt lat="49.09234" lon="6.39341">
        <ele>244.3122559</ele>
        <time>2012-11-13T14:36:11Z</time>
      </trkpt>
      <trkpt lat="49.09209" lon="6.39328">
        <ele>243.831543</ele>
        <time>2012-11-13T14:36:17Z</time>
      </trkpt>
      <trkpt lat="49.09174" lon="6.39311">
        <ele>242.8702393</ele>
        <time>2012-11-13T14:36:23Z</time>
      </trkpt>
      <trkpt lat="49.09128" lon="6.39287">
        <ele>242.8702393</ele>
        <time>2012-11-13T14:36:30Z</time>
      </trkpt>
      <trkpt lat="49.0906" lon="6.39252">
        <ele>243.3508301</ele>
        <time>2012-11-13T14:36:40Z</time>
      </trkpt>
      <trkpt lat="49.0901" lon="6.39228">
        <ele>242.8702393</ele>
        <time>2012-11-13T14:36:47Z</time>
      </trkpt>
      <trkpt lat="49.08957" lon="6.39203">
        <ele>240.9476318</ele>
        <time>2012-11-13T14:36:53Z</time>
      </trkpt>
      <trkpt lat="49.08903" lon="6.39177">
        <ele>241.9089355</ele>
        <time>2012-11-13T14:36:59Z</time>
      </trkpt>
      <trkpt lat="49.08851" lon="6.39153">
        <ele>242.3896484</ele>
        <time>2012-11-13T14:37:06Z</time>
      </trkpt>
      <trkpt lat="49.0881" lon="6.39132">
        <ele>240.467041</ele>
        <time>2012-11-13T14:37:11Z</time>
      </trkpt>
      <trkpt lat="49.0878" lon="6.39099">
        <ele>237.5828857</ele>
        <time>2012-11-13T14:37:15Z</time>
      </trkpt>
      <trkpt lat="49.08758" lon="6.39067">
        <ele>236.1409912</ele>
        <time>2012-11-13T14:37:18Z</time>
      </trkpt>
      <trkpt lat="49.08742" lon="6.39042">
        <ele>234.6990967</ele>
        <time>2012-11-13T14:37:20Z</time>
      </trkpt>
      <trkpt lat="49.08717" lon="6.39003">
        <ele>232.2957764</ele>
        <time>2012-11-13T14:37:23Z</time>
      </trkpt>
      <trkpt lat="49.08657" lon="6.3891">
        <ele>230.3730469</ele>
        <time>2012-11-13T14:37:30Z</time>
      </trkpt>
      <trkpt lat="49.08603" lon="6.38827">
        <ele>227.9697266</ele>
        <time>2012-11-13T14:37:37Z</time>
      </trkpt>
      <trkpt lat="49.08562" lon="6.38754">
        <ele>227.0085449</ele>
        <time>2012-11-13T14:37:43Z</time>
      </trkpt>
      <trkpt lat="49.08551" lon="6.38726">
        <ele>225.5665283</ele>
        <time>2012-11-13T14:37:45Z</time>
      </trkpt>
      <trkpt lat="49.08539" lon="6.38647">
        <ele>224.1245117</ele>
        <time>2012-11-13T14:37:50Z</time>
      </trkpt>
      <trkpt lat="49.08537" lon="6.38616">
        <ele>222.6824951</ele>
        <time>2012-11-13T14:37:52Z</time>
      </trkpt>
      <trkpt lat="49.08525" lon="6.38513">
        <ele>222.2017822</ele>
        <time>2012-11-13T14:37:59Z</time>
      </trkpt>
      <trkpt lat="49.08506" lon="6.38432">
        <ele>222.2017822</ele>
        <time>2012-11-13T14:38:05Z</time>
      </trkpt>
      <trkpt lat="49.08481" lon="6.38348">
        <ele>221.2406006</ele>
        <time>2012-11-13T14:38:12Z</time>
      </trkpt>
      <trkpt lat="49.08469" lon="6.38286">
        <ele>221.7211914</ele>
        <time>2012-11-13T14:38:17Z</time>
      </trkpt>
      <trkpt lat="49.08466" lon="6.38221">
        <ele>220.2791748</ele>
        <time>2012-11-13T14:38:22Z</time>
      </trkpt>
      <trkpt lat="49.08471" lon="6.38104">
        <ele>217.8759766</ele>
        <time>2012-11-13T14:38:31Z</time>
      </trkpt>
      <trkpt lat="49.08474" lon="6.38047">
        <ele>218.8372803</ele>
        <time>2012-11-13T14:38:35Z</time>
      </trkpt>
      <trkpt lat="49.08475" lon="6.38019">
        <ele>217.3953857</ele>
        <time>2012-11-13T14:38:37Z</time>
      </trkpt>
      <trkpt lat="49.08477" lon="6.37976">
        <ele>215.9532471</ele>
        <time>2012-11-13T14:38:40Z</time>
      </trkpt>
      <trkpt lat="49.08478" lon="6.37871">
        <ele>217.3953857</ele>
        <time>2012-11-13T14:38:48Z</time>
      </trkpt>
      <trkpt lat="49.08471" lon="6.37812">
        <ele>218.3565674</ele>
        <time>2012-11-13T14:38:53Z</time>
      </trkpt>
      <trkpt lat="49.08453" lon="6.3773">
        <ele>219.798584</ele>
        <time>2012-11-13T14:39:01Z</time>
      </trkpt>
      <trkpt lat="49.08439" lon="6.37668">
        <ele>221.7211914</ele>
        <time>2012-11-13T14:39:08Z</time>
      </trkpt>
      <trkpt lat="49.08426" lon="6.37605">
        <ele>222.6824951</ele>
        <time>2012-11-13T14:39:16Z</time>
      </trkpt>
      <trkpt lat="49.08411" lon="6.37538">
        <ele>224.6052246</ele>
        <time>2012-11-13T14:39:25Z</time>
      </trkpt>
      <trkpt lat="49.08398" lon="6.37483">
        <ele>224.6052246</ele>
        <time>2012-11-13T14:39:32Z</time>
      </trkpt>
      <trkpt lat="49.08382" lon="6.37407">
        <ele>222.6824951</ele>
        <time>2012-11-13T14:39:40Z</time>
      </trkpt>
      <trkpt lat="49.08364" lon="6.3733">
        <ele>221.7211914</ele>
        <time>2012-11-13T14:39:47Z</time>
      </trkpt>
      <trkpt lat="49.0834" lon="6.37224">
        <ele>221.7211914</ele>
        <time>2012-11-13T14:39:56Z</time>
      </trkpt>
      <trkpt lat="49.08323" lon="6.3715">
        <ele>222.2017822</ele>
        <time>2012-11-13T14:40:03Z</time>
      </trkpt>
      <trkpt lat="49.08308" lon="6.37091">
        <ele>225.0859375</ele>
        <time>2012-11-13T14:40:10Z</time>
      </trkpt>
      <trkpt lat="49.0829" lon="6.37033">
        <ele>226.0471191</ele>
        <time>2012-11-13T14:40:17Z</time>
      </trkpt>
      <trkpt lat="49.08281" lon="6.37008">
        <ele>227.4891357</ele>
        <time>2012-11-13T14:40:20Z</time>
      </trkpt>
      <trkpt lat="49.08259" lon="6.3695">
        <ele>227.4891357</ele>
        <time>2012-11-13T14:40:27Z</time>
      </trkpt>
      <trkpt lat="49.08236" lon="6.36886">
        <ele>228.4504395</ele>
        <time>2012-11-13T14:40:35Z</time>
      </trkpt>
      <trkpt lat="49.08212" lon="6.36823">
        <ele>227.9697266</ele>
        <time>2012-11-13T14:40:43Z</time>
      </trkpt>
      <trkpt lat="49.08189" lon="6.36768">
        <ele>228.4504395</ele>
        <time>2012-11-13T14:40:50Z</time>
      </trkpt>
      <trkpt lat="49.08165" lon="6.36715">
        <ele>226.0471191</ele>
        <time>2012-11-13T14:40:56Z</time>
      </trkpt>
      <trkpt lat="49.0814" lon="6.36651">
        <ele>222.2017822</ele>
        <time>2012-11-13T14:41:02Z</time>
      </trkpt>
      <trkpt lat="49.08131" lon="6.36627">
        <ele>220.7598877</ele>
        <time>2012-11-13T14:41:04Z</time>
      </trkpt>
      <trkpt lat="49.08124" lon="6.36567">
        <ele>217.8759766</ele>
        <time>2012-11-13T14:41:08Z</time>
      </trkpt>
      <trkpt lat="49.08139" lon="6.36517">
        <ele>215.4726563</ele>
        <time>2012-11-13T14:41:11Z</time>
      </trkpt>
      <trkpt lat="49.08168" lon="6.36487">
        <ele>214.0306396</ele>
        <time>2012-11-13T14:41:14Z</time>
      </trkpt>
      <trkpt lat="49.08178" lon="6.3648">
        <ele>214.5112305</ele>
        <time>2012-11-13T14:41:15Z</time>
      </trkpt>
      <trkpt lat="49.08243" lon="6.36439">
        <ele>214.0306396</ele>
        <time>2012-11-13T14:41:22Z</time>
      </trkpt>
      <trkpt lat="49.08281" lon="6.36404">
        <ele>213.0693359</ele>
        <time>2012-11-13T14:41:27Z</time>
      </trkpt>
      <trkpt lat="49.08321" lon="6.36348">
        <ele>213.5500488</ele>
        <time>2012-11-13T14:41:33Z</time>
      </trkpt>
      <trkpt lat="49.08349" lon="6.36319">
        <ele>214.0306396</ele>
        <time>2012-11-13T14:41:37Z</time>
      </trkpt>
      <trkpt lat="49.08397" lon="6.36297">
        <ele>213.5500488</ele>
        <time>2012-11-13T14:41:43Z</time>
      </trkpt>
      <trkpt lat="49.08446" lon="6.3628">
        <ele>214.9919434</ele>
        <time>2012-11-13T14:41:50Z</time>
      </trkpt>
      <trkpt lat="49.08484" lon="6.36261">
        <ele>215.4726563</ele>
        <time>2012-11-13T14:41:56Z</time>
      </trkpt>
      <trkpt lat="49.08502" lon="6.36247">
        <ele>215.9532471</ele>
        <time>2012-11-13T14:41:59Z</time>
      </trkpt>
      <trkpt lat="49.08515" lon="6.36215">
        <ele>215.9532471</ele>
        <time>2012-11-13T14:42:03Z</time>
      </trkpt>
      <trkpt lat="49.08515" lon="6.36193">
        <ele>216.43396</ele>
        <time>2012-11-13T14:42:05Z</time>
      </trkpt>
      <trkpt lat="49.08509" lon="6.3616">
        <ele>214.9919434</ele>
        <time>2012-11-13T14:42:08Z</time>
      </trkpt>
      <trkpt lat="49.08495" lon="6.36077">
        <ele>215.4726563</ele>
        <time>2012-11-13T14:42:16Z</time>
      </trkpt>
      <trkpt lat="49.08483" lon="6.35983">
        <ele>214.9919434</ele>
        <time>2012-11-13T14:42:25Z</time>
      </trkpt>
      <trkpt lat="49.08468" lon="6.35883">
        <ele>214.9919434</ele>
        <time>2012-11-13T14:42:34Z</time>
      </trkpt>
      <trkpt lat="49.08455" lon="6.35795">
        <ele>214.0306396</ele>
        <time>2012-11-13T14:42:42Z</time>
      </trkpt>
      <trkpt lat="49.08439" lon="6.35689">
        <ele>214.9919434</ele>
        <time>2012-11-13T14:42:52Z</time>
      </trkpt>
      <trkpt lat="49.0843" lon="6.35627">
        <ele>214.9919434</ele>
        <time>2012-11-13T14:42:58Z</time>
      </trkpt>
      <trkpt lat="49.08433" lon="6.35586">
        <ele>215.4726563</ele>
        <time>2012-11-13T14:43:02Z</time>
      </trkpt>
      <trkpt lat="49.08442" lon="6.35573">
        <ele>216.43396</ele>
        <time>2012-11-13T14:43:04Z</time>
      </trkpt>
      <trkpt lat="49.08487" lon="6.35514">
        <ele>217.3953857</ele>
        <time>2012-11-13T14:43:14Z</time>
      </trkpt>
      <trkpt lat="49.08521" lon="6.35469">
        <ele>218.8372803</ele>
        <time>2012-11-13T14:43:22Z</time>
      </trkpt>
      <trkpt lat="49.08535" lon="6.35452">
        <ele>218.8372803</ele>
        <time>2012-11-13T14:43:26Z</time>
      </trkpt>
      <trkpt lat="49.08552" lon="6.35418">
        <ele>218.8372803</ele>
        <time>2012-11-13T14:43:33Z</time>
      </trkpt>
      <trkpt lat="49.08556" lon="6.3538">
        <ele>218.3565674</ele>
        <time>2012-11-13T14:43:39Z</time>
      </trkpt>
      <trkpt lat="49.08563" lon="6.35358">
        <ele>219.3179932</ele>
        <time>2012-11-13T14:43:43Z</time>
      </trkpt>
      <trkpt lat="49.08575" lon="6.35334">
        <ele>219.798584</ele>
        <time>2012-11-13T14:43:49Z</time>
      </trkpt>
      <trkpt lat="49.08588" lon="6.35308">
        <ele>220.2791748</ele>
        <time>2012-11-13T14:43:54Z</time>
      </trkpt>
      <trkpt lat="49.08606" lon="6.35258">
        <ele>222.2017822</ele>
        <time>2012-11-13T14:44:03Z</time>
      </trkpt>
      <trkpt lat="49.08623" lon="6.35214">
        <ele>224.6052246</ele>
        <time>2012-11-13T14:44:11Z</time>
      </trkpt>
      <trkpt lat="49.08639" lon="6.35176">
        <ele>226.527832</ele>
        <time>2012-11-13T14:44:18Z</time>
      </trkpt>
      <trkpt lat="49.08662" lon="6.3513">
        <ele>228.9311523</ele>
        <time>2012-11-13T14:44:27Z</time>
      </trkpt>
      <trkpt lat="49.08685" lon="6.35088">
        <ele>230.8537598</ele>
        <time>2012-11-13T14:44:35Z</time>
      </trkpt>
      <trkpt lat="49.08688" lon="6.35082">
        <ele>230.8537598</ele>
        <time>2012-11-13T14:44:36Z</time>
      </trkpt>
      <trkpt lat="49.08719" lon="6.35027">
        <ele>229.892334</ele>
        <time>2012-11-13T14:44:45Z</time>
      </trkpt>
      <trkpt lat="49.0875" lon="6.34978">
        <ele>227.9697266</ele>
        <time>2012-11-13T14:44:52Z</time>
      </trkpt>
      <trkpt lat="49.0878" lon="6.34934">
        <ele>225.5665283</ele>
        <time>2012-11-13T14:44:57Z</time>
      </trkpt>
      <trkpt lat="49.08787" lon="6.34924">
        <ele>225.5665283</ele>
        <time>2012-11-13T14:44:58Z</time>
      </trkpt>
      <trkpt lat="49.08808" lon="6.34894">
        <ele>224.1245117</ele>
        <time>2012-11-13T14:45:01Z</time>
      </trkpt>
      <trkpt lat="49.08868" lon="6.34811">
        <ele>223.6437988</ele>
        <time>2012-11-13T14:45:09Z</time>
      </trkpt>
      <trkpt lat="49.08908" lon="6.34763">
        <ele>222.2017822</ele>
        <time>2012-11-13T14:45:15Z</time>
      </trkpt>
      <trkpt lat="49.08945" lon="6.3472">
        <ele>223.6437988</ele>
        <time>2012-11-13T14:45:22Z</time>
      </trkpt>
      <trkpt lat="49.08968" lon="6.34692">
        <ele>226.0471191</ele>
        <time>2012-11-13T14:45:28Z</time>
      </trkpt>
      <trkpt lat="49.08971" lon="6.34687">
        <ele>226.527832</ele>
        <time>2012-11-13T14:45:29Z</time>
      </trkpt>
      <trkpt lat="49.08999" lon="6.34655">
        <ele>229.4117432</ele>
        <time>2012-11-13T14:45:38Z</time>
      </trkpt>
      <trkpt lat="49.09002" lon="6.34651">
        <ele>229.892334</ele>
        <time>2012-11-13T14:45:39Z</time>
      </trkpt>
      <trkpt lat="49.0903" lon="6.34617">
        <ele>232.2957764</ele>
        <time>2012-11-13T14:45:48Z</time>
      </trkpt>
      <trkpt lat="49.0906" lon="6.34579">
        <ele>234.6990967</ele>
        <time>2012-11-13T14:45:58Z</time>
      </trkpt>
      <trkpt lat="49.09088" lon="6.34543">
        <ele>236.6217041</ele>
        <time>2012-11-13T14:46:07Z</time>
      </trkpt>
      <trkpt lat="49.09117" lon="6.34503">
        <ele>236.6217041</ele>
        <time>2012-11-13T14:46:16Z</time>
      </trkpt>
      <trkpt lat="49.09143" lon="6.34471">
        <ele>236.6217041</ele>
        <time>2012-11-13T14:46:23Z</time>
      </trkpt>
      <trkpt lat="49.09172" lon="6.3443">
        <ele>237.1022949</ele>
        <time>2012-11-13T14:46:31Z</time>
      </trkpt>
      <trkpt lat="49.09198" lon="6.34393">
        <ele>238.0635986</ele>
        <time>2012-11-13T14:46:38Z</time>
      </trkpt>
      <trkpt lat="49.09233" lon="6.34339">
        <ele>239.0249023</ele>
        <time>2012-11-13T14:46:48Z</time>
      </trkpt>
      <trkpt lat="49.09268" lon="6.34278">
        <ele>239.9862061</ele>
        <time>2012-11-13T14:46:59Z</time>
      </trkpt>
      <trkpt lat="49.09295" lon="6.34225">
        <ele>240.9476318</ele>
        <time>2012-11-13T14:47:09Z</time>
      </trkpt>
      <trkpt lat="49.09311" lon="6.34188">
        <ele>243.3508301</ele>
        <time>2012-11-13T14:47:17Z</time>
      </trkpt>
      <trkpt lat="49.09328" lon="6.34148">
        <ele>245.2734375</ele>
        <time>2012-11-13T14:47:26Z</time>
      </trkpt>
      <trkpt lat="49.09336" lon="6.34125">
        <ele>248.1575928</ele>
        <time>2012-11-13T14:47:31Z</time>
      </trkpt>
      <trkpt lat="49.09359" lon="6.34064">
        <ele>249.5994873</ele>
        <time>2012-11-13T14:47:44Z</time>
      </trkpt>
      <trkpt lat="49.09374" lon="6.34028">
        <ele>251.5220947</ele>
        <time>2012-11-13T14:47:52Z</time>
      </trkpt>
      <trkpt lat="49.09388" lon="6.3399">
        <ele>252.9639893</ele>
        <time>2012-11-13T14:48:01Z</time>
      </trkpt>
      <trkpt lat="49.09407" lon="6.3394">
        <ele>254.4060059</ele>
        <time>2012-11-13T14:48:12Z</time>
      </trkpt>
      <trkpt lat="49.09426" lon="6.33889">
        <ele>257.2900391</ele>
        <time>2012-11-13T14:48:23Z</time>
      </trkpt>
      <trkpt lat="49.09444" lon="6.33844">
        <ele>258.7319336</ele>
        <time>2012-11-13T14:48:32Z</time>
      </trkpt>
      <trkpt lat="49.09466" lon="6.33786">
        <ele>260.1739502</ele>
        <time>2012-11-13T14:48:42Z</time>
      </trkpt>
      <trkpt lat="49.09472" lon="6.33767">
        <ele>261.1352539</ele>
        <time>2012-11-13T14:48:45Z</time>
      </trkpt>
      <trkpt lat="49.0949" lon="6.33706">
        <ele>261.6159668</ele>
        <time>2012-11-13T14:48:55Z</time>
      </trkpt>
      <trkpt lat="49.09513" lon="6.33635">
        <ele>263.0578613</ele>
        <time>2012-11-13T14:49:07Z</time>
      </trkpt>
      <trkpt lat="49.09534" lon="6.33581">
        <ele>264.4998779</ele>
        <time>2012-11-13T14:49:17Z</time>
      </trkpt>
      <trkpt lat="49.09558" lon="6.33525">
        <ele>265.9418945</ele>
        <time>2012-11-13T14:49:27Z</time>
      </trkpt>
      <trkpt lat="49.09576" lon="6.33485">
        <ele>266.4224854</ele>
        <time>2012-11-13T14:49:34Z</time>
      </trkpt>
      <trkpt lat="49.096" lon="6.33439">
        <ele>267.864502</ele>
        <time>2012-11-13T14:49:42Z</time>
      </trkpt>
      <trkpt lat="49.09624" lon="6.33391">
        <ele>266.9031982</ele>
        <time>2012-11-13T14:49:49Z</time>
      </trkpt>
      <trkpt lat="49.09653" lon="6.33336">
        <ele>264.4998779</ele>
        <time>2012-11-13T14:49:56Z</time>
      </trkpt>
      <trkpt lat="49.09694" lon="6.33264">
        <ele>263.5385742</ele>
        <time>2012-11-13T14:50:05Z</time>
      </trkpt>
      <trkpt lat="49.09728" lon="6.33196">
        <ele>264.0192871</ele>
        <time>2012-11-13T14:50:13Z</time>
      </trkpt>
      <trkpt lat="49.09748" lon="6.3313">
        <ele>263.5385742</ele>
        <time>2012-11-13T14:50:20Z</time>
      </trkpt>
      <trkpt lat="49.09766" lon="6.33039">
        <ele>264.0192871</ele>
        <time>2012-11-13T14:50:29Z</time>
      </trkpt>
      <trkpt lat="49.09767" lon="6.32972">
        <ele>262.5771484</ele>
        <time>2012-11-13T14:50:35Z</time>
      </trkpt>
      <trkpt lat="49.09759" lon="6.32907">
        <ele>262.0965576</ele>
        <time>2012-11-13T14:50:41Z</time>
      </trkpt>
      <trkpt lat="49.09753" lon="6.32847">
        <ele>263.0578613</ele>
        <time>2012-11-13T14:50:47Z</time>
      </trkpt>
      <trkpt lat="49.09748" lon="6.32749">
        <ele>263.5385742</ele>
        <time>2012-11-13T14:50:56Z</time>
      </trkpt>
      <trkpt lat="49.09745" lon="6.32666">
        <ele>264.4998779</ele>
        <time>2012-11-13T14:51:04Z</time>
      </trkpt>
      <trkpt lat="49.09747" lon="6.32631">
        <ele>265.9418945</ele>
        <time>2012-11-13T14:51:08Z</time>
      </trkpt>
      <trkpt lat="49.09763" lon="6.32585">
        <ele>266.4224854</ele>
        <time>2012-11-13T14:51:14Z</time>
      </trkpt>
      <trkpt lat="49.09802" lon="6.32525">
        <ele>266.9031982</ele>
        <time>2012-11-13T14:51:23Z</time>
      </trkpt>
      <trkpt lat="49.09836" lon="6.32486">
        <ele>266.4224854</ele>
        <time>2012-11-13T14:51:29Z</time>
      </trkpt>
      <trkpt lat="49.09857" lon="6.32469">
        <ele>268.3450928</ele>
        <time>2012-11-13T14:51:32Z</time>
      </trkpt>
      <trkpt lat="49.0987" lon="6.32458">
        <ele>264.9805908</ele>
        <time>2012-11-13T14:51:34Z</time>
      </trkpt>
      <trkpt lat="49.09919" lon="6.32419">
        <ele>264.4998779</ele>
        <time>2012-11-13T14:51:41Z</time>
      </trkpt>
      <trkpt lat="49.09963" lon="6.32383">
        <ele>264.0192871</ele>
        <time>2012-11-13T14:51:47Z</time>
      </trkpt>
      <trkpt lat="49.10008" lon="6.32335">
        <ele>264.4998779</ele>
        <time>2012-11-13T14:51:54Z</time>
      </trkpt>
      <trkpt lat="49.1005" lon="6.32294">
        <ele>265.9418945</ele>
        <time>2012-11-13T14:52:01Z</time>
      </trkpt>
      <trkpt lat="49.10088" lon="6.32252">
        <ele>266.9031982</ele>
        <time>2012-11-13T14:52:08Z</time>
      </trkpt>
      <trkpt lat="49.1014" lon="6.32194">
        <ele>266.4224854</ele>
        <time>2012-11-13T14:52:17Z</time>
      </trkpt>
      <trkpt lat="49.10189" lon="6.32126">
        <ele>266.9031982</ele>
        <time>2012-11-13T14:52:26Z</time>
      </trkpt>
      <trkpt lat="49.10214" lon="6.32064">
        <ele>264.9805908</ele>
        <time>2012-11-13T14:52:32Z</time>
      </trkpt>
      <trkpt lat="49.1023" lon="6.31993">
        <ele>265.4613037</ele>
        <time>2012-11-13T14:52:38Z</time>
      </trkpt>
      <trkpt lat="49.10239" lon="6.31916">
        <ele>265.4613037</ele>
        <time>2012-11-13T14:52:44Z</time>
      </trkpt>
      <trkpt lat="49.10235" lon="6.31837">
        <ele>262.5771484</ele>
        <time>2012-11-13T14:52:50Z</time>
      </trkpt>
      <trkpt lat="49.1022" lon="6.31735">
        <ele>262.0965576</ele>
        <time>2012-11-13T14:52:58Z</time>
      </trkpt>
      <trkpt lat="49.10207" lon="6.31628">
        <ele>260.654541</ele>
        <time>2012-11-13T14:53:06Z</time>
      </trkpt>
      <trkpt lat="49.10202" lon="6.31513">
        <ele>259.2126465</ele>
        <time>2012-11-13T14:53:14Z</time>
      </trkpt>
      <trkpt lat="49.10196" lon="6.31383">
        <ele>258.7319336</ele>
        <time>2012-11-13T14:53:23Z</time>
      </trkpt>
      <trkpt lat="49.10189" lon="6.31271">
        <ele>258.7319336</ele>
        <time>2012-11-13T14:53:31Z</time>
      </trkpt>
      <trkpt lat="49.10181" lon="6.31161">
        <ele>257.770752</ele>
        <time>2012-11-13T14:53:39Z</time>
      </trkpt>
      <trkpt lat="49.10176" lon="6.31037">
        <ele>256.3287354</ele>
        <time>2012-11-13T14:53:48Z</time>
      </trkpt>
      <trkpt lat="49.10177" lon="6.30944">
        <ele>256.3287354</ele>
        <time>2012-11-13T14:53:55Z</time>
      </trkpt>
      <trkpt lat="49.10184" lon="6.30839">
        <ele>255.3673096</ele>
        <time>2012-11-13T14:54:03Z</time>
      </trkpt>
      <trkpt lat="49.10196" lon="6.30736">
        <ele>253.925415</ele>
        <time>2012-11-13T14:54:11Z</time>
      </trkpt>
      <trkpt lat="49.10215" lon="6.30605">
        <ele>253.925415</ele>
        <time>2012-11-13T14:54:21Z</time>
      </trkpt>
      <trkpt lat="49.10235" lon="6.30463">
        <ele>253.4447021</ele>
        <time>2012-11-13T14:54:32Z</time>
      </trkpt>
      <trkpt lat="49.10257" lon="6.30305">
        <ele>252.9639893</ele>
        <time>2012-11-13T14:54:44Z</time>
      </trkpt>
      <trkpt lat="49.1028" lon="6.30153">
        <ele>253.4447021</ele>
        <time>2012-11-13T14:54:56Z</time>
      </trkpt>
      <trkpt lat="49.10302" lon="6.30027">
        <ele>253.4447021</ele>
        <time>2012-11-13T14:55:06Z</time>
      </trkpt>
      <trkpt lat="49.10315" lon="6.29945">
        <ele>252.9639893</ele>
        <time>2012-11-13T14:55:13Z</time>
      </trkpt>
      <trkpt lat="49.10327" lon="6.29873">
        <ele>252.4833984</ele>
        <time>2012-11-13T14:55:20Z</time>
      </trkpt>
      <trkpt lat="49.10331" lon="6.29855">
        <ele>252.4833984</ele>
        <time>2012-11-13T14:55:22Z</time>
      </trkpt>
      <trkpt lat="49.10323" lon="6.29828">
        <ele>252.4833984</ele>
        <time>2012-11-13T14:55:26Z</time>
      </trkpt>
      <trkpt lat="49.10311" lon="6.29824">
        <ele>252.4833984</ele>
        <time>2012-11-13T14:55:28Z</time>
      </trkpt>
      <trkpt lat="49.10247" lon="6.29813">
        <ele>250.560791</ele>
        <time>2012-11-13T14:55:36Z</time>
      </trkpt>
      <trkpt lat="49.10188" lon="6.29802">
        <ele>248.1575928</ele>
        <time>2012-11-13T14:55:43Z</time>
      </trkpt>
      <trkpt lat="49.10154" lon="6.29796">
        <ele>246.7154541</ele>
        <time>2012-11-13T14:55:47Z</time>
      </trkpt>
      <trkpt lat="49.10115" lon="6.29787">
        <ele>244.7928467</ele>
        <time>2012-11-13T14:55:52Z</time>
      </trkpt>
      <trkpt lat="49.10088" lon="6.29767">
        <ele>244.3122559</ele>
        <time>2012-11-13T14:55:56Z</time>
      </trkpt>
      <trkpt lat="49.1008" lon="6.29747">
        <ele>243.831543</ele>
        <time>2012-11-13T14:55:58Z</time>
      </trkpt>
      <trkpt lat="49.10069" lon="6.29702">
        <ele>242.8702393</ele>
        <time>2012-11-13T14:56:02Z</time>
      </trkpt>
      <trkpt lat="49.10054" lon="6.29668">
        <ele>243.831543</ele>
        <time>2012-11-13T14:56:06Z</time>
      </trkpt>
      <trkpt lat="49.10039" lon="6.29665">
        <ele>242.8702393</ele>
        <time>2012-11-13T14:56:08Z</time>
      </trkpt>
      <trkpt lat="49.10032" lon="6.29667">
        <ele>242.3896484</ele>
        <time>2012-11-13T14:56:09Z</time>
      </trkpt>
      <trkpt lat="49.10024" lon="6.29671">
        <ele>242.3896484</ele>
        <time>2012-11-13T14:56:10Z</time>
      </trkpt>
      <trkpt lat="49.09972" lon="6.29712">
        <ele>244.3122559</ele>
        <time>2012-11-13T14:56:18Z</time>
      </trkpt>
      <trkpt lat="49.09944" lon="6.29732">
        <ele>244.3122559</ele>
        <time>2012-11-13T14:56:23Z</time>
      </trkpt>
      <trkpt lat="49.0993" lon="6.2974">
        <ele>245.7541504</ele>
        <time>2012-11-13T14:56:26Z</time>
      </trkpt>
      <trkpt lat="49.09914" lon="6.29733">
        <ele>243.831543</ele>
        <time>2012-11-13T14:56:30Z</time>
      </trkpt>
      <trkpt lat="49.09912" lon="6.29726">
        <ele>245.2734375</ele>
        <time>2012-11-13T14:56:31Z</time>
      </trkpt>
      <trkpt lat="49.099" lon="6.29659">
        <ele>245.2734375</ele>
        <time>2012-11-13T14:56:38Z</time>
      </trkpt>
      <trkpt lat="49.09883" lon="6.29566">
        <ele>243.831543</ele>
        <time>2012-11-13T14:56:47Z</time>
      </trkpt>
      <trkpt lat="49.09868" lon="6.2948">
        <ele>243.3508301</ele>
        <time>2012-11-13T14:56:55Z</time>
      </trkpt>
      <trkpt lat="49.09864" lon="6.29405">
        <ele>243.3508301</ele>
        <time>2012-11-13T14:57:02Z</time>
      </trkpt>
      <trkpt lat="49.09859" lon="6.29348">
        <ele>242.8702393</ele>
        <time>2012-11-13T14:57:07Z</time>
      </trkpt>
      <trkpt lat="49.09844" lon="6.29276">
        <ele>242.8702393</ele>
        <time>2012-11-13T14:57:14Z</time>
      </trkpt>
      <trkpt lat="49.0982" lon="6.29202">
        <ele>241.9089355</ele>
        <time>2012-11-13T14:57:21Z</time>
      </trkpt>
      <trkpt lat="49.09789" lon="6.29116">
        <ele>239.9862061</ele>
        <time>2012-11-13T14:57:29Z</time>
      </trkpt>
      <trkpt lat="49.09778" lon="6.29082">
        <ele>238.5443115</ele>
        <time>2012-11-13T14:57:32Z</time>
      </trkpt>
      <trkpt lat="49.09743" lon="6.28984">
        <ele>236.6217041</ele>
        <time>2012-11-13T14:57:40Z</time>
      </trkpt>
      <trkpt lat="49.09701" lon="6.28895">
        <ele>235.6602783</ele>
        <time>2012-11-13T14:57:47Z</time>
      </trkpt>
      <trkpt lat="49.09662" lon="6.28826">
        <ele>235.1796875</ele>
        <time>2012-11-13T14:57:53Z</time>
      </trkpt>
      <trkpt lat="49.09638" lon="6.28746">
        <ele>233.7376709</ele>
        <time>2012-11-13T14:57:59Z</time>
      </trkpt>
      <trkpt lat="49.09609" lon="6.28621">
        <ele>232.7764893</ele>
        <time>2012-11-13T14:58:08Z</time>
      </trkpt>
      <trkpt lat="49.09586" lon="6.2854">
        <ele>231.8149414</ele>
        <time>2012-11-13T14:58:14Z</time>
      </trkpt>
      <trkpt lat="49.09572" lon="6.28503">
        <ele>233.7376709</ele>
        <time>2012-11-13T14:58:17Z</time>
      </trkpt>
      <trkpt lat="49.09541" lon="6.28422">
        <ele>235.1796875</ele>
        <time>2012-11-13T14:58:24Z</time>
      </trkpt>
      <trkpt lat="49.09513" lon="6.28347">
        <ele>235.6602783</ele>
        <time>2012-11-13T14:58:31Z</time>
      </trkpt>
      <trkpt lat="49.09497" lon="6.28279">
        <ele>236.1409912</ele>
        <time>2012-11-13T14:58:37Z</time>
      </trkpt>
      <trkpt lat="49.09482" lon="6.28159">
        <ele>237.1022949</ele>
        <time>2012-11-13T14:58:47Z</time>
      </trkpt>
      <trkpt lat="49.09475" lon="6.28111">
        <ele>237.1022949</ele>
        <time>2012-11-13T14:58:51Z</time>
      </trkpt>
      <trkpt lat="49.09459" lon="6.28068">
        <ele>237.1022949</ele>
        <time>2012-11-13T14:58:55Z</time>
      </trkpt>
      <trkpt lat="49.09432" lon="6.28005">
        <ele>237.1022949</ele>
        <time>2012-11-13T14:59:01Z</time>
      </trkpt>
      <trkpt lat="49.09416" lon="6.27937">
        <ele>236.6217041</ele>
        <time>2012-11-13T14:59:07Z</time>
      </trkpt>
      <trkpt lat="49.09398" lon="6.27851">
        <ele>236.6217041</ele>
        <time>2012-11-13T14:59:15Z</time>
      </trkpt>
      <trkpt lat="49.09385" lon="6.27743">
        <ele>236.1409912</ele>
        <time>2012-11-13T14:59:24Z</time>
      </trkpt>
      <trkpt lat="49.09384" lon="6.27731">
        <ele>236.1409912</ele>
        <time>2012-11-13T14:59:25Z</time>
      </trkpt>
      <trkpt lat="49.09372" lon="6.2763">
        <ele>234.6990967</ele>
        <time>2012-11-13T14:59:33Z</time>
      </trkpt>
      <trkpt lat="49.09361" lon="6.27545">
        <ele>234.2183838</ele>
        <time>2012-11-13T14:59:40Z</time>
      </trkpt>
      <trkpt lat="49.09345" lon="6.27513">
        <ele>232.2957764</ele>
        <time>2012-11-13T14:59:44Z</time>
      </trkpt>
      <trkpt lat="49.09339" lon="6.27509">
        <ele>232.2957764</ele>
        <time>2012-11-13T14:59:45Z</time>
      </trkpt>
      <trkpt lat="49.09332" lon="6.27505">
        <ele>232.7764893</ele>
        <time>2012-11-13T14:59:46Z</time>
      </trkpt>
      <trkpt lat="49.09292" lon="6.27488">
        <ele>230.8537598</ele>
        <time>2012-11-13T14:59:52Z</time>
      </trkpt>
      <trkpt lat="49.09279" lon="6.27482">
        <ele>230.8537598</ele>
        <time>2012-11-13T14:59:55Z</time>
      </trkpt>
      <trkpt lat="49.09271" lon="6.27459">
        <ele>229.892334</ele>
        <time>2012-11-13T14:59:59Z</time>
      </trkpt>
      <trkpt lat="49.09272" lon="6.27449">
        <ele>229.4117432</ele>
        <time>2012-11-13T15:00:00Z</time>
      </trkpt>
      <trkpt lat="49.09283" lon="6.27367">
        <ele>227.4891357</ele>
        <time>2012-11-13T15:00:07Z</time>
      </trkpt>
      <trkpt lat="49.09293" lon="6.2727">
        <ele>225.5665283</ele>
        <time>2012-11-13T15:00:14Z</time>
      </trkpt>
      <trkpt lat="49.09296" lon="6.27243">
        <ele>224.6052246</ele>
        <time>2012-11-13T15:00:16Z</time>
      </trkpt>
      <trkpt lat="49.09303" lon="6.27195">
        <ele>226.0471191</ele>
        <time>2012-11-13T15:00:20Z</time>
      </trkpt>
      <trkpt lat="49.09309" lon="6.27134">
        <ele>227.9697266</ele>
        <time>2012-11-13T15:00:26Z</time>
      </trkpt>
      <trkpt lat="49.09309" lon="6.27115">
        <ele>228.9311523</ele>
        <time>2012-11-13T15:00:28Z</time>
      </trkpt>
      <trkpt lat="49.09302" lon="6.27078">
        <ele>230.3730469</ele>
        <time>2012-11-13T15:00:32Z</time>
      </trkpt>
      <trkpt lat="49.09285" lon="6.27016">
        <ele>231.8149414</ele>
        <time>2012-11-13T15:00:39Z</time>
      </trkpt>
      <trkpt lat="49.09263" lon="6.2694">
        <ele>232.7764893</ele>
        <time>2012-11-13T15:00:47Z</time>
      </trkpt>
      <trkpt lat="49.09249" lon="6.26904">
        <ele>232.7764893</ele>
        <time>2012-11-13T15:00:51Z</time>
      </trkpt>
      <trkpt lat="49.09223" lon="6.26855">
        <ele>233.2570801</ele>
        <time>2012-11-13T15:00:58Z</time>
      </trkpt>
      <trkpt lat="49.09197" lon="6.26809">
        <ele>233.2570801</ele>
        <time>2012-11-13T15:01:04Z</time>
      </trkpt>
      <trkpt lat="49.09178" lon="6.26769">
        <ele>232.7764893</ele>
        <time>2012-11-13T15:01:09Z</time>
      </trkpt>
      <trkpt lat="49.09163" lon="6.2672">
        <ele>233.7376709</ele>
        <time>2012-11-13T15:01:14Z</time>
      </trkpt>
      <trkpt lat="49.09149" lon="6.26659">
        <ele>233.7376709</ele>
        <time>2012-11-13T15:01:21Z</time>
      </trkpt>
      <trkpt lat="49.09135" lon="6.26587">
        <ele>235.6602783</ele>
        <time>2012-11-13T15:01:29Z</time>
      </trkpt>
      <trkpt lat="49.09128" lon="6.26549">
        <ele>236.6217041</ele>
        <time>2012-11-13T15:01:33Z</time>
      </trkpt>
      <trkpt lat="49.09118" lon="6.26481">
        <ele>237.1022949</ele>
        <time>2012-11-13T15:01:40Z</time>
      </trkpt>
      <trkpt lat="49.09118" lon="6.26418">
        <ele>239.0249023</ele>
        <time>2012-11-13T15:01:46Z</time>
      </trkpt>
      <trkpt lat="49.09131" lon="6.26306">
        <ele>239.5054932</ele>
        <time>2012-11-13T15:01:57Z</time>
      </trkpt>
      <trkpt lat="49.09141" lon="6.26213">
        <ele>239.5054932</ele>
        <time>2012-11-13T15:02:06Z</time>
      </trkpt>
      <trkpt lat="49.09146" lon="6.26115">
        <ele>240.467041</ele>
        <time>2012-11-13T15:02:15Z</time>
      </trkpt>
      <trkpt lat="49.0914" lon="6.26028">
        <ele>240.9476318</ele>
        <time>2012-11-13T15:02:23Z</time>
      </trkpt>
      <trkpt lat="49.09134" lon="6.25956">
        <ele>242.3896484</ele>
        <time>2012-11-13T15:02:30Z</time>
      </trkpt>
      <trkpt lat="49.09135" lon="6.25925">
        <ele>239.9862061</ele>
        <time>2012-11-13T15:02:34Z</time>
      </trkpt>
      <trkpt lat="49.09142" lon="6.259">
        <ele>240.9476318</ele>
        <time>2012-11-13T15:02:38Z</time>
      </trkpt>
      <trkpt lat="49.09146" lon="6.25865">
        <ele>240.9476318</ele>
        <time>2012-11-13T15:02:42Z</time>
      </trkpt>
      <trkpt lat="49.09134" lon="6.25842">
        <ele>240.9476318</ele>
        <time>2012-11-13T15:02:45Z</time>
      </trkpt>
      <trkpt lat="49.09115" lon="6.25838">
        <ele>241.4282227</ele>
        <time>2012-11-13T15:02:48Z</time>
      </trkpt>
      <trkpt lat="49.09108" lon="6.2584">
        <ele>242.8702393</ele>
        <time>2012-11-13T15:02:49Z</time>
      </trkpt>
      <trkpt lat="49.09095" lon="6.25846">
        <ele>242.3896484</ele>
        <time>2012-11-13T15:02:51Z</time>
      </trkpt>
      <trkpt lat="49.0906" lon="6.25849">
        <ele>241.9089355</ele>
        <time>2012-11-13T15:02:56Z</time>
      </trkpt>
      <trkpt lat="49.09029" lon="6.25868">
        <ele>241.4282227</ele>
        <time>2012-11-13T15:03:01Z</time>
      </trkpt>
      <trkpt lat="49.09019" lon="6.25884">
        <ele>241.4282227</ele>
        <time>2012-11-13T15:03:03Z</time>
      </trkpt>
      <trkpt lat="49.09005" lon="6.25909">
        <ele>242.8702393</ele>
        <time>2012-11-13T15:03:06Z</time>
      </trkpt>
      <trkpt lat="49.08972" lon="6.25966">
        <ele>240.9476318</ele>
        <time>2012-11-13T15:03:13Z</time>
      </trkpt>
      <trkpt lat="49.0893" lon="6.26042">
        <ele>240.9476318</ele>
        <time>2012-11-13T15:03:21Z</time>
      </trkpt>
      <trkpt lat="49.08912" lon="6.26071">
        <ele>239.0249023</ele>
        <time>2012-11-13T15:03:24Z</time>
      </trkpt>
      <trkpt lat="49.08895" lon="6.26102">
        <ele>237.5828857</ele>
        <time>2012-11-13T15:03:27Z</time>
      </trkpt>
      <trkpt lat="49.08871" lon="6.26141">
        <ele>236.6217041</ele>
        <time>2012-11-13T15:03:31Z</time>
      </trkpt>
      <trkpt lat="49.08838" lon="6.26179">
        <ele>235.6602783</ele>
        <time>2012-11-13T15:03:36Z</time>
      </trkpt>
      <trkpt lat="49.0879" lon="6.26217">
        <ele>236.1409912</ele>
        <time>2012-11-13T15:03:42Z</time>
      </trkpt>
      <trkpt lat="49.08782" lon="6.26222">
        <ele>236.1409912</ele>
        <time>2012-11-13T15:03:43Z</time>
      </trkpt>
      <trkpt lat="49.08729" lon="6.26245">
        <ele>236.6217041</ele>
        <time>2012-11-13T15:03:50Z</time>
      </trkpt>
      <trkpt lat="49.08684" lon="6.26263">
        <ele>238.0635986</ele>
        <time>2012-11-13T15:03:57Z</time>
      </trkpt>
      <trkpt lat="49.08628" lon="6.26286">
        <ele>239.9862061</ele>
        <time>2012-11-13T15:04:07Z</time>
      </trkpt>
      <trkpt lat="49.08575" lon="6.26307">
        <ele>240.467041</ele>
        <time>2012-11-13T15:04:16Z</time>
      </trkpt>
      <trkpt lat="49.08516" lon="6.26331">
        <ele>239.0249023</ele>
        <time>2012-11-13T15:04:25Z</time>
      </trkpt>
      <trkpt lat="49.08468" lon="6.26356">
        <ele>238.5443115</ele>
        <time>2012-11-13T15:04:32Z</time>
      </trkpt>
      <trkpt lat="49.08414" lon="6.26399">
        <ele>236.6217041</ele>
        <time>2012-11-13T15:04:40Z</time>
      </trkpt>
      <trkpt lat="49.0836" lon="6.26435">
        <ele>236.6217041</ele>
        <time>2012-11-13T15:04:48Z</time>
      </trkpt>
      <trkpt lat="49.08315" lon="6.26452">
        <ele>237.1022949</ele>
        <time>2012-11-13T15:04:55Z</time>
      </trkpt>
      <trkpt lat="49.0826" lon="6.26471">
        <ele>239.0249023</ele>
        <time>2012-11-13T15:05:04Z</time>
      </trkpt>
      <trkpt lat="49.08211" lon="6.26488">
        <ele>239.9862061</ele>
        <time>2012-11-13T15:05:12Z</time>
      </trkpt>
      <trkpt lat="49.08155" lon="6.26507">
        <ele>238.5443115</ele>
        <time>2012-11-13T15:05:21Z</time>
      </trkpt>
      <trkpt lat="49.08098" lon="6.26525">
        <ele>239.0249023</ele>
        <time>2012-11-13T15:05:29Z</time>
      </trkpt>
      <trkpt lat="49.08046" lon="6.26533">
        <ele>237.5828857</ele>
        <time>2012-11-13T15:05:36Z</time>
      </trkpt>
      <trkpt lat="49.07977" lon="6.26535">
        <ele>238.0635986</ele>
        <time>2012-11-13T15:05:45Z</time>
      </trkpt>
      <trkpt lat="49.07942" lon="6.26536">
        <ele>235.1796875</ele>
        <time>2012-11-13T15:05:49Z</time>
      </trkpt>
      <trkpt lat="49.07891" lon="6.26538">
        <ele>231.3343506</ele>
        <time>2012-11-13T15:05:54Z</time>
      </trkpt>
      <trkpt lat="49.07836" lon="6.2654">
        <ele>228.4504395</ele>
        <time>2012-11-13T15:05:59Z</time>
      </trkpt>
      <trkpt lat="49.07791" lon="6.26531">
        <ele>224.6052246</ele>
        <time>2012-11-13T15:06:03Z</time>
      </trkpt>
      <trkpt lat="49.0777" lon="6.26522">
        <ele>223.163208</ele>
        <time>2012-11-13T15:06:05Z</time>
      </trkpt>
      <trkpt lat="49.07728" lon="6.26494">
        <ele>221.2406006</ele>
        <time>2012-11-13T15:06:09Z</time>
      </trkpt>
      <trkpt lat="49.07718" lon="6.26485">
        <ele>221.2406006</ele>
        <time>2012-11-13T15:06:10Z</time>
      </trkpt>
      <trkpt lat="49.07683" lon="6.2644">
        <ele>217.3953857</ele>
        <time>2012-11-13T15:06:14Z</time>
      </trkpt>
      <trkpt lat="49.07674" lon="6.26429">
        <ele>217.3953857</ele>
        <time>2012-11-13T15:06:15Z</time>
      </trkpt>
      <trkpt lat="49.07638" lon="6.26363">
        <ele>214.9919434</ele>
        <time>2012-11-13T15:06:20Z</time>
      </trkpt>
      <trkpt lat="49.076" lon="6.26265">
        <ele>212.588623</ele>
        <time>2012-11-13T15:06:27Z</time>
      </trkpt>
      <trkpt lat="49.07567" lon="6.26162">
        <ele>211.6274414</ele>
        <time>2012-11-13T15:06:34Z</time>
      </trkpt>
      <trkpt lat="49.07557" lon="6.26086">
        <ele>211.1467285</ele>
        <time>2012-11-13T15:06:39Z</time>
      </trkpt>
      <trkpt lat="49.07544" lon="6.25971">
        <ele>210.6660156</ele>
        <time>2012-11-13T15:06:47Z</time>
      </trkpt>
      <trkpt lat="49.07535" lon="6.25872">
        <ele>210.6660156</ele>
        <time>2012-11-13T15:06:54Z</time>
      </trkpt>
      <trkpt lat="49.07527" lon="6.25784">
        <ele>210.6660156</ele>
        <time>2012-11-13T15:07:01Z</time>
      </trkpt>
      <trkpt lat="49.07519" lon="6.25707">
        <ele>210.6660156</ele>
        <time>2012-11-13T15:07:08Z</time>
      </trkpt>
      <trkpt lat="49.075" lon="6.25649">
        <ele>210.1854248</ele>
        <time>2012-11-13T15:07:14Z</time>
      </trkpt>
      <trkpt lat="49.07477" lon="6.25617">
        <ele>209.704834</ele>
        <time>2012-11-13T15:07:18Z</time>
      </trkpt>
      <trkpt lat="49.07418" lon="6.25547">
        <ele>208.2628174</ele>
        <time>2012-11-13T15:07:27Z</time>
      </trkpt>
      <trkpt lat="49.07385" lon="6.25488">
        <ele>206.8206787</ele>
        <time>2012-11-13T15:07:33Z</time>
      </trkpt>
      <trkpt lat="49.07353" lon="6.25407">
        <ele>205.3787842</ele>
        <time>2012-11-13T15:07:40Z</time>
      </trkpt>
      <trkpt lat="49.07323" lon="6.25332">
        <ele>202.9754639</ele>
        <time>2012-11-13T15:07:47Z</time>
      </trkpt>
      <trkpt lat="49.07302" lon="6.25307">
        <ele>202.494873</ele>
        <time>2012-11-13T15:07:51Z</time>
      </trkpt>
      <trkpt lat="49.07286" lon="6.25308">
        <ele>202.494873</ele>
        <time>2012-11-13T15:07:53Z</time>
      </trkpt>
      <trkpt lat="49.07228" lon="6.25338">
        <ele>200.5722656</ele>
        <time>2012-11-13T15:08:00Z</time>
      </trkpt>
      <trkpt lat="49.07204" lon="6.2535">
        <ele>200.5722656</ele>
        <time>2012-11-13T15:08:03Z</time>
      </trkpt>
      <trkpt lat="49.07178" lon="6.25336">
        <ele>200.0916748</ele>
        <time>2012-11-13T15:08:07Z</time>
      </trkpt>
      <trkpt lat="49.07174" lon="6.25325">
        <ele>199.130127</ele>
        <time>2012-11-13T15:08:08Z</time>
      </trkpt>
      <trkpt lat="49.07142" lon="6.25248">
        <ele>197.6882324</ele>
        <time>2012-11-13T15:08:16Z</time>
      </trkpt>
      <trkpt lat="49.07117" lon="6.25222">
        <ele>196.7269287</ele>
        <time>2012-11-13T15:08:20Z</time>
      </trkpt>
      <trkpt lat="49.07094" lon="6.25231">
        <ele>195.2849121</ele>
        <time>2012-11-13T15:08:23Z</time>
      </trkpt>
      <trkpt lat="49.07079" lon="6.2524">
        <ele>195.2849121</ele>
        <time>2012-11-13T15:08:25Z</time>
      </trkpt>
      <trkpt lat="49.07048" lon="6.25242">
        <ele>194.8043213</ele>
        <time>2012-11-13T15:08:29Z</time>
      </trkpt>
      <trkpt lat="49.07026" lon="6.25247">
        <ele>194.3237305</ele>
        <time>2012-11-13T15:08:32Z</time>
      </trkpt>
      <trkpt lat="49.07019" lon="6.25253">
        <ele>194.3237305</ele>
        <time>2012-11-13T15:08:33Z</time>
      </trkpt>
      <trkpt lat="49.06973" lon="6.2528">
        <ele>193.8430176</ele>
        <time>2012-11-13T15:08:40Z</time>
      </trkpt>
      <trkpt lat="49.06962" lon="6.25286">
        <ele>193.8430176</ele>
        <time>2012-11-13T15:08:43Z</time>
      </trkpt>
      <trkpt lat="49.06959" lon="6.25287">
        <ele>193.8430176</ele>
        <time>2012-11-13T15:08:47Z</time>
      </trkpt>
      <trkpt lat="49.06958" lon="6.25286">
        <ele>193.8430176</ele>
        <time>2012-11-13T15:08:51Z</time>
      </trkpt>
      <trkpt lat="49.06957" lon="6.25286">
        <ele>193.8430176</ele>
        <time>2012-11-13T15:08:52Z</time>
      </trkpt>
      <trkpt lat="49.06953" lon="6.25273">
        <ele>193.8430176</ele>
        <time>2012-11-13T15:08:55Z</time>
      </trkpt>
      <trkpt lat="49.06948" lon="6.25232">
        <ele>193.3623047</ele>
        <time>2012-11-13T15:09:00Z</time>
      </trkpt>
      <trkpt lat="49.06941" lon="6.25182">
        <ele>191.4395752</ele>
        <time>2012-11-13T15:09:05Z</time>
      </trkpt>
      <trkpt lat="49.06925" lon="6.25121">
        <ele>191.9202881</ele>
        <time>2012-11-13T15:09:11Z</time>
      </trkpt>
      <trkpt lat="49.06914" lon="6.25095">
        <ele>191.9202881</ele>
        <time>2012-11-13T15:09:14Z</time>
      </trkpt>
      <trkpt lat="49.06893" lon="6.25067">
        <ele>192.8817139</ele>
        <time>2012-11-13T15:09:18Z</time>
      </trkpt>
      <trkpt lat="49.06879" lon="6.25057">
        <ele>191.4395752</ele>
        <time>2012-11-13T15:09:20Z</time>
      </trkpt>
      <trkpt lat="49.06853" lon="6.25017">
        <ele>191.9202881</ele>
        <time>2012-11-13T15:09:25Z</time>
      </trkpt>
      <trkpt lat="49.06846" lon="6.24994">
        <ele>191.9202881</ele>
        <time>2012-11-13T15:09:27Z</time>
      </trkpt>
      <trkpt lat="49.06825" lon="6.24877">
        <ele>190.9589844</ele>
        <time>2012-11-13T15:09:36Z</time>
      </trkpt>
      <trkpt lat="49.06813" lon="6.248">
        <ele>189.5169678</ele>
        <time>2012-11-13T15:09:42Z</time>
      </trkpt>
      <trkpt lat="49.06791" lon="6.2468">
        <ele>189.036377</ele>
        <time>2012-11-13T15:09:52Z</time>
      </trkpt>
      <trkpt lat="49.06773" lon="6.24576">
        <ele>188.0750732</ele>
        <time>2012-11-13T15:10:01Z</time>
      </trkpt>
      <trkpt lat="49.06766" lon="6.24529">
        <ele>187.5943604</ele>
        <time>2012-11-13T15:10:06Z</time>
      </trkpt>
      <trkpt lat="49.06765" lon="6.24495">
        <ele>188.0750732</ele>
        <time>2012-11-13T15:10:10Z</time>
      </trkpt>
      <trkpt lat="49.06762" lon="6.24454">
        <ele>188.5557861</ele>
        <time>2012-11-13T15:10:15Z</time>
      </trkpt>
      <trkpt lat="49.06744" lon="6.24442">
        <ele>189.036377</ele>
        <time>2012-11-13T15:10:18Z</time>
      </trkpt>
      <trkpt lat="49.06724" lon="6.2445">
        <ele>189.5169678</ele>
        <time>2012-11-13T15:10:21Z</time>
      </trkpt>
      <trkpt lat="49.06715" lon="6.24476">
        <ele>189.5169678</ele>
        <time>2012-11-13T15:10:24Z</time>
      </trkpt>
      <trkpt lat="49.06714" lon="6.24498">
        <ele>190.4783936</ele>
        <time>2012-11-13T15:10:26Z</time>
      </trkpt>
      <trkpt lat="49.06702" lon="6.24537">
        <ele>189.5169678</ele>
        <time>2012-11-13T15:10:30Z</time>
      </trkpt>
      <trkpt lat="49.06651" lon="6.24638">
        <ele>190.4783936</ele>
        <time>2012-11-13T15:10:41Z</time>
      </trkpt>
      <trkpt lat="49.06614" lon="6.24708">
        <ele>190.4783936</ele>
        <time>2012-11-13T15:10:49Z</time>
      </trkpt>
      <trkpt lat="49.06576" lon="6.24772">
        <ele>189.5169678</ele>
        <time>2012-11-13T15:10:57Z</time>
      </trkpt>
      <trkpt lat="49.06549" lon="6.24814">
        <ele>191.4395752</ele>
        <time>2012-11-13T15:11:04Z</time>
      </trkpt>
      <trkpt lat="49.0652" lon="6.24844">
        <ele>192.8817139</ele>
        <time>2012-11-13T15:11:11Z</time>
      </trkpt>
      <trkpt lat="49.06491" lon="6.24846">
        <ele>193.3623047</ele>
        <time>2012-11-13T15:11:17Z</time>
      </trkpt>
      <trkpt lat="49.06475" lon="6.2484">
        <ele>193.8430176</ele>
        <time>2012-11-13T15:11:20Z</time>
      </trkpt>
      <trkpt lat="49.0645" lon="6.24826">
        <ele>193.8430176</ele>
        <time>2012-11-13T15:11:25Z</time>
      </trkpt>
      <trkpt lat="49.06422" lon="6.24785">
        <ele>194.8043213</ele>
        <time>2012-11-13T15:11:32Z</time>
      </trkpt>
      <trkpt lat="49.06406" lon="6.24759">
        <ele>194.3237305</ele>
        <time>2012-11-13T15:11:36Z</time>
      </trkpt>
      <trkpt lat="49.06393" lon="6.24724">
        <ele>194.8043213</ele>
        <time>2012-11-13T15:11:40Z</time>
      </trkpt>
      <trkpt lat="49.06377" lon="6.2468">
        <ele>194.3237305</ele>
        <time>2012-11-13T15:11:45Z</time>
      </trkpt>
      <trkpt lat="49.06366" lon="6.24638">
        <ele>193.8430176</ele>
        <time>2012-11-13T15:11:49Z</time>
      </trkpt>
      <trkpt lat="49.06366" lon="6.24601">
        <ele>192.8817139</ele>
        <time>2012-11-13T15:11:52Z</time>
      </trkpt>
      <trkpt lat="49.06381" lon="6.24555">
        <ele>192.401123</ele>
        <time>2012-11-13T15:11:56Z</time>
      </trkpt>
      <trkpt lat="49.06402" lon="6.2453">
        <ele>190.9589844</ele>
        <time>2012-11-13T15:11:59Z</time>
      </trkpt>
      <trkpt lat="49.0641" lon="6.24523">
        <ele>190.4783936</ele>
        <time>2012-11-13T15:12:00Z</time>
      </trkpt>
      <trkpt lat="49.06498" lon="6.24462">
        <ele>189.036377</ele>
        <time>2012-11-13T15:12:10Z</time>
      </trkpt>
      <trkpt lat="49.06555" lon="6.24421">
        <ele>188.5557861</ele>
        <time>2012-11-13T15:12:17Z</time>
      </trkpt>
      <trkpt lat="49.06616" lon="6.24376">
        <ele>187.5943604</ele>
        <time>2012-11-13T15:12:25Z</time>
      </trkpt>
      <trkpt lat="49.0666" lon="6.24334">
        <ele>188.0750732</ele>
        <time>2012-11-13T15:12:32Z</time>
      </trkpt>
      <trkpt lat="49.06715" lon="6.24286">
        <ele>187.5943604</ele>
        <time>2012-11-13T15:12:41Z</time>
      </trkpt>
      <trkpt lat="49.06774" lon="6.24244">
        <ele>187.5943604</ele>
        <time>2012-11-13T15:12:50Z</time>
      </trkpt>
      <trkpt lat="49.06833" lon="6.24207">
        <ele>186.6331787</ele>
        <time>2012-11-13T15:12:59Z</time>
      </trkpt>
      <trkpt lat="49.06878" lon="6.24181">
        <ele>187.1137695</ele>
        <time>2012-11-13T15:13:06Z</time>
      </trkpt>
      <trkpt lat="49.06915" lon="6.24154">
        <ele>187.5943604</ele>
        <time>2012-11-13T15:13:12Z</time>
      </trkpt>
      <trkpt lat="49.06949" lon="6.24118">
        <ele>188.5557861</ele>
        <time>2012-11-13T15:13:18Z</time>
      </trkpt>
      <trkpt lat="49.06978" lon="6.24071">
        <ele>189.5169678</ele>
        <time>2012-11-13T15:13:24Z</time>
      </trkpt>
      <trkpt lat="49.07006" lon="6.24007">
        <ele>189.9976807</ele>
        <time>2012-11-13T15:13:31Z</time>
      </trkpt>
      <trkpt lat="49.0702" lon="6.23949">
        <ele>189.5169678</ele>
        <time>2012-11-13T15:13:36Z</time>
      </trkpt>
      <trkpt lat="49.07028" lon="6.2388">
        <ele>189.9976807</ele>
        <time>2012-11-13T15:13:42Z</time>
      </trkpt>
      <trkpt lat="49.07038" lon="6.23786">
        <ele>190.4783936</ele>
        <time>2012-11-13T15:13:50Z</time>
      </trkpt>
      <trkpt lat="49.07049" lon="6.23679">
        <ele>190.4783936</ele>
        <time>2012-11-13T15:13:59Z</time>
      </trkpt>
      <trkpt lat="49.07059" lon="6.23564">
        <ele>189.5169678</ele>
        <time>2012-11-13T15:14:08Z</time>
      </trkpt>
      <trkpt lat="49.07069" lon="6.23458">
        <ele>188.5557861</ele>
        <time>2012-11-13T15:14:16Z</time>
      </trkpt>
      <trkpt lat="49.07075" lon="6.23366">
        <ele>189.036377</ele>
        <time>2012-11-13T15:14:23Z</time>
      </trkpt>
      <trkpt lat="49.07075" lon="6.23354">
        <ele>189.5169678</ele>
        <time>2012-11-13T15:14:24Z</time>
      </trkpt>
      <trkpt lat="49.07065" lon="6.2327">
        <ele>189.5169678</ele>
        <time>2012-11-13T15:14:31Z</time>
      </trkpt>
      <trkpt lat="49.07046" lon="6.23216">
        <ele>189.5169678</ele>
        <time>2012-11-13T15:14:36Z</time>
      </trkpt>
      <trkpt lat="49.07026" lon="6.23163">
        <ele>188.0750732</ele>
        <time>2012-11-13T15:14:41Z</time>
      </trkpt>
      <trkpt lat="49.06994" lon="6.23071">
        <ele>187.1137695</ele>
        <time>2012-11-13T15:14:49Z</time>
      </trkpt>
      <trkpt lat="49.06988" lon="6.2303">
        <ele>186.1524658</ele>
        <time>2012-11-13T15:14:52Z</time>
      </trkpt>
      <trkpt lat="49.06988" lon="6.23001">
        <ele>185.1911621</ele>
        <time>2012-11-13T15:14:54Z</time>
      </trkpt>
      <trkpt lat="49.06994" lon="6.22972">
        <ele>184.2298584</ele>
        <time>2012-11-13T15:14:56Z</time>
      </trkpt>
      <trkpt lat="49.07006" lon="6.22947">
        <ele>184.7105713</ele>
        <time>2012-11-13T15:14:58Z</time>
      </trkpt>
      <trkpt lat="49.07043" lon="6.2289">
        <ele>186.6331787</ele>
        <time>2012-11-13T15:15:04Z</time>
      </trkpt>
      <trkpt lat="49.0705" lon="6.22884">
        <ele>185.6717529</ele>
        <time>2012-11-13T15:15:05Z</time>
      </trkpt>
      <trkpt lat="49.07102" lon="6.22854">
        <ele>186.6331787</ele>
        <time>2012-11-13T15:15:12Z</time>
      </trkpt>
      <trkpt lat="49.07143" lon="6.22817">
        <ele>187.1137695</ele>
        <time>2012-11-13T15:15:18Z</time>
      </trkpt>
      <trkpt lat="49.07196" lon="6.2276">
        <ele>187.5943604</ele>
        <time>2012-11-13T15:15:26Z</time>
      </trkpt>
      <trkpt lat="49.0723" lon="6.22717">
        <ele>188.0750732</ele>
        <time>2012-11-13T15:15:32Z</time>
      </trkpt>
      <trkpt lat="49.07246" lon="6.22666">
        <ele>189.036377</ele>
        <time>2012-11-13T15:15:37Z</time>
      </trkpt>
      <trkpt lat="49.0726" lon="6.22558">
        <ele>189.036377</ele>
        <time>2012-11-13T15:15:46Z</time>
      </trkpt>
      <trkpt lat="49.07275" lon="6.22481">
        <ele>188.0750732</ele>
        <time>2012-11-13T15:15:53Z</time>
      </trkpt>
      <trkpt lat="49.07297" lon="6.22389">
        <ele>188.0750732</ele>
        <time>2012-11-13T15:16:02Z</time>
      </trkpt>
      <trkpt lat="49.07323" lon="6.22292">
        <ele>188.0750732</ele>
        <time>2012-11-13T15:16:11Z</time>
      </trkpt>
      <trkpt lat="49.07343" lon="6.22222">
        <ele>188.5557861</ele>
        <time>2012-11-13T15:16:18Z</time>
      </trkpt>
      <trkpt lat="49.07359" lon="6.22162">
        <ele>188.0750732</ele>
        <time>2012-11-13T15:16:24Z</time>
      </trkpt>
      <trkpt lat="49.07365" lon="6.22127">
        <ele>187.5943604</ele>
        <time>2012-11-13T15:16:29Z</time>
      </trkpt>
      <trkpt lat="49.07372" lon="6.22097">
        <ele>187.5943604</ele>
        <time>2012-11-13T15:16:35Z</time>
      </trkpt>
      <trkpt lat="49.07366" lon="6.22068">
        <ele>186.6331787</ele>
        <time>2012-11-13T15:16:39Z</time>
      </trkpt>
      <trkpt lat="49.07355" lon="6.22033">
        <ele>185.1911621</ele>
        <time>2012-11-13T15:16:43Z</time>
      </trkpt>
      <trkpt lat="49.07337" lon="6.21981">
        <ele>184.7105713</ele>
        <time>2012-11-13T15:16:48Z</time>
      </trkpt>
      <trkpt lat="49.07317" lon="6.21907">
        <ele>182.7878418</ele>
        <time>2012-11-13T15:16:54Z</time>
      </trkpt>
      <trkpt lat="49.07296" lon="6.21819">
        <ele>181.3458252</ele>
        <time>2012-11-13T15:17:01Z</time>
      </trkpt>
      <trkpt lat="49.07291" lon="6.21757">
        <ele>181.3458252</ele>
        <time>2012-11-13T15:17:06Z</time>
      </trkpt>
      <trkpt lat="49.07295" lon="6.21683">
        <ele>181.826416</ele>
        <time>2012-11-13T15:17:12Z</time>
      </trkpt>
      <trkpt lat="49.07306" lon="6.21627">
        <ele>181.826416</ele>
        <time>2012-11-13T15:17:17Z</time>
      </trkpt>
      <trkpt lat="49.07316" lon="6.21596">
        <ele>179.9038086</ele>
        <time>2012-11-13T15:17:20Z</time>
      </trkpt>
      <trkpt lat="49.07342" lon="6.2154">
        <ele>181.3458252</ele>
        <time>2012-11-13T15:17:26Z</time>
      </trkpt>
      <trkpt lat="49.07375" lon="6.21495">
        <ele>182.3071289</ele>
        <time>2012-11-13T15:17:32Z</time>
      </trkpt>
      <trkpt lat="49.07407" lon="6.21461">
        <ele>182.7878418</ele>
        <time>2012-11-13T15:17:38Z</time>
      </trkpt>
      <trkpt lat="49.07451" lon="6.21415">
        <ele>183.2684326</ele>
        <time>2012-11-13T15:17:46Z</time>
      </trkpt>
      <trkpt lat="49.07479" lon="6.21373">
        <ele>184.7105713</ele>
        <time>2012-11-13T15:17:52Z</time>
      </trkpt>
      <trkpt lat="49.07501" lon="6.21325">
        <ele>185.6717529</ele>
        <time>2012-11-13T15:17:58Z</time>
      </trkpt>
      <trkpt lat="49.07515" lon="6.21269">
        <ele>186.1524658</ele>
        <time>2012-11-13T15:18:04Z</time>
      </trkpt>
      <trkpt lat="49.07525" lon="6.21198">
        <ele>186.6331787</ele>
        <time>2012-11-13T15:18:11Z</time>
      </trkpt>
      <trkpt lat="49.07525" lon="6.21121">
        <ele>186.6331787</ele>
        <time>2012-11-13T15:18:18Z</time>
      </trkpt>
      <trkpt lat="49.07523" lon="6.21007">
        <ele>186.6331787</ele>
        <time>2012-11-13T15:18:28Z</time>
      </trkpt>
      <trkpt lat="49.07521" lon="6.20894">
        <ele>186.1524658</ele>
        <time>2012-11-13T15:18:37Z</time>
      </trkpt>
      <trkpt lat="49.07519" lon="6.20794">
        <ele>185.1911621</ele>
        <time>2012-11-13T15:18:45Z</time>
      </trkpt>
      <trkpt lat="49.07519" lon="6.20673">
        <ele>185.1911621</ele>
        <time>2012-11-13T15:18:55Z</time>
      </trkpt>
      <trkpt lat="49.07518" lon="6.20562">
        <ele>186.1524658</ele>
        <time>2012-11-13T15:19:04Z</time>
      </trkpt>
      <trkpt lat="49.07524" lon="6.20452">
        <ele>187.1137695</ele>
        <time>2012-11-13T15:19:13Z</time>
      </trkpt>
      <trkpt lat="49.07534" lon="6.20345">
        <ele>187.1137695</ele>
        <time>2012-11-13T15:19:22Z</time>
      </trkpt>
      <trkpt lat="49.07544" lon="6.20255">
        <ele>187.1137695</ele>
        <time>2012-11-13T15:19:30Z</time>
      </trkpt>
      <trkpt lat="49.07551" lon="6.20172">
        <ele>184.7105713</ele>
        <time>2012-11-13T15:19:37Z</time>
      </trkpt>
      <trkpt lat="49.07558" lon="6.20094">
        <ele>183.2684326</ele>
        <time>2012-11-13T15:19:43Z</time>
      </trkpt>
      <trkpt lat="49.07563" lon="6.20037">
        <ele>180.8652344</ele>
        <time>2012-11-13T15:19:47Z</time>
      </trkpt>
      <trkpt lat="49.07568" lon="6.19993">
        <ele>178.942627</ele>
        <time>2012-11-13T15:19:50Z</time>
      </trkpt>
      <trkpt lat="49.0757" lon="6.19963">
        <ele>177.5006104</ele>
        <time>2012-11-13T15:19:52Z</time>
      </trkpt>
      <trkpt lat="49.07576" lon="6.19904">
        <ele>177.0200195</ele>
        <time>2012-11-13T15:19:56Z</time>
      </trkpt>
      <trkpt lat="49.07582" lon="6.19834">
        <ele>173.6552734</ele>
        <time>2012-11-13T15:20:01Z</time>
      </trkpt>
      <trkpt lat="49.07588" lon="6.19762">
        <ele>172.6939697</ele>
        <time>2012-11-13T15:20:06Z</time>
      </trkpt>
      <trkpt lat="49.07601" lon="6.1964">
        <ele>171.732666</ele>
        <time>2012-11-13T15:20:15Z</time>
      </trkpt>
      <trkpt lat="49.07603" lon="6.19628">
        <ele>171.732666</ele>
        <time>2012-11-13T15:20:16Z</time>
      </trkpt>
      <trkpt lat="49.07627" lon="6.1956">
        <ele>170.2906494</ele>
        <time>2012-11-13T15:20:22Z</time>
      </trkpt>
      <trkpt lat="49.0766" lon="6.19486">
        <ele>169.8100586</ele>
        <time>2012-11-13T15:20:29Z</time>
      </trkpt>
      <trkpt lat="49.07703" lon="6.19418">
        <ele>168.8487549</ele>
        <time>2012-11-13T15:20:36Z</time>
      </trkpt>
      <trkpt lat="49.07738" lon="6.19355">
        <ele>168.368042</ele>
        <time>2012-11-13T15:20:43Z</time>
      </trkpt>
      <trkpt lat="49.07765" lon="6.19301">
        <ele>168.368042</ele>
        <time>2012-11-13T15:20:49Z</time>
      </trkpt>
      <trkpt lat="49.07796" lon="6.19229">
        <ele>169.3294678</ele>
        <time>2012-11-13T15:20:57Z</time>
      </trkpt>
      <trkpt lat="49.07822" lon="6.19166">
        <ele>168.368042</ele>
        <time>2012-11-13T15:21:04Z</time>
      </trkpt>
      <trkpt lat="49.07842" lon="6.19094">
        <ele>167.4067383</ele>
        <time>2012-11-13T15:21:11Z</time>
      </trkpt>
      <trkpt lat="49.07866" lon="6.19011">
        <ele>166.4453125</ele>
        <time>2012-11-13T15:21:19Z</time>
      </trkpt>
      <trkpt lat="49.07885" lon="6.18949">
        <ele>165.4841309</ele>
        <time>2012-11-13T15:21:25Z</time>
      </trkpt>
      <trkpt lat="49.07911" lon="6.18882">
        <ele>165.4841309</ele>
        <time>2012-11-13T15:21:32Z</time>
      </trkpt>
      <trkpt lat="49.07936" lon="6.18821">
        <ele>165.9647217</ele>
        <time>2012-11-13T15:21:39Z</time>
      </trkpt>
      <trkpt lat="49.0796" lon="6.18762">
        <ele>165.4841309</ele>
        <time>2012-11-13T15:21:46Z</time>
      </trkpt>
      <trkpt lat="49.07963" lon="6.18754">
        <ele>165.003418</ele>
        <time>2012-11-13T15:21:47Z</time>
      </trkpt>
      <trkpt lat="49.07974" lon="6.18735">
        <ele>165.003418</ele>
        <time>2012-11-13T15:21:50Z</time>
      </trkpt>
      <trkpt lat="49.0799" lon="6.18727">
        <ele>166.4453125</ele>
        <time>2012-11-13T15:21:53Z</time>
      </trkpt>
      <trkpt lat="49.07996" lon="6.18728">
        <ele>166.9260254</ele>
        <time>2012-11-13T15:21:54Z</time>
      </trkpt>
      <trkpt lat="49.08025" lon="6.18716">
        <ele>166.4453125</ele>
        <time>2012-11-13T15:21:59Z</time>
      </trkpt>
      <trkpt lat="49.08041" lon="6.18699">
        <ele>166.4453125</ele>
        <time>2012-11-13T15:22:02Z</time>
      </trkpt>
      <trkpt lat="49.08083" lon="6.1864">
        <ele>165.9647217</ele>
        <time>2012-11-13T15:22:10Z</time>
      </trkpt>
      <trkpt lat="49.08107" lon="6.18602">
        <ele>167.4067383</ele>
        <time>2012-11-13T15:22:15Z</time>
      </trkpt>
      <trkpt lat="49.08148" lon="6.18543">
        <ele>166.9260254</ele>
        <time>2012-11-13T15:22:23Z</time>
      </trkpt>
      <trkpt lat="49.08185" lon="6.18497">
        <ele>165.9647217</ele>
        <time>2012-11-13T15:22:30Z</time>
      </trkpt>
      <trkpt lat="49.08236" lon="6.18429">
        <ele>165.9647217</ele>
        <time>2012-11-13T15:22:40Z</time>
      </trkpt>
      <trkpt lat="49.08282" lon="6.18369">
        <ele>165.9647217</ele>
        <time>2012-11-13T15:22:49Z</time>
      </trkpt>
      <trkpt lat="49.08303" lon="6.1834">
        <ele>165.9647217</ele>
        <time>2012-11-13T15:22:54Z</time>
      </trkpt>
      <trkpt lat="49.08312" lon="6.18327">
        <ele>165.4841309</ele>
        <time>2012-11-13T15:22:58Z</time>
      </trkpt>
      <trkpt lat="49.08313" lon="6.18326">
        <ele>165.4841309</ele>
        <time>2012-11-13T15:23:00Z</time>
      </trkpt>
      <trkpt lat="49.08316" lon="6.18328">
        <ele>165.4841309</ele>
        <time>2012-11-13T15:23:12Z</time>
      </trkpt>
      <trkpt lat="49.08326" lon="6.1832">
        <ele>165.9647217</ele>
        <time>2012-11-13T15:23:15Z</time>
      </trkpt>
      <trkpt lat="49.08335" lon="6.18315">
        <ele>165.9647217</ele>
        <time>2012-11-13T15:23:17Z</time>
      </trkpt>
      <trkpt lat="49.08377" lon="6.18302">
        <ele>166.4453125</ele>
        <time>2012-11-13T15:23:24Z</time>
      </trkpt>
      <trkpt lat="49.08432" lon="6.18293">
        <ele>166.4453125</ele>
        <time>2012-11-13T15:23:32Z</time>
      </trkpt>
      <trkpt lat="49.08478" lon="6.18289">
        <ele>165.4841309</ele>
        <time>2012-11-13T15:23:38Z</time>
      </trkpt>
      <trkpt lat="49.08529" lon="6.1828">
        <ele>165.003418</ele>
        <time>2012-11-13T15:23:45Z</time>
      </trkpt>
      <trkpt lat="49.08577" lon="6.18273">
        <ele>165.003418</ele>
        <time>2012-11-13T15:23:51Z</time>
      </trkpt>
      <trkpt lat="49.08628" lon="6.18256">
        <ele>165.003418</ele>
        <time>2012-11-13T15:23:58Z</time>
      </trkpt>
      <trkpt lat="49.08686" lon="6.1823">
        <ele>165.4841309</ele>
        <time>2012-11-13T15:24:06Z</time>
      </trkpt>
      <trkpt lat="49.08735" lon="6.18211">
        <ele>165.4841309</ele>
        <time>2012-11-13T15:24:13Z</time>
      </trkpt>
      <trkpt lat="49.08772" lon="6.18204">
        <ele>165.003418</ele>
        <time>2012-11-13T15:24:19Z</time>
      </trkpt>
      <trkpt lat="49.08792" lon="6.18201">
        <ele>165.003418</ele>
        <time>2012-11-13T15:24:24Z</time>
      </trkpt>
      <trkpt lat="49.08804" lon="6.182">
        <ele>164.5227051</ele>
        <time>2012-11-13T15:24:30Z</time>
      </trkpt>
      <trkpt lat="49.08803" lon="6.18194">
        <ele>164.5227051</ele>
        <time>2012-11-13T15:24:35Z</time>
      </trkpt>
      <trkpt lat="49.08803" lon="6.18193">
        <ele>164.5227051</ele>
        <time>2012-11-13T15:24:43Z</time>
      </trkpt>
      <trkpt lat="49.08818" lon="6.18196">
        <ele>165.003418</ele>
        <time>2012-11-13T15:24:48Z</time>
      </trkpt>
      <trkpt lat="49.08836" lon="6.18188">
        <ele>165.4841309</ele>
        <time>2012-11-13T15:24:53Z</time>
      </trkpt>
      <trkpt lat="49.08868" lon="6.18182">
        <ele>164.5227051</ele>
        <time>2012-11-13T15:24:59Z</time>
      </trkpt>
      <trkpt lat="49.08907" lon="6.18181">
        <ele>165.003418</ele>
        <time>2012-11-13T15:25:06Z</time>
      </trkpt>
      <trkpt lat="49.08956" lon="6.18177">
        <ele>164.5227051</ele>
        <time>2012-11-13T15:25:14Z</time>
      </trkpt>
      <trkpt lat="49.08994" lon="6.18174">
        <ele>164.0421143</ele>
        <time>2012-11-13T15:25:20Z</time>
      </trkpt>
      <trkpt lat="49.09024" lon="6.18172">
        <ele>164.0421143</ele>
        <time>2012-11-13T15:25:25Z</time>
      </trkpt>
      <trkpt lat="49.09037" lon="6.1815">
        <ele>164.5227051</ele>
        <time>2012-11-13T15:25:29Z</time>
      </trkpt>
      <trkpt lat="49.09038" lon="6.18142">
        <ele>164.5227051</ele>
        <time>2012-11-13T15:25:30Z</time>
      </trkpt>
      <trkpt lat="49.09038" lon="6.18064">
        <ele>165.4841309</ele>
        <time>2012-11-13T15:25:38Z</time>
      </trkpt>
      <trkpt lat="49.0904" lon="6.17998">
        <ele>166.4453125</ele>
        <time>2012-11-13T15:25:44Z</time>
      </trkpt>
      <trkpt lat="49.09056" lon="6.17923">
        <ele>168.8487549</ele>
        <time>2012-11-13T15:25:52Z</time>
      </trkpt>
      <trkpt lat="49.09076" lon="6.17867">
        <ele>169.3294678</ele>
        <time>2012-11-13T15:25:59Z</time>
      </trkpt>
      <trkpt lat="49.091" lon="6.17821">
        <ele>170.7713623</ele>
        <time>2012-11-13T15:26:06Z</time>
      </trkpt>
      <trkpt lat="49.09127" lon="6.17776">
        <ele>171.732666</ele>
        <time>2012-11-13T15:26:14Z</time>
      </trkpt>
      <trkpt lat="49.09158" lon="6.17725">
        <ele>173.1746826</ele>
        <time>2012-11-13T15:26:23Z</time>
      </trkpt>
      <trkpt lat="49.09188" lon="6.17683">
        <ele>175.09729</ele>
        <time>2012-11-13T15:26:32Z</time>
      </trkpt>
      <trkpt lat="49.09221" lon="6.17641">
        <ele>176.0585938</ele>
        <time>2012-11-13T15:26:41Z</time>
      </trkpt>
      <trkpt lat="49.09249" lon="6.17606">
        <ele>176.0585938</ele>
        <time>2012-11-13T15:26:49Z</time>
      </trkpt>
      <trkpt lat="49.09277" lon="6.17572">
        <ele>178.4619141</ele>
        <time>2012-11-13T15:26:57Z</time>
      </trkpt>
      <trkpt lat="49.0928" lon="6.17568">
        <ele>177.9812012</ele>
        <time>2012-11-13T15:26:58Z</time>
      </trkpt>
      <trkpt lat="49.09287" lon="6.17561">
        <ele>177.0200195</ele>
        <time>2012-11-13T15:27:00Z</time>
      </trkpt>
      <trkpt lat="49.09306" lon="6.17532">
        <ele>178.4619141</ele>
        <time>2012-11-13T15:27:07Z</time>
      </trkpt>
      <trkpt lat="49.09317" lon="6.17518">
        <ele>178.4619141</ele>
        <time>2012-11-13T15:27:13Z</time>
      </trkpt>
      <trkpt lat="49.09317" lon="6.17517">
        <ele>178.4619141</ele>
        <time>2012-11-13T15:27:15Z</time>
      </trkpt>
      <trkpt lat="49.0932" lon="6.17517">
        <ele>178.4619141</ele>
        <time>2012-11-13T15:27:37Z</time>
      </trkpt>
      <trkpt lat="49.09326" lon="6.17507">
        <ele>179.4232178</ele>
        <time>2012-11-13T15:27:41Z</time>
      </trkpt>
      <trkpt lat="49.09327" lon="6.17504">
        <ele>179.4232178</ele>
        <time>2012-11-13T15:27:46Z</time>
      </trkpt>
      <trkpt lat="49.09328" lon="6.17501">
        <ele>178.942627</ele>
        <time>2012-11-13T15:27:57Z</time>
      </trkpt>
      <trkpt lat="49.09331" lon="6.17494">
        <ele>179.4232178</ele>
        <time>2012-11-13T15:28:00Z</time>
      </trkpt>
      <trkpt lat="49.09328" lon="6.17481">
        <ele>179.4232178</ele>
        <time>2012-11-13T15:28:04Z</time>
      </trkpt>
      <trkpt lat="49.09309" lon="6.17455">
        <ele>180.3845215</ele>
        <time>2012-11-13T15:28:10Z</time>
      </trkpt>
      <trkpt lat="49.09293" lon="6.17419">
        <ele>180.3845215</ele>
        <time>2012-11-13T15:28:15Z</time>
      </trkpt>
      <trkpt lat="49.09278" lon="6.17371">
        <ele>178.942627</ele>
        <time>2012-11-13T15:28:21Z</time>
      </trkpt>
      <trkpt lat="49.09272" lon="6.17349">
        <ele>178.4619141</ele>
        <time>2012-11-13T15:28:26Z</time>
      </trkpt>
      <trkpt lat="49.0927" lon="6.17342">
        <ele>177.9812012</ele>
        <time>2012-11-13T15:28:30Z</time>
      </trkpt>
      <trkpt lat="49.09271" lon="6.17327">
        <ele>177.9812012</ele>
        <time>2012-11-13T15:28:36Z</time>
      </trkpt>
      <trkpt lat="49.09271" lon="6.17323">
        <ele>177.9812012</ele>
        <time>2012-11-13T15:28:41Z</time>
      </trkpt>
      <trkpt lat="49.09272" lon="6.17322">
        <ele>177.5006104</ele>
        <time>2012-11-13T15:28:44Z</time>
      </trkpt>
      <trkpt lat="49.09283" lon="6.17309">
        <ele>177.5006104</ele>
        <time>2012-11-13T15:28:47Z</time>
      </trkpt>
      <trkpt lat="49.09308" lon="6.17284">
        <ele>178.942627</ele>
        <time>2012-11-13T15:28:54Z</time>
      </trkpt>
      <trkpt lat="49.09338" lon="6.17251">
        <ele>178.4619141</ele>
        <time>2012-11-13T15:29:01Z</time>
      </trkpt>
      <trkpt lat="49.0938" lon="6.17209">
        <ele>178.4619141</ele>
        <time>2012-11-13T15:29:09Z</time>
      </trkpt>
      <trkpt lat="49.09385" lon="6.17203">
        <ele>178.4619141</ele>
        <time>2012-11-13T15:29:10Z</time>
      </trkpt>
      <trkpt lat="49.09414" lon="6.1717">
        <ele>176.5393066</ele>
        <time>2012-11-13T15:29:16Z</time>
      </trkpt>
      <trkpt lat="49.09423" lon="6.17156">
        <ele>177.5006104</ele>
        <time>2012-11-13T15:29:18Z</time>
      </trkpt>
      <trkpt lat="49.09434" lon="6.17121">
        <ele>177.9812012</ele>
        <time>2012-11-13T15:29:22Z</time>
      </trkpt>
      <trkpt lat="49.09431" lon="6.17093">
        <ele>177.5006104</ele>
        <time>2012-11-13T15:29:25Z</time>
      </trkpt>
      <trkpt lat="49.09417" lon="6.17017">
        <ele>179.4232178</ele>
        <time>2012-11-13T15:29:33Z</time>
      </trkpt>
      <trkpt lat="49.09407" lon="6.1694">
        <ele>178.942627</ele>
        <time>2012-11-13T15:29:41Z</time>
      </trkpt>
      <trkpt lat="49.09401" lon="6.1687">
        <ele>178.942627</ele>
        <time>2012-11-13T15:29:49Z</time>
      </trkpt>
      <trkpt lat="49.09395" lon="6.16798">
        <ele>179.9038086</ele>
        <time>2012-11-13T15:29:58Z</time>
      </trkpt>
      <trkpt lat="49.09397" lon="6.16728">
        <ele>179.9038086</ele>
        <time>2012-11-13T15:30:06Z</time>
      </trkpt>
      <trkpt lat="49.09398" lon="6.16648">
        <ele>180.3845215</ele>
        <time>2012-11-13T15:30:15Z</time>
      </trkpt>
      <trkpt lat="49.094" lon="6.16578">
        <ele>181.3458252</ele>
        <time>2012-11-13T15:30:23Z</time>
      </trkpt>
      <trkpt lat="49.09404" lon="6.1651">
        <ele>180.8652344</ele>
        <time>2012-11-13T15:30:31Z</time>
      </trkpt>
      <trkpt lat="49.09407" lon="6.16445">
        <ele>180.8652344</ele>
        <time>2012-11-13T15:30:38Z</time>
      </trkpt>
      <trkpt lat="49.09408" lon="6.1639">
        <ele>180.8652344</ele>
        <time>2012-11-13T15:30:44Z</time>
      </trkpt>
      <trkpt lat="49.09413" lon="6.16327">
        <ele>181.3458252</ele>
        <time>2012-11-13T15:30:51Z</time>
      </trkpt>
      <trkpt lat="49.09424" lon="6.16265">
        <ele>182.7878418</ele>
        <time>2012-11-13T15:30:58Z</time>
      </trkpt>
      <trkpt lat="49.09442" lon="6.16195">
        <ele>181.826416</ele>
        <time>2012-11-13T15:31:06Z</time>
      </trkpt>
      <trkpt lat="49.09465" lon="6.16109">
        <ele>182.3071289</ele>
        <time>2012-11-13T15:31:16Z</time>
      </trkpt>
      <trkpt lat="49.09484" lon="6.16034">
        <ele>181.3458252</ele>
        <time>2012-11-13T15:31:25Z</time>
      </trkpt>
      <trkpt lat="49.09496" lon="6.15991">
        <ele>180.8652344</ele>
        <time>2012-11-13T15:31:31Z</time>
      </trkpt>
      <trkpt lat="49.09501" lon="6.15965">
        <ele>180.8652344</ele>
        <time>2012-11-13T15:31:36Z</time>
      </trkpt>
      <trkpt lat="49.095" lon="6.15955">
        <ele>181.3458252</ele>
        <time>2012-11-13T15:31:41Z</time>
      </trkpt>
      <trkpt lat="49.09501" lon="6.15955">
        <ele>180.8652344</ele>
        <time>2012-11-13T15:31:42Z</time>
      </trkpt>
      <trkpt lat="49.09506" lon="6.15955">
        <ele>180.8652344</ele>
        <time>2012-11-13T15:31:55Z</time>
      </trkpt>
      <trkpt lat="49.09508" lon="6.15943">
        <ele>181.3458252</ele>
        <time>2012-11-13T15:31:58Z</time>
      </trkpt>
      <trkpt lat="49.09518" lon="6.15917">
        <ele>181.3458252</ele>
        <time>2012-11-13T15:32:03Z</time>
      </trkpt>
      <trkpt lat="49.09521" lon="6.15902">
        <ele>181.826416</ele>
        <time>2012-11-13T15:32:05Z</time>
      </trkpt>
      <trkpt lat="49.09533" lon="6.15861">
        <ele>181.826416</ele>
        <time>2012-11-13T15:32:11Z</time>
      </trkpt>
      <trkpt lat="49.09541" lon="6.15857">
        <ele>181.826416</ele>
        <time>2012-11-13T15:32:14Z</time>
      </trkpt>
      <trkpt lat="49.09555" lon="6.15866">
        <ele>181.3458252</ele>
        <time>2012-11-13T15:32:18Z</time>
      </trkpt>
      <trkpt lat="49.0958" lon="6.15886">
        <ele>182.3071289</ele>
        <time>2012-11-13T15:32:25Z</time>
      </trkpt>
      <trkpt lat="49.09595" lon="6.15904">
        <ele>183.2684326</ele>
        <time>2012-11-13T15:32:29Z</time>
      </trkpt>
      <trkpt lat="49.09633" lon="6.15936">
        <ele>183.7490234</ele>
        <time>2012-11-13T15:32:36Z</time>
      </trkpt>
      <trkpt lat="49.09667" lon="6.15965">
        <ele>182.7878418</ele>
        <time>2012-11-13T15:32:43Z</time>
      </trkpt>
      <trkpt lat="49.09703" lon="6.15993">
        <ele>183.7490234</ele>
        <time>2012-11-13T15:32:50Z</time>
      </trkpt>
      <trkpt lat="49.09746" lon="6.16026">
        <ele>182.3071289</ele>
        <time>2012-11-13T15:32:58Z</time>
      </trkpt>
      <trkpt lat="49.09772" lon="6.16047">
        <ele>182.7878418</ele>
        <time>2012-11-13T15:33:04Z</time>
      </trkpt>
      <trkpt lat="49.09801" lon="6.1607">
        <ele>181.826416</ele>
        <time>2012-11-13T15:33:12Z</time>
      </trkpt>
      <trkpt lat="49.09821" lon="6.16089">
        <ele>180.8652344</ele>
        <time>2012-11-13T15:33:19Z</time>
      </trkpt>
      <trkpt lat="49.0983" lon="6.16093">
        <ele>181.3458252</ele>
        <time>2012-11-13T15:33:24Z</time>
      </trkpt>
      <trkpt lat="49.09838" lon="6.16096">
        <ele>181.3458252</ele>
        <time>2012-11-13T15:33:46Z</time>
      </trkpt>
      <trkpt lat="49.09843" lon="6.16086">
        <ele>181.3458252</ele>
        <time>2012-11-13T15:33:48Z</time>
      </trkpt>
      <trkpt lat="49.09845" lon="6.1608">
        <ele>181.826416</ele>
        <time>2012-11-13T15:33:49Z</time>
      </trkpt>
      <trkpt lat="49.0986" lon="6.16024">
        <ele>181.3458252</ele>
        <time>2012-11-13T15:33:58Z</time>
      </trkpt>
      <trkpt lat="49.09864" lon="6.16006">
        <ele>181.3458252</ele>
        <time>2012-11-13T15:34:01Z</time>
      </trkpt>
      <trkpt lat="49.09874" lon="6.15958">
        <ele>180.8652344</ele>
        <time>2012-11-13T15:34:08Z</time>
      </trkpt>
      <trkpt lat="49.09887" lon="6.15914">
        <ele>180.8652344</ele>
        <time>2012-11-13T15:34:16Z</time>
      </trkpt>
      <trkpt lat="49.09895" lon="6.1589">
        <ele>181.3458252</ele>
        <time>2012-11-13T15:34:20Z</time>
      </trkpt>
      <trkpt lat="49.0991" lon="6.15826">
        <ele>180.8652344</ele>
        <time>2012-11-13T15:34:30Z</time>
      </trkpt>
      <trkpt lat="49.09917" lon="6.15805">
        <ele>180.3845215</ele>
        <time>2012-11-13T15:34:35Z</time>
      </trkpt>
      <trkpt lat="49.09923" lon="6.15798">
        <ele>180.3845215</ele>
        <time>2012-11-13T15:34:40Z</time>
      </trkpt>
      <trkpt lat="49.09925" lon="6.15798">
        <ele>180.3845215</ele>
        <time>2012-11-13T15:34:41Z</time>
      </trkpt>
      <trkpt lat="49.09936" lon="6.15803">
        <ele>180.8652344</ele>
        <time>2012-11-13T15:34:50Z</time>
      </trkpt>
      <trkpt lat="49.09936" lon="6.15802">
        <ele>180.3845215</ele>
        <time>2012-11-13T15:34:53Z</time>
      </trkpt>
      <trkpt lat="49.09937" lon="6.15803">
        <ele>180.3845215</ele>
        <time>2012-11-13T15:34:58Z</time>
      </trkpt>
      <trkpt lat="49.09936" lon="6.15803">
        <ele>180.3845215</ele>
        <time>2012-11-13T15:35:00Z</time>
      </trkpt>
    </trkseg>
  </trk>
</gpx>